[[{"header":{"parameterUnit":"m.s-1","parameterCategory":1,"la1":30.6,"la2":28.766,"lo1":-90.7593,"lo2":-88.6598,"dx":0.0162,"dy":0.0183,"nx":116,"ny":114,"refTime":"2023-01-07T18:00:00:Z","depth":0,"parameterNumber":2,"parameterNumberName":"U-component_of_WINDS"},"data":[0.0,0.0,0.0,0.0,0.0,0.0,0.0,0.0,0.0,0.0,0.0,0.0,0.0,0.0,0.0,0.0,0.0,0.0,0.0,0.0,0.0,0.0,0.0,0.0,0.0,0.0,0.0,0.0,0.0,0.0,0.0,0.0,0.0,0.0,0.0,0.0,0.0,0.0,0.0,0.0,0.0,0.0,0.0,0.0,0.0,0.0,0.0,0.0,0.0,0.0,0.0,0.0,0.0,0.0,0.0,0.0,0.0,0.0,0.0,0.0,0.0,0.0,0.0,0.0,0.0,0.0,0.0,0.0,0.0,0.0,0.0,0.0,0.0,0.0,0.0,0.0,0.0,0.0,0.0,0.0,0.0,0.0,0.0,0.0,0.0,0.0,0.0,0.0,0.0,0.0,0.0,0.0,0.0,0.0,0.0,0.0,0.0,0.0,0.0,0.0,0.0,0.0,0.0,0.0,0.0,0.0,0.0,0.0,0.0,0.0,0.0,0.0,0.0,0.0,0.0,0.0,0.0,0.0,0.0,0.0,0.0,0.0,0.0,0.0,0.0,0.0,0.0,0.0,0.0,0.0,0.0,0.0,0.0,0.0,0.0,0.0,0.0,0.0,0.0,0.0,0.0,0.0,0.0,0.0,0.0,0.0,0.0,0.0,0.0,0.0,0.0,0.0,0.0,0.0,0.0,0.0,0.0,0.0,0.0,0.0,0.0,0.0,0.0,0.0,0.0,0.0,0.0,0.0,0.0,0.0,0.0,0.0,0.0,0.0,0.0,0.0,0.0,0.0,0.0,0.0,0.0,0.0,0.0,0.0,0.0,0.0,0.0,0.0,0.0,0.0,0.0,0.0,0.0,0.0,0.0,0.0,0.0,0.0,0.0,0.0,0.0,0.0,0.0,0.0,0.0,0.0,0.0,0.0,0.0,0.0,0.0,0.0,0.0,0.0,0.0,0.0,0.0,0.0,0.0,0.0,0.0,0.0,0.0,0.0,0.0,0.0,0.0,0.0,0.0,0.0,0.0,0.0,0.0,0.0,0.0,0.0,0.0,0.0,0.0,0.0,0.0,0.0,0.0,0.0,0.0,0.0,0.0,0.0,0.0,0.0,0.0,0.0,0.0,0.0,0.0,0.0,0.0,0.0,0.0,0.0,0.0,0.0,0.0,0.0,0.0,0.0,0.0,0.0,0.0,0.0,0.0,0.0,0.0,0.0,0.0,0.0,0.0,0.0,0.0,0.0,0.0,0.0,0.0,0.0,0.0,0.0,0.0,0.0,0.0,0.0,0.0,0.0,0.0,0.0,0.0,0.0,0.0,0.0,0.0,0.0,0.0,0.0,0.0,0.0,0.0,0.0,0.0,0.0,0.0,0.0,0.0,0.0,0.0,0.0,0.0,0.0,0.0,0.0,0.0,0.0,0.0,0.0,0.0,0.0,0.0,0.0,0.0,0.0,0.0,0.0,0.0,0.0,0.0,0.0,0.0,0.0,0.0,0.0,0.0,0.0,0.0,0.0,0.0,0.0,0.0,0.0,0.0,0.0,0.0,0.0,0.0,0.0,0.0,0.0,0.0,0.0,0.0,0.0,0.0,0.0,0.0,0.0,0.0,0.0,0.0,0.0,0.0,0.0,0.0,0.0,0.0,0.0,0.0,0.0,0.0,0.0,0.0,0.0,0.0,0.0,0.0,0.0,0.0,0.0,0.0,0.0,0.0,0.0,0.0,0.0,0.0,0.0,0.0,0.0,0.0,0.0,0.0,0.0,0.0,0.0,0.0,0.0,0.0,0.0,0.0,0.0,0.0,0.0,0.0,0.0,0.0,0.0,0.0,0.0,0.0,0.0,0.0,0.0,0.0,0.0,0.0,0.0,0.0,0.0,0.0,0.0,0.0,0.0,0.0,0.0,0.0,0.0,0.0,0.0,0.0,0.0,0.0,0.0,0.0,0.0,0.0,0.0,0.0,0.0,0.0,0.0,0.0,0.0,0.0,0.0,0.0,0.0,0.0,0.0,0.0,0.0,0.0,0.0,0.0,0.0,0.0,0.0,0.0,0.0,0.0,0.0,0.0,0.0,0.0,0.0,0.0,0.0,0.0,0.0,0.0,0.0,0.0,0.0,0.0,0.0,0.0,0.0,0.0,0.0,0.0,0.0,0.0,0.0,0.0,0.0,0.0,0.0,0.0,0.0,0.0,0.0,0.0,0.0,0.0,0.0,0.0,0.0,0.0,0.0,0.0,0.0,0.0,0.0,0.0,0.0,0.0,0.0,0.0,0.0,0.0,0.0,0.0,0.0,0.0,0.0,0.0,0.0,0.0,0.0,0.0,0.0,0.0,0.0,0.0,0.0,0.0,0.0,0.0,0.0,0.0,0.0,0.0,0.0,0.0,0.0,0.0,0.0,0.0,0.0,0.0,0.0,0.0,0.0,0.0,0.0,0.0,0.0,0.0,0.0,0.0,0.0,0.0,0.0,0.0,0.0,0.0,0.0,0.0,0.0,0.0,0.0,0.0,0.0,0.0,0.0,0.0,0.0,0.0,0.0,0.0,0.0,0.0,0.0,0.0,0.0,0.0,0.0,0.0,0.0,0.0,0.0,0.0,0.0,0.0,0.0,0.0,0.0,0.0,0.0,0.0,0.0,0.0,0.0,0.0,0.0,0.0,0.0,0.0,0.0,0.0,0.0,0.0,0.0,0.0,0.0,0.0,0.0,0.0,0.0,0.0,0.0,0.0,0.0,0.0,0.0,0.0,0.0,0.0,0.0,0.0,0.0,0.0,0.0,0.0,0.0,0.0,0.0,0.0,0.0,0.0,0.0,0.0,0.0,0.0,0.0,0.0,0.0,0.0,0.0,0.0,0.0,0.0,0.0,0.0,0.0,0.0,0.0,0.0,0.0,0.0,0.0,0.0,0.0,0.0,0.0,0.0,0.0,0.0,0.0,0.0,0.0,0.0,0.0,0.0,0.0,0.0,0.0,0.0,0.0,0.0,0.0,0.0,0.0,0.0,0.0,0.0,0.0,0.0,0.0,0.0,0.0,0.0,0.0,0.0,0.0,0.0,0.0,0.0,0.0,0.0,0.0,0.0,0.0,0.0,0.0,0.0,0.0,0.0,0.0,0.0,0.0,0.0,0.0,0.0,0.0,0.0,0.0,0.0,0.0,0.0,0.0,0.0,0.0,0.0,0.0,0.0,0.0,0.0,0.0,0.0,0.0,0.0,0.0,0.0,0.0,0.0,0.0,0.0,0.0,0.0,0.0,0.0,0.0,0.0,0.0,0.0,0.0,0.0,0.0,0.0,0.0,0.0,0.0,0.0,0.0,0.0,0.0,0.0,0.0,0.0,0.0,0.0,0.0,0.0,0.0,0.0,0.0,0.0,0.0,0.0,0.0,0.0,0.0,0.0,0.0,0.0,0.0,0.0,0.0,0.0,0.0,0.0,0.0,0.0,0.0,0.0,0.0,0.0,0.0,0.0,0.0,0.0,0.0,0.0,0.0,0.0,0.0,0.0,0.0,0.0,0.0,0.0,0.0,0.0,0.0,0.0,0.0,0.0,0.0,0.0,0.0,0.0,0.0,0.0,0.0,0.0,0.0,0.0,0.0,0.0,0.0,0.0,0.0,0.0,0.0,0.0,0.0,0.0,0.0,0.0,0.0,0.0,0.0,0.0,0.0,0.0,0.0,0.0,0.0,0.0,0.0,0.0,0.0,0.0,0.0,0.0,0.0,0.0,0.0,0.0,0.0,0.0,0.0,0.0,0.0,0.0,0.0,0.0,0.0,0.0,0.0,0.0,0.0,0.0,0.0,0.0,0.0,0.0,0.0,0.0,0.0,0.0,0.0,0.0,0.0,0.0,0.0,0.0,0.0,0.0,0.0,0.0,0.0,0.0,0.0,0.0,0.0,0.0,0.0,0.0,0.0,0.0,0.0,0.0,0.0,0.0,0.0,0.0,0.0,0.0,0.0,0.0,0.0,0.0,0.0,0.0,0.0,0.0,0.0,0.0,0.0,0.0,0.0,0.0,0.0,0.0,0.0,0.0,0.0,0.0,0.0,0.0,0.0,0.0,0.0,0.0,0.0,0.0,0.0,0.0,0.0,0.0,0.0,0.0,0.0,0.0,0.0,0.0,0.0,0.0,0.0,0.0,0.0,0.0,0.0,0.0,0.0,0.0,0.0,0.0,0.0,0.0,0.0,0.0,0.0,0.0,0.0,0.0,0.0,0.0,0.0,0.0,0.0,0.0,0.0,0.0,0.0,0.0,0.0,0.0,0.0,0.0,0.0,0.0,0.0,0.0,0.0,0.0,0.0,0.0,0.0,0.0,0.0,0.0,0.0,0.0,0.0,0.0,0.0,0.0,0.0,0.0,0.0,0.0,0.0,0.0,0.0,0.0,0.0,0.0,0.0,0.0,0.0,0.0,0.0,0.0,0.0,0.0,0.0,0.0,0.0,0.0,0.0,0.0,0.0,0.0,0.0,0.0,0.0,0.0,0.0,0.0,0.0,0.0,0.0,0.0,0.0,0.0,0.0,0.0,0.0,0.0,0.0,0.0,0.0,0.0,0.0,0.0,0.0,0.0,0.0,0.0,0.0,0.0,0.0,0.0,0.0,0.0,0.0,0.0,0.0,0.0,0.0,0.0,0.0,0.0,0.0,0.0,0.0,0.0,0.0,0.0,0.0,0.0,0.0,0.0,0.0,0.0,0.0,0.0,0.0,0.0,0.0,0.0,0.0,0.0,0.0,0.0,0.0,0.0,0.0,0.0,0.0,0.0,0.0,0.0,0.0,0.0,0.0,0.0,0.0,0.0,0.0,0.0,0.0,0.0,0.0,0.0,0.0,0.0,0.0,0.0,0.0,0.0,0.0,0.0,0.0,0.0,0.0,0.0,0.0,0.0,0.0,0.0,0.0,0.0,0.0,0.0,0.0,0.0,0.0,0.0,0.0,0.0,0.0,0.0,0.0,0.0,0.0,0.0,0.0,0.0,0.0,0.0,0.0,0.0,0.0,0.0,0.0,0.0,0.0,0.0,0.0,0.0,0.0,0.0,0.0,0.0,0.0,0.0,0.0,0.0,0.0,0.0,0.0,0.0,0.0,0.0,0.0,0.0,0.0,0.0,0.0,0.0,0.0,0.0,0.0,0.0,0.0,0.0,0.0,0.0,0.0,0.0,0.0,0.0,0.0,0.0,0.0,0.0,0.0,0.0,0.0,0.0,0.0,0.0,0.0,0.0,0.0,0.0,0.0,0.0,0.0,0.0,0.0,0.0,0.0,0.0,0.0,0.0,0.0,0.0,0.0,0.0,0.0,0.0,0.0,0.0,0.0,0.0,0.0,0.0,0.0,0.0,0.0,0.0,0.0,0.0,0.0,0.0,0.0,0.0,0.0,0.0,0.0,0.0,0.0,0.0,0.0,0.0,0.0,0.0,0.0,0.0,0.0,0.0,0.0,0.0,0.0,0.0,0.0,0.0,0.0,0.0,0.0,0.0,0.0,0.0,0.0,0.0,0.0,0.0,0.0,0.0,0.0,0.0,0.0,0.0,0.0,0.0,0.0,0.0,0.0,0.0,0.0,0.0,0.0,0.0,0.0,0.0,0.0,0.0,0.0,0.0,0.0,0.0,0.0,0.0,0.0,0.0,0.0,0.0,0.0,0.0,0.0,0.0,0.0,0.0,0.0,0.0,0.0,0.0,0.0,0.0,0.0,0.0,0.0,0.0,0.0,0.0,0.0,0.0,0.0,0.0,0.0,0.0,0.0,0.0,0.0,0.0,0.0,0.0,0.0,0.0,0.0,0.0,0.0,0.0,0.0,0.0,0.0,0.0,0.0,0.0,0.0,0.0,0.0,0.0,0.0,0.0,0.0,0.0,0.0,0.0,0.0,0.0,0.0,0.0,0.0,0.0,0.0,0.0,0.0,0.0,0.0,0.0,0.0,0.0,0.0,0.0,0.0,0.0,0.0,0.0,0.0,0.0,0.0,0.0,0.0,0.0,0.0,0.0,0.0,0.0,0.0,0.0,0.0,0.0,0.0,0.0,0.0,0.0,0.0,0.0,0.0,0.0,0.0,0.0,0.0,0.0,0.0,0.0,0.0,0.0,0.0,2.1924,0.0,0.0,0.0,0.0,0.0,0.0,0.0,0.0,0.0,0.0,0.0,0.0,0.0,0.0,0.0,0.0,0.0,0.0,0.0,0.0,0.0,0.0,0.0,0.0,0.1856,0.1895,0.1895,0.1895,0.0,0.0,0.0,0.0,0.0,0.0,0.0,0.0,0.0,0.2571,0.2793,0.2569,0.2306,0.2015,0.2472,0.291,0.3322,0.0,0.0,0.0,0.0,0.0,0.0,0.0,0.0,0.0,0.0,0.0,0.0,0.0,0.0,0.0,0.0,0.0,0.0,0.0,0.0,0.0,0.0,0.0,0.0,0.0,0.0,0.0,0.0,0.0,0.0,0.0,0.0,0.0,0.0,0.0,0.0,0.0,0.0,0.0,0.0,0.0,0.0,0.0,0.0,0.0,0.0,0.0,0.0,0.0,0.0,0.0,0.0,0.0,0.0,0.0,0.0,0.0,0.0,0.0,0.0,0.0,0.0,0.0,0.0,0.0,0.0,0.0,0.0,0.0,0.0,0.0,2.1872,0.0,0.0,0.0,0.0,0.0,0.0,0.0,0.0,0.0,0.0,0.0,0.0,0.0,0.0,0.0,0.0,0.0,0.0,0.0,0.0,0.0,0.1807,0.1829,0.1933,0.2009,0.2032,0.2012,0.1999,0.1999,0.1871,0.0,0.0,0.0,0.0,0.0,0.2128,0.229,0.2617,0.213,0.1773,0.156,0.1612,0.2053,0.2818,0.3501,0.0,0.0,0.0,0.0,0.0,0.0,0.0,0.0,0.0,0.0,0.0,0.0,0.0,0.0,0.0,0.0,0.0,0.0,0.0,0.0,0.0,0.0,0.0,0.0,0.0,0.0,0.0,0.0,0.0,0.0,0.0,0.0,0.0,0.0,0.0,0.0,0.0,0.0,0.0,0.0,0.0,0.0,0.0,0.0,0.0,0.0,0.0,0.0,0.0,0.0,0.0,0.0,0.0,0.0,0.0,0.0,0.0,0.0,0.0,0.0,0.0,0.0,0.0,2.03,2.0388,2.0388,2.0388,2.1216,2.2652,2.198,2.2692,2.415,2.2118,0.0,0.0,0.0,0.0,0.0,0.0,0.0,0.0,0.0,0.0,0.0,0.0,0.0,0.0,0.0,0.0,0.0,0.0,0.0,0.1843,0.1961,0.1991,0.2049,0.216,0.2066,0.1999,0.1999,0.1871,0.0,0.0,0.0,0.0,0.1852,0.1852,0.1738,0.1508,0.0921,0.0613,0.0586,0.0883,0.1201,0.1579,0.2597,0.3062,0.3144,0.0,0.0,0.0,0.0,0.0,0.0,0.0,0.0,0.0,0.0,0.0,0.0,0.0,0.0,0.0,0.0,0.0,0.0,0.0,0.0,0.0,0.0,0.0,0.0,0.0,0.0,0.0,0.0,0.0,0.0,0.0,0.0,0.0,0.0,0.0,0.0,0.0,0.0,0.0,0.0,0.0,1.4007,1.4007,0.0,0.0,0.0,0.0,0.0,0.0,0.0,0.0,0.0,0.0,0.0,0.0,0.0,1.798,1.8874,2.0476,2.1281,2.1294,2.2219,2.2656,2.2656,2.2656,2.2803,2.3033,2.2911,0.0,2.3571,2.3865,0.0,0.0,0.0,0.0,0.0,0.0,0.0,0.0,0.0,0.0,0.0,0.0,0.0,0.0,0.0,0.0,0.0,0.0,0.0,0.0,0.0,0.1865,0.1828,0.1958,0.1682,0.1576,0.1765,0.1613,0.0,0.0,0.0,0.1797,0.1797,0.1616,0.128,0.0792,0.0646,0.0437,0.0185,0.0331,0.0457,0.0589,0.091,0.1673,0.278,0.3423,0.0,0.0,0.0,0.0,0.0,0.0,0.0,0.0,0.0,0.0,0.0,0.0,0.0,0.0,0.0,0.0,0.0,0.0,0.0,0.0,0.0,0.0,0.0,0.0,0.0,0.0,0.0,0.0,0.0,0.0,0.0,0.0,0.0,0.0,0.0,0.0,0.0,0.0,0.0,1.3215,1.3136,1.431,1.3411,1.2725,0.0,0.0,0.0,0.0,0.0,0.0,0.0,0.0,0.0,1.726,1.764,1.8449,1.9709,2.0783,2.133,2.1354,2.2599,2.3054,2.2778,2.3356,2.3409,2.3108,2.3108,2.3147,2.3238,2.3258,2.3016,2.2542,0.0,0.0,0.0,0.0,2.242,2.2951,0.0,0.0,0.0,0.0,0.0,0.0,0.0,0.0,0.0,0.0,0.0,0.0,0.1879,0.1646,0.153,0.1658,0.132,0.1261,0.1625,0.1432,0.1465,0.1836,0.1818,0.1814,0.185,0.1458,0.097,0.0402,0.0481,0.0349,0.0,0.0,0.0,-0.0017,-0.0214,0.0635,0.2241,0.2551,0.2737,0.2875,0.0,0.0,0.0,0.0,0.0,0.0,0.0,0.0,0.0,0.0,0.0,0.0,0.0,0.0,0.0,0.0,0.0,0.0,0.0,0.0,0.0,0.0,0.0,0.0,0.0,0.0,0.0,0.0,0.0,0.0,0.0,0.0,0.0,0.0,0.0,0.0,0.0,1.2769,1.2632,1.4284,1.3609,1.2993,0.0,0.0,0.0,0.0,0.0,0.0,1.5727,1.5859,1.659,1.8121,1.8495,1.9292,2.0583,2.1119,2.1498,2.1748,2.2806,2.3237,2.3111,2.3864,2.3876,2.3333,2.3333,2.3246,2.309,2.288,2.303,2.3268,2.2286,2.2135,2.2499,2.268,2.3305,2.4288,0.0,0.0,0.0,0.0,0.0,0.0,0.0,0.0,0.0,0.0,0.0,0.1401,0.1603,0.1324,0.1184,0.1315,0.119,0.1299,0.1759,0.148,0.1503,0.1968,0.187,0.186,0.1988,0.1416,0.0875,0.0404,0.0158,0.0017,0.0,0.0,0.0,0.0,-0.0018,0.0428,0.117,0.1062,0.1424,0.214,0.3116,0.0,0.0,0.0,0.0,0.0,0.0,0.0,0.0,0.0,0.0,0.0,0.0,0.0,0.0,0.0,0.0,0.0,0.0,0.0,0.0,0.0,0.0,0.0,0.0,0.0,0.0,0.0,0.0,0.0,0.0,0.0,0.0,0.0,0.0,0.0,0.0,0.0,0.0,1.3584,1.3776,0.0,0.0,0.0,0.0,1.5327,1.5376,1.5766,1.659,1.7061,1.7683,1.8541,1.981,2.0505,2.06,2.1433,2.2304,2.3192,2.3266,2.3788,2.4702,2.4734,2.4465,2.3954,2.3954,2.3625,2.3155,2.3893,2.3843,2.3304,2.3309,2.2928,2.2478,2.313,2.4223,2.5598,0.0,0.0,0.0,0.2005,0.193,0.1856,0.1807,0.1797,0.1797,0.1797,0.1507,0.138,0.158,0.1028,0.0718,0.0892,0.06,0.0538,0.0877,0.099,0.1255,0.1726,0.1861,0.1772,0.1426,0.0915,0.0485,0.0147,0.0052,0.0,0.0,0.0,0.0,-0.0037,-0.0721,-0.0499,0.0426,0.0845,0.1124,0.1369,0.2202,0.2862,0.0,0.0,0.0,0.0,0.0,0.0,0.0,0.0,0.0,0.0,0.0,0.0,0.0,0.0,0.0,0.0,0.0,0.0,0.0,0.0,0.0,0.0,0.0,0.0,0.0,0.0,0.0,0.0,0.0,0.0,0.0,0.0,0.0,0.0,0.0,0.0,0.0,1.5102,1.4976,0.0,1.4554,1.5571,1.6244,1.6244,1.6761,1.7318,1.7896,1.8088,1.844,1.9043,1.9515,1.9757,1.9757,2.0327,2.1104,2.2088,2.3002,2.3776,2.4427,2.5041,2.5017,2.449,2.4155,2.4064,2.4192,2.4137,2.3746,2.3207,2.3636,2.3922,2.4204,2.4792,2.5634,2.661,0.0,0.0,0.0,0.1933,0.186,0.1797,0.1797,0.1797,0.1761,0.1646,0.1355,0.1171,0.1192,0.0638,0.0319,0.0457,0.0179,0.0203,0.0671,0.0873,0.1249,0.1876,0.192,0.1593,0.0885,0.0621,0.0329,0.0,0.0,0.0,0.0,0.0,0.0,-0.0038,-0.0747,-0.0657,0.0039,0.053,0.0671,0.0668,0.1452,0.2168,0.281,0.0,0.0,0.0,0.0,0.0,0.0,0.0,0.0,0.0,0.0,0.0,0.0,0.0,0.0,0.0,0.0,0.0,0.0,0.0,0.0,0.0,0.0,0.0,0.0,0.0,0.0,0.0,0.0,0.0,0.0,0.0,0.0,0.0,0.0,0.0,1.4663,1.566,1.5739,1.5686,1.5525,1.6499,1.7142,1.7142,1.7805,1.8322,1.8588,1.887,1.9181,1.9492,1.9657,1.9735,1.9735,2.0,2.0618,2.1605,2.255,2.3521,2.4493,2.5115,2.5273,2.5055,2.4924,2.4833,2.4791,2.4619,2.4189,2.371,2.4101,2.4569,2.5032,2.541,2.6131,2.7118,0.0,0.0,0.1797,0.1797,0.1797,0.1797,0.1797,0.1797,0.1681,0.134,0.1069,0.0776,0.0436,0.0159,0.0,0.0,0.0,0.0371,0.1221,0.1167,0.1513,0.244,0.2016,0.1337,0.0432,0.059,0.0462,0.0,0.0,0.0,0.0,0.0,0.0,0.0,0.0,0.0,0.0,0.0,0.0,0.0078,0.0913,0.1274,0.1473,0.0,0.0,0.0,0.0,0.0,0.0,0.0,0.0,0.0,0.0,0.0,0.0,0.0,0.0,0.0,0.0,0.0,0.0,0.0,0.0,0.0,0.0,0.0,0.0,0.0,0.0,0.0,0.0,0.0,0.0,0.0,0.0,0.0,1.3603,1.4005,1.452,1.5032,1.5989,1.6372,1.5778,1.7109,1.8018,1.8027,1.8373,1.8617,1.8637,1.9444,1.9903,1.9913,2.0361,2.0605,2.0605,2.0605,2.1078,2.1989,2.1989,2.3036,2.4951,2.4975,2.521,2.564,2.6222,2.587,2.4942,2.5435,2.5335,2.4863,2.4842,2.4813,2.4829,2.4854,2.5724,2.7115,0.1856,0.1828,0.1797,0.1797,0.1797,0.1797,0.1797,0.1797,0.1677,0.1343,0.1062,0.0767,0.0433,0.0156,0.0,0.0,0.0,0.0247,0.0821,0.1012,0.1364,0.1963,0.1352,0.0883,0.0623,0.034,0.0132,0.0,0.0,0.0,0.0,0.0,0.0,0.0,0.0,0.0,0.0,0.0,0.0,0.002,0.0267,0.089,0.1688,0.0,0.0,0.0,0.0,0.0,0.0,0.0,0.0,0.0,0.0,0.0,0.0,0.0,0.0,0.0,0.0,0.0,0.0,0.0,0.0,0.0,0.0,0.0,0.0,0.0,0.0,0.0,0.0,0.0,0.0,0.0,0.0,1.3162,1.3095,1.4172,1.5006,1.5155,1.6016,1.6529,1.6362,1.7351,1.8118,1.8403,1.8539,1.887,1.9513,1.9766,2.0059,2.04,2.0537,2.0605,2.0605,2.0605,2.1078,2.1989,2.1989,2.2664,2.392,2.4259,2.491,2.5749,2.5817,2.6357,2.7138,2.6507,2.6381,2.6527,2.5699,2.5385,2.5435,2.5866,2.6651,2.7541,0.2345,0.2141,0.1968,0.1968,0.1874,0.1797,0.1797,0.1846,0.1703,0.1199,0.1044,0.0792,0.0293,0.009,0.0,0.0,0.0181,0.0453,0.0839,0.1203,0.1374,0.1343,0.0929,0.0601,0.0413,0.0133,0.0,0.0,0.0,0.0,0.0,0.0,0.0,0.0,0.0,0.0,0.0,0.0,0.0,0.0,0.0,0.042,0.1056,0.1111,0.1568,0.2237,0.272,0.3311,0.4006,0.4916,0.0,0.0,0.0,0.0,0.0,0.0,0.0,0.0,0.0,0.0,0.0,0.0,0.0,0.0,0.0,0.0,0.0,0.0,0.0,0.0,0.0,0.0,0.0,0.0,1.2236,1.3098,1.2697,1.4454,1.5799,1.5799,1.6628,1.72,1.72,1.7827,1.8361,1.8588,1.8929,1.9376,1.9864,2.0088,2.0322,2.0595,2.0605,2.0605,2.0605,2.0605,2.0956,2.1659,2.1659,2.2532,2.4142,2.4414,2.5346,2.6773,2.6925,2.7397,2.8059,2.7437,2.7223,0.0,0.0,0.0,0.0,0.0,2.6799,2.7196,0.3164,0.2715,0.2337,0.2304,0.2132,0.1982,0.1953,0.2074,0.1923,0.124,0.1254,0.1062,0.0382,0.0311,0.0311,0.0311,0.0631,0.092,0.1108,0.1576,0.1503,0.0732,0.0646,0.043,0.0,0.0,0.0,0.0,0.0,0.0,0.0,0.0,0.0,0.0,0.0,0.0,0.0,0.0,0.0,0.0,0.0,0.0,0.0058,0.0601,0.0799,0.1002,0.2556,0.3227,0.3616,0.5204,0.0,0.0,0.0,0.0,0.0,0.0,0.0,0.0,0.0,0.0,0.0,0.0,0.0,0.0,0.0,0.0,0.0,0.0,0.0,0.0,0.0,0.0,0.0,0.0,1.2615,1.3255,1.2427,1.4684,1.6349,1.6131,1.7081,1.7758,1.7758,1.8317,1.8695,1.8744,1.9464,1.9913,1.999,0.0,0.0,0.0,0.0,2.0625,2.0674,2.079,2.1046,2.146,2.159,2.2838,2.5024,2.5069,2.6177,2.8057,2.8575,2.8606,2.8285,2.816,2.7745,2.716,2.6688,2.6499,2.6499,2.6499,2.6499,2.6499,0.356,0.3327,0.3181,0.2965,0.3063,0.3099,0.2881,0.3053,0.308,0.2724,0.2697,0.2581,0.2209,0.2175,0.2175,0.2175,0.1909,0.1616,0.1281,0.1804,0.1704,0.0738,0.0329,0.0096,0.0,0.0,0.0,0.0,0.0,0.0,0.0,0.0,0.0,0.0,0.0,0.0,0.0,0.0,0.0,0.0,0.0,0.0,0.002,0.0135,0.0173,0.0326,0.151,0.2455,0.3381,0.4888,0.5746,0.6272,0.6773,0.6792,0.0,0.0,0.0,0.0,0.0,0.0,0.0,0.0,0.0,0.0,0.0,0.0,0.0,0.0,0.0,0.0,0.0,0.0,0.0,1.1375,1.206,1.2519,1.2342,1.4127,1.4888,1.3321,1.4959,1.6228,1.6228,1.8005,1.9297,1.962,1.9805,2.0068,2.0439,2.0556,2.0605,2.0605,2.0605,2.0762,2.1084,2.2012,2.265,2.3077,0.0,0.0,2.5163,2.5498,2.637,2.7639,2.8061,2.8717,2.9402,2.8486,2.7537,2.6637,2.6537,2.6499,2.6499,2.6499,2.6499,2.6499,0.4483,0.405,0.3706,0.3574,0.3523,0.3457,0.3325,0.3499,0.3564,0.3333,0.336,0.3275,0.2932,0.2894,0.2786,0.2471,0.2387,0.2381,0.2451,0.2664,0.2536,0.1919,0.1677,0.1545,0.1545,0.1545,0.1545,0.1545,0.1545,0.1545,0.1545,0.1039,0.1077,0.1527,0.109,0.0858,0.0799,0.0868,0.0893,0.0893,0.0893,0.1229,0.1632,0.1024,0.0804,0.1,0.2582,0.3478,0.4104,0.5366,0.6043,0.6397,0.662,0.6721,0.6807,0.0,0.0,0.0,0.0,0.0,0.0,0.0,0.0,0.0,0.0,0.0,0.0,0.0,0.0,1.068,0.0,0.0,1.1506,1.1799,1.2502,1.3007,1.3007,1.4436,1.5138,1.4171,1.5929,1.7298,1.7533,1.8794,1.9687,1.9874,2.0303,2.0644,2.0889,2.1123,2.125,2.125,2.125,2.1348,2.1542,2.2651,2.3407,2.386,2.4966,2.5893,2.6658,2.6862,2.7577,2.8667,2.8866,2.9095,2.9258,2.816,2.7386,2.6901,2.6901,2.6738,2.6499,2.6499,2.6663,2.6901,0.5301,0.4728,0.4234,0.4171,0.3984,0.383,0.3759,0.3945,0.4033,0.3874,0.3995,0.3941,0.357,0.3593,0.3371,0.2724,0.3038,0.334,0.3528,0.3583,0.3457,0.3086,0.3078,0.3104,0.3104,0.3104,0.3104,0.3104,0.3104,0.3104,0.3085,0.2268,0.2327,0.3067,0.2371,0.1992,0.1896,0.2012,0.2047,0.2047,0.2047,0.2575,0.3249,0.2502,0.2075,0.2133,0.4023,0.4708,0.4863,0.5944,0.63,0.63,0.63,0.6517,0.6835,0.7094,0.7143,0.0,0.0,0.0,0.0,0.0,0.0,0.0,0.0,0.0,1.0202,1.0807,1.0928,1.1059,1.1493,1.1562,1.1733,1.2225,1.2983,1.3532,1.3532,1.4696,1.5675,1.5982,1.7524,1.8726,1.9109,1.9692,2.0078,2.0147,2.0791,2.1229,2.1337,2.1699,2.1905,2.1905,2.1905,2.1944,2.2032,2.3307,2.4185,2.4655,2.5959,2.7237,2.8426,2.8426,2.8937,2.9792,2.9792,2.9402,2.8693,2.7921,2.7562,2.7462,2.7462,2.7185,2.6813,2.6813,2.7072,2.7462,0.5301,0.5216,0.5059,0.4757,0.4928,0.4999,0.47,0.4923,0.5119,0.5101,0.5324,0.5368,0.509,0.5323,0.5184,0.4398,0.4917,0.472,0.3425,0.3994,0.3939,0.297,0.3032,0.3104,0.3104,0.3104,0.3104,0.3104,0.3104,0.3104,0.3104,0.2987,0.2987,0.3104,0.2995,0.294,0.2942,0.2948,0.2951,0.2951,0.2951,0.3026,0.3214,0.4047,0.3768,0.3085,0.4275,0.4708,0.4863,0.5944,0.63,0.63,0.63,0.6334,0.6502,0.7239,0.7288,0.7339,0.845,0.8421,0.0,0.7663,0.8249,0.8979,0.0,0.0,1.1379,1.1984,1.2104,1.2131,1.2191,1.2204,1.2225,1.2291,1.2631,1.2901,1.2901,1.3966,1.5246,1.6608,1.7807,1.854,1.8576,1.9764,2.0674,2.1035,2.1132,2.1386,2.1787,2.1865,2.1905,2.1905,2.1905,2.206,2.2441,2.4503,2.5779,2.627,2.8358,2.9433,2.9624,2.9624,2.9682,2.9792,2.9792,2.9189,2.8217,2.8568,2.8442,2.8009,2.8009,2.7971,2.7921,2.7921,2.7959,2.8009,0.5531,0.5688,0.5777,0.5641,0.5564,0.5431,0.5137,0.5344,0.5531,0.5535,0.563,0.5657,0.5546,0.5346,0.5223,0.5234,0.5218,0.5107,0.4887,0.5039,0.4973,0.4604,0.4718,0.4779,0.4779,0.4906,0.496,0.496,0.496,0.496,0.4941,0.4314,0.4373,0.4946,0.4397,0.4106,0.4031,0.4107,0.4151,0.4151,0.4151,0.4518,0.5119,0.558,0.5415,0.5002,0.5257,0.5624,0.0,0.6008,0.6286,0.6611,0.6376,0.6318,0.65,0.7276,0.7307,0.718,0.7586,0.0,0.0,0.0,0.7911,0.8831,0.9496,1.0553,1.1573,1.2184,1.2305,1.2305,1.2305,1.2305,1.2305,0.0,1.2423,1.2981,1.4343,1.5422,1.6796,1.8797,1.9905,2.0371,2.0104,2.0603,2.1143,2.1582,2.1815,2.203,2.2236,2.2459,2.2596,2.2596,2.2596,2.2684,2.2859,2.5078,2.6311,2.6524,2.8732,2.9792,2.9792,2.9792,2.9792,2.9779,2.944,2.9007,2.8555,2.8467,2.848,2.8568,2.8568,2.8769,2.9013,2.8348,2.8292,2.8568,0.5703,0.597,0.6205,0.6205,0.6064,0.5858,0.559,0.5631,0.5703,0.5703,0.5703,0.5703,0.5703,0.5248,0.5148,0.5654,0.5343,0.5455,0.6257,0.6148,0.6192,0.645,0.6585,0.6654,0.6654,0.6599,0.6572,0.6572,0.6677,0.6718,0.6698,0.6195,0.6237,0.6686,0.6002,0.5487,0.5137,0.5247,0.5286,0.5286,0.5286,0.5759,0.6453,0.6453,0.645,0.6415,0.6082,0.6316,0.6694,0.6193,0.6432,0.6909,0.6614,0.6606,0.6839,0.7503,0.7634,0.7527,0.7312,0.0,0.0,0.7342,0.7981,0.8908,0.9924,1.0925,1.1766,1.2211,1.2305,1.2305,1.2305,1.2305,1.2325,1.243,1.2747,1.3623,1.5404,1.6632,1.8093,2.0095,2.0991,2.1447,2.154,2.1464,2.1571,2.2031,2.2344,2.2547,2.2654,2.2925,2.3091,2.3091,2.3398,2.3572,2.3572,2.5818,2.7012,2.719,2.909,3.0018,3.0018,2.9867,2.9704,2.9541,2.927,2.9057,2.8875,2.8656,2.8812,2.9145,2.9145,2.9428,2.9691,2.8875,2.8806,2.9145,0.5703,0.597,0.6205,0.6205,0.6405,0.6486,0.6209,0.5901,0.5703,0.5703,0.5703,0.5703,0.5703,0.5452,0.5399,0.5676,0.5687,0.6067,0.7005,0.7187,0.7519,0.8105,0.8253,0.8325,0.8325,0.7634,0.7274,0.7274,0.7595,0.7763,0.7783,0.8708,0.8651,0.7744,0.7729,0.7161,0.6248,0.6252,0.6255,0.6255,0.6255,0.6271,0.6306,0.6306,0.654,0.6831,0.6495,0.6398,0.6438,0.6533,0.6805,0.7096,0.7078,0.7252,0.7555,0.8035,0.8454,0.8661,0.8277,0.0,0.7631,0.8208,0.882,0.954,1.0536,1.1557,1.2278,1.2298,1.2305,1.2305,1.2305,1.2305,1.2417,1.2723,1.388,1.4865,1.5262,1.6861,1.8395,1.9496,2.0002,2.0833,0.0,2.2109,2.2041,2.244,2.2488,2.2664,2.3052,2.3091,2.3091,2.3091,2.4168,2.4745,2.4745,2.693,2.8305,2.8845,3.0026,3.0575,3.055,3.0043,2.949,2.8969,2.9528,2.9453,2.8938,2.9515,2.9754,2.9767,2.9767,2.9779,2.9792,2.9754,2.9754,2.9767,0.6064,0.6731,0.7333,0.7333,0.7694,0.7965,0.7868,0.7046,0.6377,0.6246,0.6735,0.0,0.0,0.0,0.0,0.0,0.7195,0.7298,0.78,0.7744,0.7784,0.7989,0.8168,0.8265,0.8265,0.8104,0.803,0.803,0.8141,0.828,0.8472,0.88,0.8902,0.8784,0.8784,0.8613,0.8294,0.8294,0.8294,0.8294,0.8294,0.8294,0.8248,0.7845,0.7668,0.7579,0.0,0.7106,0.7175,0.6544,0.6741,0.7179,0.6867,0.7047,0.7497,0.8146,0.8375,0.8297,0.7861,0.0,0.725,0.7859,0.866,0.9556,1.0565,1.1583,1.2305,1.2305,1.2305,1.2305,1.2305,1.2484,1.2663,1.2789,1.392,1.5256,1.6569,1.8159,1.9783,2.1336,2.1869,0.0,0.0,0.0,0.0,2.2869,2.2908,2.2967,2.3091,2.3822,2.4232,2.4232,2.5326,2.6097,2.6469,2.7899,2.8921,2.9508,3.0243,3.04,3.0068,2.988,2.9691,2.9515,2.9704,2.9679,2.9515,2.9716,2.9792,2.9792,2.9792,2.9792,2.9792,2.9792,2.9792,2.9792,0.6876,0.7699,0.8393,0.8393,0.8686,0.0,0.0,0.0,0.0,0.0,0.0,0.0,0.0,0.0,0.0,0.0,0.0,0.814,0.8631,0.855,0.8568,0.8792,0.8914,0.8983,0.8983,0.8813,0.8798,0.8963,0.8952,0.9097,0.9413,0.9618,0.9648,0.9513,0.9513,0.9377,0.9114,0.9114,0.9114,0.9109,0.901,0.8911,0.8788,0.8275,0.8072,0.0,0.7599,0.7664,0.7799,0.6812,0.6942,0.7467,0.7157,0.7427,0.7903,0.8234,0.8273,0.8064,0.7454,0.7095,0.7125,0.8096,0.8827,0.9655,1.1019,1.1842,1.2305,1.2305,1.2305,1.2305,1.2305,1.2564,1.297,1.343,1.4777,1.6305,1.782,1.9478,2.0974,2.2154,2.2635,2.2925,0.0,0.0,0.0,2.3071,2.3091,2.3091,2.3091,2.38,2.4475,2.5071,2.6185,2.7137,2.7853,2.8954,2.9699,3.0092,3.0437,3.0432,3.008,2.988,2.9792,2.9792,2.9792,2.9792,2.9792,2.9792,2.9792,2.9817,3.0005,3.0093,3.0105,3.0294,3.0369,3.0391,0.8049,0.8785,0.9343,0.0,0.0,0.0,0.0,0.0,0.0,0.0,0.0,0.0,0.0,0.0,0.0,0.0,0.0,0.0,0.9481,0.9541,0.9798,1.0386,1.0399,1.0402,1.0402,0.9721,0.957,1.0017,0.9984,1.0165,1.0565,1.1156,1.094,1.0042,1.0007,0.9594,0.8941,0.8905,0.8887,0.8872,0.8611,0.8354,0.8094,0.7746,0.7871,0.8215,0.7861,0.8014,0.8235,0.7344,0.7419,0.7875,0.7866,0.8259,0.8641,0.8279,0.8155,0.7946,0.7121,0.6922,0.7326,0.8909,0.9334,0.99,1.1848,1.2305,1.2305,1.2305,1.2335,1.236,0.0,0.0,1.3364,1.4587,1.6361,1.7928,1.8884,2.0682,2.1886,0.0,0.0,0.0,0.0,0.0,0.0,2.313,0.0,2.3123,2.3208,2.3254,2.4035,2.5688,2.6827,2.7934,2.8983,3.0095,3.0625,3.06,3.06,3.0588,3.0538,3.003,2.9792,2.9792,2.9792,2.9817,2.9829,2.9829,2.9854,2.993,3.0437,3.0638,3.0701,3.121,3.1427,3.1574,0.0,0.0,0.0,0.0,0.0,0.0,0.0,0.0,0.0,0.0,0.0,0.0,0.0,0.0,0.0,0.0,0.0,0.0,1.0074,1.0142,1.0243,1.0386,1.0397,1.0402,1.0402,1.0216,1.0176,1.0299,1.0628,1.0958,1.1254,1.1707,1.1927,1.1885,1.1392,1.1065,1.0851,1.0356,1.0132,1.0143,1.0074,1.0005,0.9877,0.9337,0.9064,0.8882,0.8396,0.8137,0.7997,0.0,0.0,0.0,0.7338,0.7418,0.7552,0.7641,0.7466,0.7189,0.6967,0.7236,0.7848,0.9006,0.9857,1.0752,1.2015,1.2305,1.2305,1.2305,1.2861,1.3127,0.0,0.0,0.0,1.4857,1.6954,0.0,1.9374,2.0556,0.0,2.2275,0.0,2.3123,2.3584,2.3623,0.0,0.0,2.3298,2.3591,2.4756,2.5328,2.6185,2.7432,2.8563,2.9484,3.0151,3.0843,3.0997,3.06,3.06,3.0387,2.9993,2.9854,2.9792,2.9792,2.9792,3.003,3.0387,3.0387,3.0633,3.1017,3.1135,3.1198,3.121,3.1356,3.1921,3.2791,0.0,0.0,0.0,0.0,0.0,0.0,0.0,0.0,0.0,0.0,0.0,0.0,0.0,0.0,0.0,0.0,0.0,0.0,0.0,1.0335,1.0358,1.0358,1.0361,1.0354,1.0354,1.0354,1.0542,1.0928,1.1005,1.1329,1.1843,1.19,1.2018,1.2184,1.1807,1.1713,1.1775,1.1104,1.0827,0.0,0.0,1.0115,0.9927,0.9487,0.9185,0.8984,0.8684,0.8624,0.0,0.0,0.0,0.7956,0.8478,0.8626,0.8635,0.8563,0.0,0.8182,0.7993,0.8193,0.8708,0.9701,1.0378,1.1038,1.1919,1.2129,1.2129,1.2129,1.2539,0.0,1.2388,0.0,0.0,0.0,0.0,0.0,1.9905,2.0888,2.1699,0.0,2.2586,0.0,2.3445,2.3484,2.3774,0.0,2.3634,2.3704,2.5068,2.5529,2.6571,2.8388,2.908,2.9782,3.0588,3.067,3.0545,3.0256,3.0256,3.0218,3.0156,3.0156,3.0281,3.0495,0.0,3.067,3.0947,3.0947,3.1122,3.1411,3.165,3.175,3.1775,3.206,3.253,3.3253,0.0,0.0,0.0,0.0,0.0,0.0,0.0,0.0,0.0,0.9223,0.9469,0.9715,0.0,0.0,0.0,0.0,0.0,0.0,0.0,0.0,1.0322,1.0381,1.0381,1.041,1.0469,1.0469,1.0841,1.1606,1.129,1.1558,1.2275,1.1989,1.1864,1.185,1.1768,1.1835,1.203,1.1346,1.107,1.0982,1.0164,0.9617,0.9261,0.0,0.8883,0.8791,0.8791,0.9102,0.0,0.0,0.9018,0.8958,1.0081,1.0432,1.0358,0.9938,0.9821,0.9741,0.9396,0.9391,0.9707,1.0578,1.0925,1.1211,1.1776,1.1933,1.1922,1.1841,0.0,1.2294,1.241,1.3258,1.4513,1.6314,0.0,1.8895,2.0458,2.1378,2.1925,2.1963,2.2344,2.2742,2.3162,2.3179,2.3743,2.5086,2.404,2.3907,2.5274,2.5274,2.64,2.8945,2.9018,2.95,3.0487,3.0105,2.9905,2.9905,2.9967,3.0256,3.0701,3.0701,3.0959,3.1406,3.1406,3.1436,3.152,3.152,3.1549,3.1683,3.2139,3.2328,3.2411,3.3072,3.3398,3.367,0.0,0.0,0.0,0.0,0.0,0.0,0.0,0.0,0.0,0.0,1.0565,1.0449,0.0,0.0,0.0,0.0,0.0,0.0,0.0,0.0,0.0,1.0781,1.0801,1.0977,1.137,1.137,1.1449,1.1606,1.1866,1.2074,1.2215,1.2539,1.2691,1.2666,1.2056,1.1817,1.1806,1.1146,1.0847,1.0847,1.0665,1.0241,0.9687,0.9649,0.0,0.0,0.8791,0.0,0.8658,0.9896,1.0023,0.9656,0.9554,0.9529,0.9508,0.9434,0.9404,0.9382,0.9314,0.9914,1.0578,1.0764,1.164,1.2349,1.1973,1.2069,0.0,0.0,1.293,1.3989,1.3256,1.5615,1.766,1.7638,0.0,0.0,0.0,0.0,2.2012,0.0,0.0,0.0,0.0,0.0,0.0,0.0,2.4347,2.5561,2.7983,2.7743,2.8183,2.9592,2.9632,2.9742,2.993,3.0294,3.045,3.0482,3.0909,3.116,3.1248,3.1248,3.1298,3.1406,3.1406,0.0,3.2056,3.2056,3.2353,3.2813,3.2914,3.2952,3.3058,3.4061,3.4945,3.5814,0.0,0.0,0.0,0.0,0.0,0.0,0.0,1.1055,1.123,1.2152,1.1907,1.1643,1.1595,1.1606,1.1606,0.0,0.0,0.0,0.0,0.0,0.0,0.0,0.0,0.0,1.1596,1.1606,0.0,0.0,0.0,1.232,1.2578,0.0,0.0,1.2881,1.2525,1.2369,1.2307,1.125,1.08,1.0737,1.0038,0.9562,0.929,0.0,0.0,0.0,0.0,0.0,0.0,0.9971,1.0497,1.0935,1.088,1.0857,1.0857,1.0857,1.0857,1.0857,1.0857,1.1346,1.1834,1.1834,1.2427,1.2811,1.2074,0.0,0.0,0.0,1.3021,1.3867,1.4213,0.0,0.0,1.7469,0.0,0.0,0.0,0.0,0.0,0.0,0.0,0.0,0.0,0.0,0.0,2.5165,2.6273,2.7132,2.7577,2.8746,2.9655,3.0199,3.0482,3.062,3.062,3.0884,3.1022,3.1022,3.1273,3.1537,3.1813,3.1813,3.1989,3.2286,3.2286,3.2437,3.2667,3.2667,3.2851,3.3102,3.3102,3.3102,3.3154,3.367,3.454,3.5567,0.0,0.0,0.0,0.0,0.0,0.0,0.0,1.1575,1.1768,1.3001,1.3167,1.2864,1.2083,1.2016,1.1977,0.0,0.0,0.0,0.0,0.0,0.0,0.0,0.0,0.0,0.0,0.0,0.0,0.0,0.0,0.0,0.0,0.0,0.0,0.0,0.0,0.0,1.2832,1.1717,1.1162,0.0,0.0,0.9312,0.0,0.0,0.0,0.0,0.0,0.0,0.0,0.0,1.0778,1.1905,1.2051,1.2158,1.2204,1.2204,1.2251,1.2318,1.2397,1.2631,1.2884,1.2884,1.3092,1.3092,1.2337,1.2203,0.0,0.0,1.3272,1.3852,1.515,0.0,1.646,0.0,1.8514,1.9581,0.0,0.0,0.0,0.0,0.0,0.0,0.0,0.0,0.0,2.6254,2.8038,2.8631,2.7596,2.9602,3.0783,3.0783,3.1173,3.1406,3.1406,3.1499,3.1562,3.1574,3.1687,3.1976,3.239,3.239,3.2641,3.3102,3.3102,3.3102,3.3102,3.3102,3.3102,3.3102,3.3102,3.3102,3.3167,3.3747,3.4507,3.5425,0.0,0.0,0.0,0.0,0.0,0.0,0.0,1.2737,1.3018,1.387,1.3997,1.3821,1.3366,1.333,1.3174,0.0,0.0,0.0,0.0,0.0,0.0,0.0,0.0,0.0,0.0,0.0,0.0,0.0,0.0,0.0,0.0,0.0,0.0,0.0,0.0,0.0,0.0,1.2761,0.0,0.0,0.0,0.0,0.0,0.0,0.0,0.0,0.0,0.0,0.0,0.0,0.0,1.1765,1.156,1.169,1.1946,1.1946,0.0,0.0,1.267,1.2952,1.3166,1.3166,1.3367,1.3453,1.3082,0.0,0.0,1.351,1.4463,1.5423,1.5919,0.0,0.0,0.0,0.0,2.0275,0.0,0.0,0.0,0.0,0.0,0.0,0.0,0.0,0.0,2.5667,2.8179,3.0075,3.0897,3.1184,3.1323,3.1323,3.1361,3.1406,3.1406,3.1888,3.2139,3.2118,3.2667,3.2977,3.3027,3.3027,3.3052,3.3102,3.3102,3.3102,0.0,3.3102,3.3102,3.3102,3.3102,3.3102,3.3398,3.5897,3.6885,3.7353,0.0,0.0,0.0,0.0,0.0,0.0,1.2795,1.2656,1.2878,1.3968,1.4091,1.4046,1.387,1.386,1.36,1.2964,0.0,0.0,0.0,0.0,0.0,0.0,0.0,0.0,0.0,0.0,0.0,0.0,0.0,0.0,0.0,0.0,0.0,0.0,0.0,0.0,0.0,0.0,0.0,0.0,0.0,0.0,0.0,0.0,0.0,0.0,0.0,0.0,0.0,0.0,0.0,0.0,1.2102,1.2445,0.0,0.0,1.2551,1.3028,1.3047,1.3247,1.3447,1.3447,1.3993,1.4309,1.3521,0.0,0.0,1.4651,1.5149,1.5861,1.7037,1.7661,1.8186,1.8781,1.9454,0.0,2.0996,0.0,0.0,0.0,0.0,0.0,0.0,0.0,2.7695,2.9442,3.0607,3.1587,3.239,3.2077,3.1888,3.1888,3.2215,3.2424,3.2424,3.265,3.2729,3.2742,3.2989,3.3102,3.3102,3.3102,3.3102,3.3102,3.3102,3.3102,0.0,3.3102,3.3291,3.3571,3.3571,3.3771,3.4272,3.6106,3.7151,3.7956,0.0,0.0,0.0,0.0,0.0,1.2556,1.301,1.2803,1.2954,1.3977,1.4091,1.4091,1.4091,1.3984,1.3685,1.3137,1.2971,0.0,0.0,0.0,0.0,0.0,0.0,0.0,0.0,0.0,1.2905,1.2905,1.302,0.0,0.0,0.0,0.0,0.0,0.0,0.0,0.0,0.0,0.0,0.0,0.0,0.0,0.0,0.0,0.0,0.0,0.0,0.0,0.0,0.0,0.0,0.0,1.2782,1.3233,1.3662,0.0,1.2938,1.3462,1.3254,1.3467,1.3754,1.3754,1.4423,1.4927,0.0,0.0,0.0,1.5918,1.6056,1.6459,1.777,1.8098,1.8322,1.8742,1.9425,2.0117,2.0684,2.1924,0.0,0.0,0.0,2.41,0.0,2.6987,2.9762,3.2268,3.2466,3.2641,3.3077,3.2692,3.2466,3.2466,3.2889,3.3102,3.3102,3.3102,3.3102,3.3102,3.3102,3.3102,3.3102,3.3102,3.319,3.3341,3.3341,3.3442,0.0,3.3558,3.3796,3.4148,3.4148,3.4584,3.5395,3.6751,3.7912,3.9036,0.0,0.0,0.0,0.0,0.0,0.0,1.3425,1.3496,1.3639,1.4055,1.4091,1.4091,1.4091,1.3734,1.3503,1.3483,1.3137,0.0,0.0,0.0,0.0,0.0,0.0,0.0,0.0,0.0,1.2905,1.2905,1.3301,1.3291,1.2903,1.3311,0.0,0.0,0.0,0.0,0.0,0.0,0.0,0.0,0.0,0.0,0.0,0.0,0.0,0.0,0.0,0.0,0.0,0.0,0.0,0.0,0.0,1.3858,1.4599,1.3133,1.3077,1.3462,1.3254,1.3641,1.4082,1.4082,1.4606,1.5145,0.0,0.0,1.6579,1.7236,1.7373,1.751,1.7913,1.8332,1.8752,1.9209,1.9639,2.0205,2.1064,2.1611,0.0,0.0,0.0,2.3751,2.5416,2.8608,3.1273,3.2954,3.309,0.0,3.3102,3.309,3.309,3.309,3.3102,3.3102,3.3102,3.3102,3.3102,3.3102,3.3102,3.3102,3.3102,3.3102,3.3391,3.3884,3.3884,3.4176,0.0,3.4678,3.469,3.469,3.469,3.5423,3.6683,3.8364,3.9745,4.1001,0.0,0.0,0.0,0.0,0.0,0.0,0.0,1.3088,1.3232,1.3639,1.3698,1.3792,1.4062,1.3747,1.361,1.389,1.3291,0.0,0.0,0.0,0.0,0.0,0.0,0.0,0.0,1.2905,1.303,1.3311,1.3447,1.3571,1.3727,1.3571,1.3425,1.3301,0.0,0.0,0.0,0.0,0.0,0.0,0.0,0.0,0.0,0.0,0.0,0.0,0.0,0.0,0.0,0.0,0.0,0.0,0.0,0.0,0.0,1.513,1.518,1.5437,1.5178,1.5249,1.5391,1.5391,1.5898,1.6339,1.6136,0.0,1.7137,1.7363,1.7607,1.7922,1.8342,1.8771,1.9316,2.0058,2.0293,2.0684,0.0,0.0,0.0,2.4122,2.5859,2.7635,0.0,0.0,3.1595,3.2991,3.3102,3.3102,3.3102,3.3102,3.3102,3.3102,3.3102,3.3102,3.3102,3.3102,3.3291,3.3655,3.3655,3.3834,3.4176,3.4176,3.4299,3.4439,3.4439,3.454,3.4703,3.4703,3.5398,3.6467,3.6467,3.7444,3.8966,4.0302,4.1015,4.1534,0.0,0.0,0.0,0.0,0.0,0.0,0.0,1.2905,1.2981,1.3232,1.3271,1.3437,1.3821,1.3513,1.3506,1.4055,1.3503,0.0,0.0,0.0,0.0,0.0,0.0,0.0,1.2905,1.2905,1.3164,1.3737,1.3906,1.4121,1.4361,1.4264,1.4039,1.3717,1.3454,1.3271,0.0,0.0,0.0,0.0,0.0,0.0,1.3706,0.0,0.0,0.0,0.0,0.0,0.0,0.0,0.0,0.0,0.0,0.0,0.0,0.0,1.672,1.6834,1.605,1.5913,1.6,1.6,1.6503,1.6938,1.6679,0.0,1.7627,1.7627,1.7959,1.8295,1.8559,1.9103,1.9697,2.0253,2.0478,2.0899,0.0,0.0,0.0,2.6001,0.0,0.0,0.0,3.1546,3.2261,3.3047,3.3291,3.3404,3.3404,3.3583,3.3696,3.3696,3.3517,3.3504,3.3696,3.3696,3.3872,3.4211,3.4211,3.4377,3.4703,3.4703,3.4816,3.5017,3.5017,3.513,0.0,3.5341,3.5963,3.6998,3.7423,3.8549,4.0051,4.1169,4.1871,4.233,0.0,0.0,0.0,0.0,0.0,0.0,0.0,1.2905,1.2905,1.2905,1.2905,1.304,1.3418,1.3128,1.3213,1.4036,0.0,0.0,0.0,0.0,0.0,0.0,0.0,0.0,1.2942,1.2942,1.335,1.4188,1.4629,1.4877,1.4946,1.5293,1.5005,1.4192,1.4163,1.3906,1.3526,0.0,0.0,0.0,0.0,1.5465,0.0,0.0,0.0,0.0,0.0,0.0,0.0,0.0,0.0,0.0,0.0,0.0,0.0,0.0,0.0,0.0,0.0,1.5953,1.6135,1.6135,1.6618,1.7063,1.7063,1.7559,0.0,1.803,1.8371,1.8666,1.8724,1.9405,1.998,2.002,2.042,2.1026,0.0,2.365,0.0,0.0,2.9692,0.0,3.0711,3.2198,3.3153,3.3153,3.3646,3.396,3.396,3.4427,3.4715,3.4753,3.4264,3.4226,3.469,3.4703,3.4715,3.4753,3.4753,3.4778,3.4816,3.4816,3.5092,0.0,3.5558,3.5893,3.6405,3.6405,3.6499,3.6756,3.7802,3.9006,4.0267,4.1337,4.2391,4.329,0.0,0.0,0.0,0.0,0.0,0.0,0.0,0.0,0.0,0.0,1.2905,1.2944,1.303,1.2964,1.3213,0.0,0.0,0.0,0.0,0.0,0.0,0.0,0.0,0.0,1.335,1.3359,1.3936,1.5093,1.52,1.56,1.6254,1.604,1.5625,1.5083,1.4775,1.4098,1.3216,1.3695,0.0,0.0,1.4067,1.4073,0.0,0.0,0.0,0.0,1.3557,1.4731,0.0,0.0,0.0,0.0,0.0,0.0,0.0,0.0,1.793,1.7925,1.7538,0.0,1.7524,1.7524,1.766,1.7766,0.0,1.7888,1.8088,1.841,1.882,1.9336,2.0009,2.0293,2.0654,2.1309,2.1534,2.2226,2.4012,0.0,0.0,2.8521,3.0878,3.2329,3.1861,3.2955,3.3709,3.3709,3.4223,3.4502,3.4502,3.4628,3.4891,3.5295,3.5182,3.4992,3.4703,3.4703,3.4916,3.5307,3.5307,3.5544,3.5992,3.5992,3.6067,3.6193,3.6193,3.6268,3.6405,3.6405,3.7474,3.9108,3.936,4.0724,4.2543,4.2785,4.3076,4.329,0.0,0.0,0.0,0.0,0.0,0.0,0.0,0.0,0.0,0.0,0.0,1.2905,1.2905,1.2905,0.0,0.0,0.0,0.0,0.0,0.0,0.0,0.0,0.0,1.3088,1.3496,1.3493,1.4228,1.5718,1.5718,1.6162,1.7005,1.6572,1.6133,1.5684,1.5073,1.456,1.4181,1.4354,1.4567,1.4781,1.4491,0.0,0.0,0.0,0.0,0.0,1.4575,1.5533,0.0,1.7015,1.7471,1.7991,0.0,0.0,0.0,0.0,1.7991,1.7991,1.7991,1.8137,1.8283,1.8283,1.8283,1.8283,1.8283,1.8127,1.8059,1.8283,1.8848,1.9442,1.9911,2.0654,2.128,0.0,2.2111,0.0,0.0,0.0,2.9697,3.055,3.2111,3.3178,0.0,3.3922,3.4274,3.4274,3.4766,3.5079,3.5079,3.5341,3.5617,3.5906,3.5918,3.578,3.5479,3.5479,3.5629,3.5918,3.5918,3.6069,3.6405,3.6405,3.6405,3.6405,3.6405,3.6405,3.6405,3.6405,3.7163,3.8405,3.9483,4.0653,4.1879,4.29,4.329,4.329,0.0,0.0,0.0,0.0,0.0,0.0,0.0,0.0,0.0,0.0,0.0,0.0,0.0,0.0,0.0,0.0,0.0,0.0,0.0,0.0,0.0,0.0,1.3232,1.3203,1.3691,1.3701,1.4541,1.629,1.629,1.6711,1.7471,1.7152,1.6703,1.6163,1.5361,1.5151,1.5405,1.5488,1.5971,1.6643,1.5912,0.0,0.0,0.0,0.0,0.0,0.0,0.0,0.0,1.7399,1.7666,1.7991,1.7991,0.0,0.0,0.0,0.0,0.0,1.8069,1.8449,1.8744,1.8559,1.8559,1.8588,1.852,1.8244,1.8027,1.8069,1.874,1.9383,1.9657,2.0859,0.0,0.0,0.0,0.0,2.7028,2.8201,2.9844,3.2615,3.3183,0.0,3.449,3.4728,3.4828,3.4828,3.533,3.5644,3.5644,3.613,3.6405,3.6405,3.6405,3.6405,3.6405,3.6405,3.6405,3.6405,3.6405,3.6405,3.6405,3.6405,3.6405,3.6405,0.0,0.0,3.6405,3.6581,3.6756,3.7163,3.9316,4.0267,4.0653,4.2583,4.329,4.329,0.0,0.0,0.0,0.0,0.0,0.0,0.0,0.0,0.0,0.0,0.0,0.0,0.0,0.0,0.0,0.0,0.0,0.0,0.0,0.0,0.0,1.4594,1.3828,1.3779,1.4584,1.4604,1.5454,1.7194,1.7194,1.7432,1.792,1.8169,1.7701,1.6596,1.6109,1.5708,1.5439,1.5825,1.6275,1.672,1.6983,0.0,0.0,0.0,0.0,0.0,0.0,0.0,0.0,1.7399,1.7666,1.7991,1.7991,0.0,0.0,0.0,0.0,0.0,1.843,1.9085,1.9435,1.8361,1.8361,1.851,1.8166,1.804,1.8098,1.8432,1.8918,1.9755,2.1241,2.1386,2.1649,0.0,0.0,2.7019,0.0,0.0,3.2798,3.2319,0.0,3.4327,3.406,3.4841,3.537,3.537,3.5931,3.6256,3.6256,3.6344,3.6405,3.6405,3.6405,3.6405,3.6405,3.6405,3.6405,3.6405,3.6405,3.6405,3.6405,3.6405,3.6405,3.6405,0.0,3.6405,3.6476,3.7438,3.8424,3.9492,4.0817,4.1926,4.282,4.3155,4.329,4.329,0.0,0.0,0.0,0.0,0.0,0.0,0.0,0.0,0.0,0.0,0.0,0.0,0.0,0.0,0.0,0.0,0.0,0.0,0.0,0.0,1.4406,1.5088,1.4746,1.4703,1.5117,1.5117,1.5977,1.7715,1.7715,1.8057,1.8691,1.8193,1.7393,1.6357,1.5923,1.5596,1.5425,1.5894,1.6334,1.6688,0.0,0.0,0.0,0.0,0.0,0.0,0.0,0.0,0.0,0.0,1.7666,1.7991,1.7991,0.0,0.0,0.0,0.0,0.0,1.8225,1.8732,1.9181,1.9054,1.9717,2.0323,2.0146,2.0107,2.0019,1.9736,2.0029,2.0566,2.1366,0.0,2.31,2.5561,0.0,2.7932,2.9804,3.1503,3.2783,0.0,0.0,3.4864,3.5225,3.5715,3.5994,3.5994,3.6243,3.6405,3.6405,3.6405,3.6405,3.6405,3.6405,3.6405,3.6405,3.6405,3.6405,3.6405,3.6405,3.6405,3.6405,3.6405,3.6405,3.6428,0.0,3.7322,3.7415,3.8581,3.9404,4.0008,4.1148,4.1912,4.2467,4.3076,4.329,4.329,0.0,0.0,0.0,0.0,0.0,0.0,0.0,0.0,0.0,0.0,0.0,0.0,0.0,0.0,0.0,0.0,0.0,0.0,0.0,1.4202,1.4654,1.5527,1.5566,1.5615,1.5698,1.5805,1.6605,1.8137,1.8244,1.8643,1.9276,1.8005,1.6989,1.6216,1.5777,1.5508,1.5435,1.6001,1.6416,1.6682,0.0,0.0,0.0,0.0,0.0,0.0,0.0,0.0,0.0,0.0,0.0,0.0,0.0,0.0,0.0,1.7991,1.7991,1.802,1.8108,1.8449,1.8957,1.9708,2.0527,2.126,2.1788,2.1671,2.1338,2.0967,2.123,2.1624,2.1987,2.3121,0.0,2.8017,2.8125,2.8915,3.2039,3.2396,3.3046,3.4875,3.5102,3.5441,3.6329,3.6405,3.6405,3.6405,3.6405,3.6405,3.6405,3.6405,3.6405,3.6405,3.6405,3.6405,3.6405,3.6405,3.6405,3.6405,3.6405,3.6405,3.6405,3.6405,3.6405,3.6452,3.7322,3.7848,3.8198,3.9404,4.0073,4.0404,4.156,4.2009,4.2091,4.2981,4.329,4.329,0.0,0.0,0.0,0.0,0.0,0.0,0.0,0.0,0.0,0.0,0.0,0.0,0.0,0.0,0.0,0.0,0.0,0.0,0.0,1.4512,1.5131,1.6007,1.6046,1.6226,1.6599,1.7031,1.7686,1.8559,1.8994,1.9247,1.9276,1.8005,1.7139,1.6638,1.6236,1.5806,1.5454,1.6303,1.6668,1.6775,1.7544,0.0,0.0,0.0,0.0,0.0,0.0,0.0,0.0,0.0,0.0,0.0,0.0,0.0,1.7991,1.7991,1.7991,1.8079,1.8469,1.8888,1.9346,1.9786,1.9366,1.9386,2.1426,2.0937,2.0381,2.1553,0.0,0.0,0.0,2.5595,2.6964,2.8521,2.9451,3.083,3.3232,0.0,3.5463,3.6193,3.6292,3.6317,3.6405,3.6405,3.6405,3.6405,3.6405,3.6405,3.6405,3.6405,3.6405,3.6405,3.6405,3.6405,3.6405,3.6405,3.6405,3.6405,3.6405,3.6405,3.6405,3.6405,3.6405,3.6405,3.6499,3.7127,3.8198,3.9404,4.0511,4.1601,4.2725,4.319,4.319,4.327,4.329,4.329,0.0,0.0,0.0,0.0,0.0,0.0,0.0,0.0,0.0,0.0,0.0,0.0,0.0,0.0,0.0,0.0,0.0,0.0,0.0,1.4274,1.4883,1.6046,1.6344,1.6547,1.6697,1.7396,1.832,1.9415,1.96,1.9541,1.9286,1.8242,1.7386,1.6677,1.6275,1.6007,1.5874,1.6459,1.6869,1.7187,1.7773,1.791,0.0,0.0,0.0,0.0,0.0,0.0,0.0,0.0,1.7158,1.7477,1.7881,1.7991,1.7991,1.7991,1.7991,1.803,1.8186,1.8927,1.9775,2.0234,2.0097,2.0332,2.2215,2.2664,2.2762,2.3018,2.3636,0.0,0.0,0.0,2.8731,3.0547,3.1704,3.3078,3.5106,3.5773,3.6143,3.638,3.6405,3.6405,3.6405,3.6405,3.6405,3.6405,3.6405,3.6405,3.6405,3.6405,3.6405,3.6405,3.6405,3.6405,3.6405,3.6405,3.6405,3.6405,3.6405,3.6405,3.6405,3.6405,3.6779,3.7494,3.8257,3.9214,4.0376,4.1539,4.2269,4.2705,4.3135,4.329,4.329,4.329,4.329,4.329,0.0,0.0,0.0,0.0,0.0,0.0,0.0,0.0,0.0,0.0,0.0,0.0,0.0,0.0,0.0,0.0,0.0,0.0,1.4065,1.4241,1.4853,1.6061,1.6357,1.6703,1.7096,1.7825,1.8615,1.9493,1.963,1.9434,1.8867,1.8144,1.7405,1.6687,1.6406,1.6295,1.6324,1.6748,1.7109,1.7438,1.7842,1.7991,0.0,0.0,0.0,0.0,0.0,0.0,0.0,0.0,1.6918,1.7275,1.7832,1.7991,1.7991,1.7991,1.8274,1.8596,1.8596,1.923,2.0088,2.082,2.0899,2.126,2.3093,2.3767,2.4131,2.4531,2.5366,2.6303,2.7172,0.0,0.0,0.0,3.3466,3.451,3.6153,3.6405,3.6405,3.6405,3.6405,3.6405,3.6405,3.6405,3.6405,3.6405,3.6405,3.6405,3.6405,3.6405,3.6405,3.6405,3.6405,3.6405,3.6405,3.6405,3.6405,3.6405,3.6405,3.6405,3.6405,3.6405,3.7023,3.8153,3.8961,4.0196,4.1649,4.2447,4.2981,4.329,4.329,4.329,4.3319,4.3549,4.3624,4.3653,0.0,0.0,0.0,0.0,0.0,0.0,0.0,0.0,1.304,1.3447,1.3483,0.0,0.0,0.0,0.0,0.0,0.0,0.0,1.4062,1.4541,1.5195,1.6046,1.6095,1.6686,1.7942,1.8373,1.8598,1.8617,1.9072,1.8848,1.7981,1.7578,1.7148,1.6697,1.6697,1.6697,1.6726,1.7197,1.7399,1.7438,1.7842,1.8008,1.7969,0.0,0.0,0.0,0.0,0.0,0.0,0.0,1.6707,1.6853,1.7727,1.7991,1.7991,1.8008,1.8879,1.9874,1.9874,1.9893,2.0244,2.1553,2.1582,2.1805,2.3923,2.3811,2.3821,2.5981,2.7278,2.8409,2.9771,0.0,0.0,3.427,3.4552,3.4872,3.6203,3.6405,3.6405,3.6405,3.6405,3.6405,3.6405,3.6405,3.6405,3.6405,3.6405,3.6405,3.6405,3.6405,3.6405,3.6405,3.6405,3.6405,3.6405,3.6405,3.6405,3.6405,3.6405,3.6405,3.6405,3.6405,3.7023,3.8107,3.8107,3.9464,4.1608,4.1622,4.2304,4.3305,4.3324,4.3319,4.3394,4.4057,4.4311,4.4386,0.0,0.0,0.0,0.0,0.0,0.0,0.0,0.0,1.2942,1.3059,1.3079,0.0,0.0,0.0,0.0,0.0,0.0,0.0,1.4091,1.4541,1.4916,1.5161,1.6045,1.6572,1.6656,1.7656,1.8615,1.9513,1.9044,1.8527,1.7981,1.7578,1.6998,1.6304,1.6914,1.6846,1.6304,1.6738,1.7109,1.7409,1.7536,1.7744,1.7981,0.0,0.0,0.0,0.0,0.0,0.0,0.0,0.0,0.0,1.7842,1.7991,1.7932,1.7656,1.7859,1.8135,1.8135,1.9687,2.1318,2.1386,2.2908,2.4524,2.5181,2.5132,2.5664,0.0,2.8711,2.9359,3.1504,0.0,0.0,3.4543,3.5327,3.5942,3.6334,3.6405,3.6405,3.6405,3.6405,3.6405,3.6405,3.6405,3.6405,3.6405,3.6405,3.6405,3.6405,3.6405,3.6405,3.6405,3.6405,3.6405,3.6405,3.6405,3.6405,3.6405,3.6405,3.6405,3.6405,3.6405,3.7497,3.936,3.936,4.0668,4.283,4.3294,4.3699,4.4042,4.4506,4.4721,4.4736,4.493,4.5005,4.5035,0.0,0.0,0.0,0.0,0.0,0.0,1.2905,1.304,1.3147,1.3147,1.3147,1.3291,0.0,0.0,0.0,1.3614,1.3625,1.3625,1.3625,1.4062,1.4544,1.5029,1.5947,1.6582,1.6842,1.7607,1.8389,1.9142,1.8625,1.7971,1.7253,1.735,1.7028,1.6377,1.7422,1.7419,1.6643,1.7051,1.7295,1.7419,1.7568,1.7783,1.8027,0.0,0.0,0.0,0.0,0.0,0.0,0.0,0.0,0.0,1.7881,1.7991,1.804,1.8311,1.8633,1.9102,1.9951,2.1387,2.2783,2.3357,2.4615,2.5893,2.6567,0.0,0.0,0.0,2.9342,3.0131,3.2164,3.3571,0.0,3.5258,3.5954,3.6405,3.6405,3.6405,3.6405,3.6405,3.6405,3.6405,3.6405,3.6405,3.6405,3.6405,3.6405,3.6405,3.6405,3.6405,3.6405,3.6405,3.6405,3.6405,3.6405,3.6405,3.6405,3.6405,3.6405,3.6789,3.746,3.7206,3.8111,3.9978,4.1142,4.2422,4.3758,4.4416,4.4706,4.4751,4.514,4.5289,4.5334,4.5603,4.5708,4.5738,0.0,0.0,0.0,0.0,0.0,0.0,1.2905,1.3242,1.3493,1.3493,1.3532,1.3672,0.0,0.0,0.0,1.2913,1.2893,1.2888,1.2852,1.3366,1.4133,1.5245,1.5793,1.6685,1.7961,1.7867,1.7818,1.7874,1.7874,1.7266,1.613,1.695,1.709,1.6697,1.7935,1.804,1.7301,1.7676,1.7607,1.7321,1.7725,1.7874,1.7922,1.8342,0.0,0.0,0.0,0.0,0.0,0.0,0.0,0.0,1.7874,1.7991,1.8215,1.9337,2.0342,2.1513,2.3454,2.3965,2.4394,2.6396,2.6401,0.0,2.7939,2.8024,2.7937,2.8539,0.0,3.1081,3.2431,3.3712,3.4969,3.6216,3.6405,3.6405,3.6405,3.6405,3.6405,3.6405,3.6405,3.6405,3.6405,3.6405,3.6405,3.6405,3.6405,3.6405,3.6405,3.6405,3.6405,3.6405,3.6405,3.643,3.648,3.648,3.6505,3.6556,3.6556,3.7456,3.9134,3.8496,3.8935,4.0397,4.3177,4.4386,4.4451,4.511,4.5394,4.5394,4.5454,4.5469,4.5559,4.6166,4.639,4.648,0.0,0.0,0.0,0.0,0.0,0.0,1.2905,1.3242,1.3493,1.3493,1.3763,1.3798,1.3358,1.3474,0.0,1.2723,1.2863,1.2846,1.2532,1.3491,1.4182,1.4451,1.54,1.6592,1.7981,1.6932,1.6555,1.697,1.697,1.668,1.6105,1.6621,1.6631,1.6265,1.7233,1.7184,1.6388,1.6476,1.6457,1.6418,1.682,1.697,1.7035,1.749,1.7598,0.0,0.0,0.0,0.0,0.0,0.0,0.0,1.7961,1.7991,1.7981,1.7949,1.9004,2.0284,2.0732,2.2793,2.5014,2.5786,2.6859,2.7842,2.8213,2.8223,2.879,3.0998,3.2555,3.3945,3.5283,3.5763,3.6061,3.6358,3.6405,3.6405,3.6405,3.6405,3.6405,3.6405,3.6405,3.6405,3.6405,3.6405,3.6405,3.6405,3.6405,3.6405,3.6405,3.6405,3.6405,3.6405,3.6405,3.6595,3.7022,3.7034,3.7248,3.7651,3.7651,3.8368,3.9719,3.9137,4.0323,4.2897,4.4429,4.508,4.514,4.5813,4.6076,4.6136,4.6666,4.6875,4.689,4.704,4.7078,4.7115,0.0,0.0,0.0,0.0,0.0,0.0,0.0,0.0,1.4264,1.3831,1.3679,1.3578,1.3455,1.2937,0.0,0.0,1.203,1.2026,1.1614,1.2866,1.3952,1.4692,1.5931,1.6735,1.6985,1.6531,1.6322,1.6416,1.6186,1.5961,1.5777,1.641,1.6596,1.6426,1.7295,1.7197,1.6402,1.6402,1.6275,1.6134,1.6537,1.6697,1.6746,1.7217,1.7399,1.7399,1.7399,0.0,0.0,0.0,0.0,0.0,0.0,0.0,1.8086,1.8477,1.9082,2.0019,2.1875,2.3545,2.5107,2.6592,0.0,2.8291,2.8291,2.9276,3.0618,3.2003,3.2869,3.381,3.5199,3.5966,3.6405,3.6405,3.6405,3.6405,3.6405,3.6405,3.6405,3.6405,3.6405,3.6405,3.6405,3.6405,3.6405,3.6405,3.6405,3.6405,3.6405,3.6405,3.6531,3.6771,3.6783,3.7047,3.7575,3.7575,3.8043,3.8917,3.8917,4.0052,4.2127,4.1519,4.2416,4.4463,4.5382,4.5783,4.5822,4.6495,4.6779,4.6809,4.7174,4.7309,4.7309,4.7309,4.7309,4.7309,0.0,0.0,0.0,0.0,0.0,0.0,0.0,0.0,0.0,1.4003,1.3542,1.3288,1.3302,1.2196,1.1226,0.0,0.0,0.0,1.0708,1.2137,1.3626,1.5027,1.6213,1.6534,1.5913,1.6205,1.627,1.6095,1.5625,1.5435,1.5537,1.6326,1.6658,1.6635,1.7415,1.7337,1.6596,1.6502,1.6274,1.6016,1.6436,1.6541,1.6537,1.7008,1.7191,1.7191,1.7191,1.7497,1.79,1.79,0.0,0.0,0.0,0.0,1.8223,1.9259,1.9661,2.0443,2.3673,2.4707,2.5415,2.7728,2.8291,0.0,2.8601,3.0369,3.2079,3.2568,3.2844,3.3367,3.452,3.5643,3.6405,3.6405,3.6405,3.6405,3.6405,3.6405,3.6405,3.6405,3.6405,3.6405,3.6405,3.6405,3.6405,0.0,0.0,3.6505,3.6394,3.6593,3.6833,3.7198,3.7298,3.7588,3.8153,3.8153,3.8843,4.0211,4.0635,4.2201,4.4722,4.4378,4.4743,4.5678,4.6226,4.6465,4.651,4.7063,4.7309,4.7309,4.7309,4.7309,4.7309,4.7309,4.7309,4.7309,0.0,0.0,0.0,0.0,0.0,0.0,0.0,0.0,0.0,0.0,1.3641,1.3348,1.1491,1.1314,1.0805,0.9542,0.9723,1.0148,1.0672,0.0,0.0,1.4213,1.4445,1.497,1.587,1.5291,1.5337,1.6095,1.5625,1.5605,1.6016,1.6479,1.6508,1.6202,1.668,1.6621,1.6138,1.5752,1.5542,1.5537,1.5992,1.5943,1.562,1.6089,1.6271,1.6271,1.6271,1.6783,1.7487,1.7487,1.7705,0.0,0.0,0.0,1.803,1.8196,1.9809,2.1664,2.2184,2.4448,2.6907,2.8006,2.8291,2.8601,0.0,0.0,3.1224,0.0,3.5042,3.5906,3.6108,3.6287,3.6405,3.6405,3.6405,3.6405,3.6405,3.6405,3.6405,3.6405,3.6405,3.6405,0.0,0.0,0.0,0.0,3.6833,3.6884,3.643,3.7286,3.76,3.7223,3.7651,3.8178,3.8768,3.8781,3.9648,4.1391,4.3607,4.4878,4.5319,4.6351,4.6874,4.704,4.713,4.7174,4.7174,4.7264,4.7309,4.7309,4.7309,4.7309,4.7309,4.7309,4.7309,4.7309,0.0,0.0,0.0,0.0,0.0,0.0,0.0,0.0,0.0,0.0,0.0,1.2036,1.1215,1.0523,0.9875,0.9251,0.9331,0.9819,1.075,1.158,1.2471,1.3439,1.4171,1.4527,1.4505,1.4893,1.5072,1.5042,1.4792,1.5166,1.6095,1.6275,1.6529,1.6813,1.6742,1.6605,1.6377,1.5449,1.5195,1.541,1.5376,1.5972,1.6761,1.5996,1.6445,1.7383,1.6447,1.649,1.7061,1.7321,1.7526,1.7705,1.7939,0.0,0.0,0.0,1.951,2.1481,2.2906,2.5104,2.7209,2.8088,2.8847,2.9592,3.0162,3.1491,3.293,3.4153,3.5475,3.6405,3.6405,3.6405,3.6405,3.6405,3.6405,3.6405,3.6405,3.6405,3.6405,3.6405,0.0,0.0,0.0,0.0,0.0,0.0,3.6896,3.7097,3.6859,3.7575,3.8052,3.8153,3.8391,3.8793,3.9346,3.9359,4.0448,4.2689,4.4526,4.5779,4.6469,4.704,4.7309,4.7309,4.7309,4.7309,4.7309,4.7309,4.7309,4.7309,4.7309,4.7309,4.7309,4.7309,4.7309,4.7309,0.0,0.0,0.0,0.0,0.0,0.0,0.0,0.0,0.0,0.0,0.0,1.1002,1.1004,0.0,0.0,0.0,0.9144,0.9494,1.0412,1.099,1.1633,1.2358,1.3588,1.3992,1.341,1.4417,1.4742,1.4348,1.4305,1.4902,1.6095,1.6197,1.6715,0.0,1.7074,1.6752,0.0,0.0,0.0,1.5405,1.5557,1.6572,1.7922,1.7288,1.804,1.9201,1.7389,1.7002,1.7347,1.7256,1.7301,1.7477,1.7881,1.8445,0.0,0.0,0.0,2.1463,2.3957,2.5593,2.6921,2.8365,2.9471,3.0412,0.0,0.0,3.4508,0.0,3.5691,3.6405,3.6405,3.6405,3.6405,3.6405,3.6405,3.6405,3.6405,3.6405,3.6405,0.0,0.0,0.0,0.0,0.0,0.0,0.0,3.7323,3.7575,3.74,3.8052,3.8567,3.8881,3.9032,3.9308,3.9697,4.0338,4.1789,4.3999,4.5275,4.6381,4.7309,4.7309,4.7309,4.7309,4.7309,4.7309,4.7309,4.7309,4.7309,4.7309,4.7309,4.7309,4.7309,4.7309,4.7309,4.7309,0.0,0.0,0.0,0.0,0.0,0.0,0.0,0.0,0.0,0.0,0.0,1.0996,1.0243,0.9869,0.9546,0.9224,0.8971,0.8951,0.9266,1.0548,1.1124,1.0735,1.188,0.0,1.3386,1.3584,1.4048,1.4772,1.4775,1.5219,1.6105,1.6479,1.7126,1.7942,1.7539,1.6901,1.6095,0.0,0.0,1.5542,1.7187,1.7893,1.8254,2.0644,2.1641,2.1435,1.9259,1.8762,1.8916,1.7288,1.7025,1.7477,1.7881,1.8025,1.8219,0.0,0.0,0.0,2.4632,2.5312,2.6091,2.9089,2.9869,3.0664,0.0,0.0,3.4751,3.6037,3.6358,3.6405,3.6405,3.6405,3.6405,3.6405,3.6405,3.6405,3.6405,0.0,0.0,0.0,0.0,0.0,0.0,0.0,0.0,0.0,3.8479,3.8567,3.799,3.9007,3.9383,3.8919,3.9383,3.9659,3.9697,4.2095,4.3975,4.532,4.6594,4.7229,4.7309,4.7309,4.7309,4.7309,4.7309,4.7309,4.7309,4.7309,4.7309,4.7309,4.7309,4.7309,4.7309,4.7309,4.7309,4.7309,0.0,0.0,0.0,0.0,0.0,0.0,0.0,0.0,0.0,0.0,0.0,0.0,0.0,0.9558,0.9324,0.921,0.8958,0.8838,0.8945,0.9568,1.0199,1.0762,1.1904,1.2718,1.3129,1.3645,1.3955,1.4034,1.3986,1.4541,1.5644,1.5796,1.6332,1.7155,1.7015,1.6771,1.641,1.543,0.0,0.0,0.0,1.882,2.0127,2.0811,0.0,0.0,0.0,0.0,0.0,1.8879,1.8154,1.7566,1.8538,1.9226,1.9944,0.0,0.0,2.2301,2.4208,2.5006,2.5692,2.7311,2.9466,3.1472,3.2546,3.4302,3.5823,3.631,3.6405,3.6405,3.6405,3.6405,3.6405,3.6405,3.6405,3.6405,0.0,0.0,0.0,0.0,0.0,0.0,0.0,0.0,0.0,0.0,0.0,3.8806,3.8592,3.9283,3.9597,3.9434,3.9584,4.0096,4.0907,4.2641,4.4139,4.5403,4.5846,4.6513,4.7309,4.7309,4.7309,4.7309,4.7309,4.7309,4.7309,4.7309,4.7309,4.7309,4.7309,4.7309,4.7309,4.7309,4.7309,4.7369,0.0,0.0,0.0,0.0,0.0,0.0,0.0,0.0,0.0,0.9351,0.0,0.0,0.0,0.0,0.9284,0.9084,0.8905,0.8791,0.8791,0.918,0.9852,1.0855,1.1837,1.268,1.3386,1.3757,1.3884,1.3774,1.3719,1.4215,1.5205,1.5342,1.5874,1.6697,1.6557,1.6576,0.0,0.0,0.0,1.5625,0.0,0.0,2.0479,0.0,0.0,0.0,0.0,0.0,0.0,0.0,0.0,0.0,0.0,0.0,0.0,0.0,0.0,0.0,2.3855,2.455,2.5259,0.0,2.8981,3.1011,3.2492,0.0,3.5715,3.6268,3.6405,3.6405,3.6405,3.6405,3.6405,3.6405,3.6545,0.0,0.0,0.0,0.0,0.0,0.0,0.0,0.0,0.0,0.0,0.0,0.0,0.0,3.917,3.9522,3.9916,4.0313,4.0338,4.1144,4.2858,4.3717,4.478,4.604,4.604,4.6469,4.7309,4.7309,4.7309,4.7309,4.7309,4.7309,4.7309,4.7309,4.7309,4.7309,4.7309,4.7444,4.7638,4.7638,4.7773,4.8027,0.0,0.0,0.0,0.0,0.0,0.0,0.0,0.0,0.9701,0.9701,0.0,0.0,0.0,0.0,0.0,0.8871,0.8811,0.8804,0.8804,0.9426,1.0132,1.0876,1.1567,1.2655,1.4171,1.3834,1.3798,1.4124,1.4124,1.4352,1.4809,1.5215,1.5854,1.6648,1.6265,1.6304,1.6619,0.0,1.5825,1.5757,0.0,2.0177,1.927,0.0,0.0,0.0,2.3303,2.299,0.0,0.0,0.0,0.0,0.0,0.0,0.0,0.0,0.0,0.0,0.0,0.0,0.0,0.0,0.0,0.0,3.3524,0.0,3.4311,3.5979,3.6355,3.6367,3.6405,3.6394,3.643,3.643,0.0,0.0,0.0,0.0,0.0,0.0,0.0,0.0,0.0,0.0,0.0,0.0,3.9697,3.9697,3.9697,3.9697,4.0287,4.1555,4.1654,4.2858,4.538,4.5448,4.6084,4.7309,4.7309,4.7309,4.7309,4.7309,4.7309,4.7309,4.7324,4.7339,4.7339,4.7339,4.7339,4.7339,4.7354,4.7758,4.8334,4.8334,4.8738,4.9292,0.0,0.0,0.0,0.0,0.0,1.0337,1.0022,0.9834,0.9701,0.0,0.0,0.0,0.9826,0.9747,0.9532,0.9124,0.9091,0.9004,0.8811,0.9426,1.0132,1.0876,1.2106,1.3224,1.418,1.4382,1.4508,1.4609,1.4609,1.4668,1.4809,1.5215,1.5532,1.5766,1.6007,1.5821,1.5332,1.5518,0.0,0.0,1.9074,2.0723,0.0,0.0,0.0,0.0,0.0,2.5059,0.0,0.0,2.2742,2.0166,0.0,0.0,0.0,0.0,0.0,0.0,2.316,0.0,0.0,0.0,0.0,0.0,0.0,0.0,0.0,3.4346,3.4901,3.5416,3.6243,3.6708,3.6984,0.0,0.0,0.0,0.0,0.0,0.0,0.0,0.0,0.0,0.0,0.0,0.0,0.0,3.9697,3.9697,3.9697,3.9697,4.0287,4.1555,4.2485,4.3764,4.538,4.6299,4.6953,4.7309,4.7309,4.7309,4.7309,4.7309,4.7309,4.7339,4.7803,4.8012,4.8012,4.8012,4.8012,4.8057,4.8558,4.8858,4.9022,4.9022,4.9127,4.9352,0.0,0.0,1.0609,1.0609,1.053,1.0441,1.0336,1.0276,1.0243,0.0,0.0,0.0,1.0095,0.9955,0.9746,0.9438,0.9284,0.9261,0.9414,0.94,1.004,1.1499,1.2278,1.3237,1.4427,1.484,1.4975,1.4799,1.4799,1.4799,1.4809,1.5039,1.5244,1.5405,1.5698,1.5532,1.5068,0.0,0.0,0.0,1.9336,0.0,0.0,2.4505,2.5864,0.0,0.0,0.0,2.4635,2.6235,2.4486,0.0,0.0,0.0,0.0,0.0,0.0,0.0,0.0,0.0,0.0,0.0,0.0,0.0,0.0,0.0,0.0,0.0,3.5177,3.5667,3.657,3.6997,3.7286,0.0,0.0,0.0,0.0,0.0,0.0,0.0,0.0,0.0,0.0,3.9534,3.9697,3.9697,3.9697,3.9697,3.9697,4.0198,4.1082,4.2363,4.3622,4.4895,4.6188,4.6931,4.7309,4.7309,4.7309,4.7459,4.7713,4.7713,4.7863,4.8169,4.8558,4.8723,4.8738,4.8985,4.894,4.8753,4.9142,4.9456,4.9673,4.9673,4.9853,5.0137,0.0,0.0,1.06,1.0633,1.0838,1.0932,1.072,1.0891,1.1042,0.0,1.1042,1.0972,1.076,1.0423,1.0094,0.9821,0.9491,0.9549,1.0145,0.9481,1.0089,1.2355,1.2369,1.3128,1.483,1.5215,1.521,1.4868,1.4868,1.4868,1.4868,1.4868,1.5029,1.5327,1.5327,1.5298,1.5259,1.5308,0.0,1.5532,1.9823,2.0771,0.0,0.0,2.5219,0.0,2.5933,2.5781,2.5006,2.7148,2.6642,0.0,0.0,0.0,0.0,0.0,2.2096,0.0,0.0,0.0,0.0,0.0,0.0,0.0,0.0,0.0,0.0,0.0,3.5602,3.5854,3.6508,3.6708,0.0,0.0,0.0,0.0,0.0,0.0,0.0,0.0,0.0,0.0,3.9697,3.9697,3.9697,3.9697,3.9697,3.9762,3.9916,4.0982,4.2241,4.3669,4.4803,4.6018,4.7287,4.7309,4.7309,4.7309,4.7309,4.7653,4.8304,4.8304,4.8663,4.9292,4.9366,4.9396,4.9456,5.0054,4.9934,4.9411,4.9471,4.9838,5.03,5.03,5.0697,5.1191,1.0172,1.041,1.0667,1.0885,1.0972,1.1056,1.1212,1.1286,1.1326,1.1326,1.1326,1.1392,1.1625,1.1152,1.0724,1.0445,1.012,0.9783,0.9432,1.028,1.1218,1.2134,1.3159,1.4204,1.5259,1.5357,1.5357,1.5278,1.5278,1.5278,1.5278,1.5278,1.5156,0.0,1.4916,1.4707,1.4377,0.0,0.0,1.749,1.8742,0.0,2.2139,2.4466,2.6167,2.7344,2.7773,2.7314,2.6367,0.0,2.5792,2.6128,0.0,0.0,0.0,0.0,0.0,0.0,0.0,0.0,0.0,0.0,0.0,0.0,0.0,0.0,0.0,0.0,3.0746,3.1532,3.2918,3.3558,0.0,0.0,0.0,0.0,0.0,0.0,0.0,0.0,0.0,0.0,3.9697,3.9697,3.9697,3.9697,3.9697,4.0147,4.1169,4.1455,4.2641,4.4978,4.5275,4.6018,4.7287,4.7309,4.7309,4.7309,4.7309,4.7653,4.8304,4.8304,4.8663,4.9322,4.9823,5.0024,5.0084,5.0727,5.0622,5.0084,5.0607,5.0892,5.0996,5.0996,5.1086,5.1191,1.0356,1.0486,1.068,1.0942,1.1109,1.1309,1.1603,1.165,1.1697,1.1826,1.1846,1.1804,1.1663,0.0,0.0,0.0,0.0,1.0106,1.0156,1.0362,1.0928,1.1861,1.2823,1.3703,1.449,1.509,1.5396,1.5396,1.5396,1.5396,1.5396,1.5396,1.5854,0.0,1.5576,1.5561,0.0,0.0,1.5723,1.6908,1.9288,0.0,2.4017,2.5962,2.7344,2.8291,2.8291,2.8018,2.7451,2.6152,2.6178,0.0,0.0,2.6104,2.6676,0.0,2.4933,2.5615,0.0,0.0,0.0,2.3549,0.0,0.0,0.0,0.0,0.0,0.0,0.0,0.0,0.0,0.0,0.0,0.0,0.0,0.0,0.0,0.0,0.0,0.0,0.0,0.0,3.9697,3.9697,3.9697,3.9697,3.9697,4.0262,4.153,4.2193,4.3432,4.5358,4.6018,4.666,4.7287,4.7309,4.7309,4.7309,4.7638,4.8154,4.8813,4.9105,4.9613,5.0257,5.0563,5.0712,5.0727,5.1056,5.0996,5.0742,5.1071,5.1191,5.1191,5.1191,5.1191,5.1191,1.0609,1.0609,1.068,1.0942,1.1219,1.1506,1.1841,1.1935,1.2056,1.2271,1.2405,1.2318,0.0,0.0,0.0,0.0,0.0,0.0,1.1305,1.0698,1.083,1.1992,1.2526,1.3196,1.4037,1.4938,1.5396,1.5396,1.5396,1.5396,1.5396,1.5396,1.6332,1.7915,0.0,0.0,0.0,0.0,0.0,1.6963,0.0,2.2687,2.4124,2.6514,2.7555,2.7725,2.8144,2.8291,2.8171,2.7418,0.0,2.6866,2.7568,2.7973,0.0,0.0,0.0,0.0,0.0,0.0,0.0,0.0,0.0,2.5021,0.0,0.0,0.0,0.0,0.0,0.0,0.0,0.0,0.0,0.0,0.0,0.0,0.0,0.0,0.0,0.0,0.0,0.0,0.0,3.9207,3.9346,3.9672,3.9396,4.0019,4.1861,4.293,4.421,4.5711,4.6763,4.7309,4.7309,4.7309,4.7309,4.7309,4.7967,4.8648,4.9307,4.992,5.0578,5.1191,5.1191,5.1191,5.1191,5.1191,5.1191,5.1191,5.1191,5.1191,5.1191,5.1191,5.1191,5.1191,1.0609,1.0609,1.068,1.0942,1.1219,1.1506,1.1841,1.2109,1.2265,1.2298,1.2772,0.0,0.0,0.0,0.0,0.0,0.0,0.0,1.2227,0.0,1.2754,1.3278,1.3422,1.419,1.5694,1.5513,1.5396,1.5396,1.5396,1.5396,1.5396,1.5396,1.5532,1.5815,1.7122,0.0,0.0,0.0,1.9043,0.0,2.171,2.0908,0.0,2.3069,2.4799,2.5708,2.7607,2.8291,2.8255,0.0,2.7686,2.7502,0.0,2.8654,0.0,0.0,0.0,0.0,0.0,0.0,0.0,0.0,2.546,0.0,0.0,0.0,0.0,0.0,0.0,0.0,0.0,0.0,0.0,0.0,0.0,0.0,0.0,0.0,0.0,0.0,0.0,0.0,0.0,3.7487,3.8115,3.9584,3.8316,3.9178,4.3088,4.3432,4.4595,4.7019,4.7207,4.7309,4.7309,4.7309,4.7309,4.7309,4.7967,4.8648,4.9307,4.992,5.0578,5.1191,5.1191,5.1191,5.1191,5.1191,5.1191,5.1191,5.1191,5.1191,5.1191,5.1191,5.1191,5.1191,1.0609,1.0609,1.068,1.0942,1.1219,1.1506,1.1841,1.2301,1.2596,1.2596,1.2805,0.0,0.0,0.0,0.0,0.0,0.0,1.3307,0.0,0.0,1.3244,1.2315,1.3833,1.4643,1.4487,1.5365,1.5664,1.5396,1.5396,1.5396,1.5396,1.5396,1.6059,1.7298,1.803,0.0,1.917,0.0,0.0,0.0,0.0,0.0,0.0,2.4424,2.6656,2.706,2.7995,2.8291,2.8283,0.0,2.785,0.0,0.0,0.0,0.0,0.0,0.0,0.0,0.0,0.0,0.0,0.0,0.0,0.0,0.0,0.0,2.6499,0.0,0.0,0.0,0.0,0.0,0.0,0.0,0.0,0.0,0.0,0.0,0.0,0.0,0.0,0.0,0.0,0.0,0.0,0.0,0.0,4.0807,4.335,4.421,4.5426,4.7229,4.7309,4.7309,4.7309,4.7309,4.7504,4.7878,4.8558,4.9194,4.9853,5.0488,5.0936,5.1191,5.1191,5.1191,5.1191,5.1191,5.1191,5.1191,5.1191,5.1191,5.1191,5.1191,5.1191,5.1191,1.0206,1.0444,1.068,1.0942,1.1219,1.1539,1.1948,1.2388,1.269,0.0,0.0,0.0,1.3367,1.3394,0.0,0.0,0.0,1.4335,0.0,0.0,1.3984,1.3026,1.436,0.0,0.0,1.5576,1.5923,1.5586,1.5586,1.5586,1.5586,1.5586,1.6479,1.81,0.0,1.9679,2.1152,0.0,0.0,2.044,2.1074,2.1309,2.1708,2.584,2.78,2.8291,2.8291,2.8291,2.8339,2.8637,2.8453,0.0,3.1223,0.0,0.0,0.0,0.0,0.0,2.6611,0.0,0.0,0.0,0.0,0.0,0.0,0.0,0.0,0.0,0.0,0.0,0.0,0.0,0.0,0.0,0.0,0.0,0.0,0.0,0.0,0.0,0.0,0.0,0.0,0.0,0.0,0.0,0.0,0.0,4.3901,4.4895,4.5973,4.7251,4.7309,4.7309,4.7309,4.7309,4.7638,4.8319,4.8977,4.9613,5.0211,5.0892,5.1191,5.1191,5.1191,5.1191,5.1191,5.1191,5.1191,5.1191,5.1191,5.1191,5.1191,5.1191,5.1191,5.1191,0.9172,1.0015,1.068,1.0942,1.1219,1.1599,1.2198,1.2305,0.0,0.0,0.0,0.0,0.0,0.0,0.0,0.0,0.0,1.7489,1.6633,0.0,1.5581,0.0,0.0,1.5186,0.0,1.6567,1.6085,1.609,1.609,1.609,1.609,1.609,1.6324,0.0,1.8525,1.9325,1.953,2.1553,2.3369,2.4887,2.4916,2.6167,2.7783,0.0,2.65,2.8291,2.8291,0.0,0.0,2.9488,2.984,0.0,0.0,0.0,0.0,0.0,0.0,0.0,0.0,0.0,0.0,2.6138,0.0,0.0,0.0,0.0,2.7273,0.0,0.0,0.0,0.0,0.0,0.0,0.0,0.0,0.0,0.0,0.0,0.0,0.0,0.0,0.0,0.0,0.0,0.0,0.0,0.0,0.0,4.5117,4.538,4.5973,4.7251,4.7309,4.7309,4.7309,4.7309,4.7638,4.8319,4.8977,4.9613,5.0211,5.0892,5.1191,5.1191,5.1191,5.1191,5.1191,5.1191,5.1191,5.1191,5.1191,5.1191,5.1191,5.1191,5.1191,5.1191,0.9236,0.9993,1.0626,1.072,1.1102,1.1673,1.2497,1.2791,0.0,0.0,0.0,0.0,0.0,0.0,1.6293,0.0,0.0,1.7528,1.7053,1.7368,0.0,0.0,0.0,1.7406,0.0,0.0,1.7233,1.6966,1.665,1.6504,1.6504,1.6504,1.6576,0.0,0.0,2.0342,0.0,0.0,0.0,0.0,0.0,2.6258,2.791,0.0,0.0,2.8424,2.9313,2.9634,0.0,3.1063,3.1374,3.1471,3.2926,3.2874,3.234,3.2893,3.2918,0.0,0.0,0.0,3.2474,2.9202,0.0,0.0,0.0,0.0,0.0,0.0,0.0,0.0,0.0,0.0,0.0,0.0,0.0,0.0,0.0,0.0,0.0,0.0,0.0,0.0,0.0,0.0,0.0,0.0,0.0,0.0,0.0,4.6211,4.6851,4.7287,4.7309,4.7309,4.7309,4.7743,4.8304,4.8962,4.9598,5.0234,5.0877,5.1101,5.1191,5.1191,5.1191,5.1191,5.1191,5.1191,5.1191,5.1191,5.1191,5.1191,5.1191,5.1191,5.1191,5.1191,0.8865,0.9647,1.0403,1.0816,1.1453,1.2102,0.0,0.0,0.0,0.0,1.4587,0.0,1.6008,0.0,1.6613,0.0,1.7829,1.7869,1.7361,1.8038,0.0,1.6638,1.786,0.0,0.0,0.0,0.0,1.7515,1.7273,1.7093,1.6947,1.6947,1.7025,0.0,0.0,2.0381,2.2752,0.0,2.4613,0.0,0.0,2.7151,0.0,0.0,2.9266,2.8978,0.0,3.0602,3.1224,3.2593,3.2925,3.3089,3.4848,3.4509,3.3709,3.4989,3.4839,3.4126,3.3536,3.4405,0.0,3.1474,3.1587,0.0,2.8404,0.0,0.0,0.0,0.0,0.0,0.0,0.0,0.0,0.0,0.0,0.0,0.0,0.0,0.0,0.0,0.0,0.0,0.0,0.0,0.0,0.0,0.0,0.0,0.0,0.0,4.7309,4.7309,4.7309,4.7309,4.7309,4.7952,4.8648,4.9307,4.9905,5.0563,5.1191,5.1191,5.1191,5.1191,5.1191,5.1191,5.1191,5.1191,5.1191,5.1191,5.1191,5.1191,5.1191,5.1191,5.1191,5.1191,0.812,0.9103,1.0179,1.1262,1.2169,0.0,0.0,0.0,1.3853,0.0,1.4899,1.5534,1.6667,1.7086,1.7495,1.8016,1.8583,0.0,1.7729,1.7708,0.0,0.0,1.7665,1.794,1.902,0.0,0.0,0.0,1.7944,1.7842,1.7468,1.7438,1.7627,0.0,1.7617,0.0,2.313,2.3225,2.5239,2.8389,2.8789,2.8961,2.9213,3.1081,3.1126,3.0214,3.0488,3.1392,3.2711,3.4101,3.4579,3.4895,3.6686,3.7248,3.7349,3.7852,3.8027,3.7713,3.6108,3.5683,3.5169,3.2959,0.0,0.0,0.0,0.0,3.1512,0.0,0.0,0.0,0.0,0.0,0.0,0.0,0.0,0.0,0.0,0.0,0.0,0.0,0.0,0.0,0.0,0.0,0.0,0.0,0.0,0.0,0.0,0.0,4.7174,4.7309,4.7309,4.7309,4.7309,4.7997,4.8678,4.9307,4.9934,5.0592,5.1191,5.1191,5.1191,5.1191,5.1191,5.1191,5.1191,5.1191,5.1191,5.1191,5.1191,5.1191,5.1191,5.1191,5.1191,5.1191,0.9175,1.0567,1.1714,0.0,1.2102,1.241,0.0,0.0,0.0,0.0,1.6297,1.6986,1.7929,1.829,1.8531,1.8656,1.9038,0.0,0.0,0.0,0.0,1.9048,1.9206,1.9367,1.9512,1.9343,0.0,1.9102,0.0,0.0,1.8293,1.7998,1.791,0.0,0.0,0.0,2.3643,2.3965,2.6084,2.9276,2.9383,2.994,0.0,0.0,3.2734,3.4083,3.4422,3.4769,3.5264,3.6627,3.7072,3.7146,3.764,3.7789,3.7826,3.7965,3.8316,3.858,3.8128,3.8316,3.809,3.5879,3.5452,3.4977,0.0,0.0,0.0,0.0,0.0,0.0,0.0,0.0,0.0,0.0,0.0,0.0,0.0,0.0,0.0,0.0,0.0,0.0,0.0,0.0,0.0,0.0,0.0,0.0,0.0,0.0,0.0,4.7249,4.7309,4.7309,4.7309,4.8468,4.9127,4.9307,5.0421,5.1026,5.1191,5.1191,5.1191,5.1191,5.1191,5.1191,5.1191,5.1191,5.1191,5.1191,5.1191,5.1191,5.1191,5.1191,5.1191,5.1191,0.944,0.0,0.0,1.3039,0.0,0.0,1.4009,0.0,0.0,1.631,1.6892,0.0,1.8196,1.8636,1.895,1.9105,1.9301,0.0,0.0,0.0,0.0,1.8812,1.9389,1.9684,1.9583,1.9618,0.0,1.9474,0.0,0.0,1.8588,1.8196,1.7991,0.0,0.0,2.0099,0.0,2.4713,2.668,2.8535,2.9463,0.0,0.0,3.2944,3.4602,3.648,3.731,3.7309,3.7007,3.7742,3.8002,3.8052,3.8304,3.8379,3.8429,3.8668,3.8969,3.9258,3.9258,3.9484,3.9396,3.8153,3.7826,3.7324,3.5351,3.5138,3.5328,0.0,0.0,0.0,0.0,0.0,0.0,0.0,0.0,0.0,0.0,0.0,0.0,0.0,0.0,0.0,0.0,0.0,0.0,0.0,0.0,0.0,0.0,0.0,0.0,4.6794,4.6854,4.7138,4.7728,4.8498,4.9142,4.9703,5.0735,5.1191,5.1191,5.1191,5.1191,5.1191,5.1191,5.1191,5.1191,5.1191,5.1191,5.1191,5.1191,5.1191,5.1191,5.1191,5.1191,5.1191,0.0,0.0,0.0,0.0,0.0,0.0,0.0,1.5107,0.0,1.669,0.0,1.7615,1.813,1.8664,1.9085,1.9374,0.0,1.9038,1.8243,1.8945,1.9053,1.8223,1.8958,1.9395,1.9395,1.9785,0.0,0.0,0.0,0.0,1.8676,1.8215,1.7991,0.0,0.0,0.0,0.0,2.5571,2.724,2.7659,2.9541,3.1295,3.2972,3.4665,3.6325,3.7967,3.9245,3.9057,3.8228,3.8228,3.8228,3.8316,3.8843,3.9007,3.9107,3.9546,3.9697,3.9697,3.9697,3.9697,3.9697,3.9697,3.9697,3.9308,3.7864,3.7537,3.7537,3.7537,3.637,3.6146,0.0,0.0,0.0,0.0,0.0,0.0,0.0,0.0,0.0,0.0,0.0,0.0,0.0,0.0,0.0,0.0,0.0,0.0,0.0,0.0,0.0,4.6375,4.651,0.0,4.8012,0.0,4.903,4.9964,5.0802,5.1191,5.1191,5.1191,5.1191,5.1191,5.1191,5.1191,5.1191,5.1191,5.1191,5.1191,5.1191,5.1191,5.1191,5.1191,5.1191,5.1191,0.0,0.0,0.0,0.0,0.0,1.5602,1.6653,1.5689,1.5535,1.7503,1.8249,1.8744,1.912,1.9254,1.9341,1.9395,1.9395,0.0,0.0,0.0,0.0,1.9174,1.9314,1.9395,1.9395,2.078,2.099,0.0,0.0,0.0,1.916,1.8379,1.7991,0.0,0.0,0.0,2.5035,2.6807,0.0,3.0244,3.0625,3.2398,3.4836,3.5172,3.6969,3.9362,3.9607,3.9572,3.9396,3.9396,3.9396,3.9421,3.9521,3.9546,3.9572,3.9672,3.9697,3.9697,3.9697,3.9697,3.9697,3.9697,3.9697,3.9622,3.932,3.9245,3.9245,3.9245,3.9019,3.8454,3.7211,0.0,0.0,0.0,0.0,0.0,0.0,0.0,0.0,0.0,0.0,0.0,0.0,0.0,0.0,0.0,0.0,0.0,0.0,0.0,0.0,0.0,4.7653,0.0,0.0,0.0,4.9441,4.8656,5.0391,5.1191,5.1191,5.1191,5.1191,5.1191,5.1191,5.1191,5.1191,5.1191,5.1191,5.1191,5.1191,5.1191,5.1191,5.1191,5.1191,5.1191,0.0,0.0,0.0,0.0,0.0,0.0,0.0,1.6665,0.0,1.8051,1.8496,1.8758,1.8926,1.9214,1.9395,1.9395,1.9395,1.9395,1.9395,1.9395,1.9395,1.9395,1.9395,0.0,2.0508,2.1324,2.1558,2.1138,0.0,0.0,1.9296,1.8615,1.8313,1.8391,0.0,2.2119,0.0,0.0,0.0,2.9619,3.0527,3.2683,3.5288,3.5288,3.713,3.9697,3.9697,3.9697,3.9697,3.9697,3.9697,3.9697,3.9697,3.9697,3.9697,3.9697,3.9697,3.9697,3.9697,3.9697,3.9697,3.9697,3.9697,3.9697,3.9697,3.9697,3.9697,3.9697,3.9697,3.9019,3.6821,3.4597,0.0,0.0,0.0,0.0,0.0,0.0,0.0,0.0,0.0,0.0,0.0,0.0,0.0,0.0,0.0,0.0,0.0,0.0,0.0,0.0,0.0,0.0,0.0,0.0,0.0,4.9823,5.0742,5.1191,5.1191,5.1191,5.1191,5.1191,5.1191,5.1191,5.1191,5.1191,5.1191,5.1191,5.1191,5.1191,5.1191,5.1191,5.1191,5.1191,0.0,1.4796,0.0,0.0,1.5953,0.0,1.7887,1.7774,1.7797,1.859,1.8677,1.8677,1.8677,1.912,1.9395,1.9395,1.9395,1.9395,1.9395,1.9395,1.9395,1.9395,1.9395,2.0118,2.1683,2.2053,2.2427,0.0,0.0,0.0,0.0,1.9093,1.8987,0.0,0.0,0.0,0.0,0.0,2.8428,2.8992,3.0694,3.2957,3.5327,3.5645,3.7397,3.9697,3.9697,3.9697,3.9697,3.9697,3.9697,3.9697,3.9697,3.9697,3.9697,3.9697,3.9697,3.9697,3.9697,3.9697,3.9697,3.9697,3.9697,3.9697,3.9697,3.9697,3.9697,3.9697,3.9697,3.9007,3.6808,3.5364,0.0,0.0,0.0,0.0,0.0,0.0,0.0,0.0,0.0,0.0,0.0,0.0,0.0,0.0,0.0,0.0,0.0,0.0,0.0,0.0,0.0,4.7691,4.8925,0.0,5.0085,5.081,5.1056,5.1191,5.1191,5.1191,5.1191,5.1191,5.1191,5.1191,5.1191,5.1191,5.1191,5.1191,5.1191,5.1191,5.1191,5.1191,5.1191,5.1191,0.0,0.0,0.0,0.0,0.0,0.0,1.8444,1.8851,1.9194,1.9292,1.9314,1.9314,1.9314,1.9361,1.9395,1.9395,1.9395,1.9395,1.9395,1.9395,1.9395,1.9395,1.9395,2.0244,2.2099,2.351,2.4501,0.0,0.0,0.0,0.0,1.998,2.0273,0.0,0.0,0.0,0.0,2.7761,2.8885,3.0799,3.2297,3.3856,3.5453,3.6784,3.8295,3.9697,3.9697,3.9697,3.9697,3.9697,3.9697,3.9697,3.9697,3.9697,3.9697,3.9697,3.9697,3.9697,3.9697,3.9697,3.9697,3.9697,3.9697,3.9697,3.9697,3.9697,3.9697,3.9697,3.9697,3.9019,3.681,3.7864,3.809,0.0,0.0,0.0,0.0,0.0,0.0,0.0,0.0,0.0,0.0,0.0,0.0,0.0,0.0,0.0,0.0,0.0,0.0,4.4491,0.0,4.5897,4.4865,4.8947,5.0496,4.9486,5.0661,5.1191,5.1191,5.1191,5.1191,5.1191,5.1191,5.1191,5.1191,5.1191,5.1191,5.1191,5.1191,5.1191,5.1191,5.1191,5.1191,5.1191,0.0,0.0,0.0,0.0,0.0,0.0,0.0,1.9247,1.9395,1.9395,1.9395,1.9395,1.9395,1.9395,1.9395,1.9395,1.9395,1.9395,1.9395,1.9395,1.9475,1.9619,2.0558,2.1947,2.3774,2.5379,2.6385,0.0,0.0,0.0,0.0,2.1553,2.209,0.0,0.0,2.6568,2.8015,2.9149,3.0136,3.1034,3.2501,3.3985,3.5453,3.6945,3.8413,3.9697,3.9697,3.9697,3.9697,3.9697,3.9697,3.9697,3.9697,3.9697,3.9697,3.9697,3.9697,3.9697,3.9697,3.9697,3.9697,3.9697,3.9697,3.9697,3.9697,3.9697,3.9697,3.9697,3.9697,3.9421,3.8542,3.8027,3.7725,0.0,0.0,0.0,0.0,0.0,0.0,0.0,0.0,0.0,0.0,0.0,0.0,0.0,0.0,0.0,0.0,0.0,0.0,4.3718,0.0,4.82,4.7316,4.9898,5.0936,5.0451,5.0975,5.1191,5.1191,5.1191,5.1191,5.1191,5.1191,5.1191,5.1191,5.1191,5.1191,5.1191,5.1191,5.1191,5.1191,5.1191,5.1191,5.1191,1.5352,0.0,1.734,0.0,1.8457,1.892,1.9334,1.9395,1.9395,1.9395,1.9395,1.9395,1.9395,1.9395,1.9395,1.9395,1.9395,1.9395,1.9395,1.9475,1.9586,1.9793,2.0965,0.0,2.5052,2.6206,2.7413,2.864,2.6891,0.0,0.0,2.3506,2.4082,0.0,2.7471,2.8435,2.8738,3.0244,3.0889,3.1034,3.2501,3.3985,3.5453,3.6945,3.8413,3.9697,3.9697,3.9697,3.9697,3.9697,3.9697,3.9697,3.9697,3.9697,3.9697,3.9697,3.9697,3.9697,3.9697,3.9697,3.9697,3.9697,3.9697,3.9697,3.9697,3.9697,3.9697,3.9697,3.9697,3.9697,3.9697,3.8429,3.7776,3.8994,0.0,0.0,0.0,0.0,0.0,0.0,0.0,0.0,0.0,0.0,0.0,0.0,0.0,0.0,0.0,0.0,0.0,0.0,0.0,0.0,0.0,5.0376,5.1191,5.1191,5.1191,5.1191,5.1191,5.1191,5.1191,5.1191,5.1191,5.1191,5.1191,5.1191,5.1191,5.1191,5.1191,5.1191,5.1191,5.1191,5.1191,5.1191,1.5663,1.6102,1.6323,1.6897,1.8338,1.9388,1.9395,1.9395,1.9395,1.9395,1.9395,1.9395,1.9395,1.9395,1.9395,1.9395,1.9395,1.9395,1.9395,1.9662,1.98,0.0,0.0,2.1896,2.5521,2.5618,2.7355,3.085,0.0,0.0,2.7594,2.5864,2.6206,2.8242,2.8281,2.9248,3.0859,3.0879,3.0889,3.1034,3.2501,3.3985,3.5453,3.6945,3.8413,3.9697,3.9697,3.9697,3.9697,3.9697,3.9697,3.9697,3.9697,3.9697,3.9697,3.9697,3.9697,3.9697,3.9697,3.9697,3.9697,3.9697,3.9697,3.9697,3.9697,3.9697,3.9697,3.9697,3.9697,3.9697,3.9697,3.9672,3.9295,3.8203,0.0,0.0,0.0,0.0,0.0,0.0,3.8909,3.9735,4.301,0.0,0.0,0.0,0.0,0.0,0.0,0.0,0.0,4.6211,4.6958,0.0,4.7324,4.989,5.1191,5.1191,5.1191,5.1191,5.1191,5.1191,5.1191,5.1191,5.1191,5.1191,5.1191,5.1191,5.1191,5.1191,5.1191,5.1191,5.1191,5.1191,5.1191,5.1191,1.4707,1.5967,1.7128,1.8406,1.9068,1.9395,1.9395,1.9395,1.9395,1.9395,1.9395,1.9395,1.9395,1.9395,1.9395,0.0,1.9575,1.9659,0.0,1.9933,2.0187,2.0388,2.2608,2.4454,2.5833,2.8059,2.977,3.0889,0.0,0.0,0.0,2.7555,2.8288,3.0068,3.0068,3.0371,3.0889,3.0889,3.0889,3.1034,3.2501,3.3985,3.5453,3.6945,3.8413,3.9697,3.9697,3.9697,3.9697,3.9697,3.9697,3.9697,3.9697,3.9697,3.9697,3.9697,3.9697,3.9697,3.9697,3.9697,3.9697,3.9697,3.9697,3.9697,3.9697,3.9697,3.9697,3.9697,3.9697,3.9697,3.9697,3.9697,3.9572,3.922,3.9459,0.0,0.0,0.0,0.0,0.0,0.0,4.3308,0.0,4.5016,0.0,0.0,0.0,0.0,0.0,0.0,0.0,0.0,4.82,0.0,4.8678,5.0361,5.1191,5.1191,5.1191,5.1191,5.1191,5.1191,5.1191,5.1191,5.1191,5.1191,5.1191,5.1191,5.1191,5.1191,5.1191,5.1191,5.1191,5.1191,5.1191,5.1191,1.5849,1.6738,1.7501,1.9127,1.9395,1.9395,1.9395,1.9395,1.9435,1.9542,1.9562,1.9602,1.9679,1.9693,0.0,1.9568,1.9693,1.9846,1.9953,2.0234,2.0481,2.0699,2.333,2.518,2.5976,2.8614,0.0,3.0889,2.9805,2.9268,2.9268,2.9268,2.9853,3.0889,3.0889,3.0889,3.0889,3.0889,3.0889,3.1034,3.2501,3.3985,3.5453,3.6945,3.8413,3.9697,3.9697,3.9697,3.9697,3.9697,3.9697,3.9697,3.9697,3.9697,3.9697,3.9697,3.9697,3.9697,3.9697,3.9697,3.9697,3.9697,3.9697,3.9697,3.9697,3.9697,3.9697,3.9697,3.9697,3.9697,3.9697,3.9697,3.976,3.9973,4.0011,4.0074,4.0261,0.0,0.0,0.0,0.0,0.0,0.0,4.6547,0.0,0.0,0.0,0.0,0.0,0.0,0.0,4.6884,4.968,0.0,5.0002,5.081,5.1191,5.1191,5.1191,5.1191,5.1191,5.1191,5.1191,5.1191,5.1191,5.1191,5.1191,5.1191,5.1191,5.1191,5.1191,5.1191,5.1191,5.1191,5.1191,5.1191,1.8321,1.8046,1.7501,1.9127,1.9395,1.9395,1.9395,1.9415,1.9522,1.9766,1.982,1.9933,2.017,2.0204,2.0104,1.9887,0.0,0.0,0.0,2.0541,2.077,2.0888,2.2737,2.4509,2.6128,2.7751,2.9344,3.0889,3.0889,3.0889,3.0889,3.0918,3.0937,3.0937,3.0967,3.0976,3.0976,3.0976,3.0976,3.1123,3.249,3.3981,3.5554,3.6916,3.8431,3.981,3.981,3.981,3.981,3.981,3.981,3.981,3.981,3.981,3.9798,3.9722,3.9697,3.9697,3.9747,3.9747,3.9747,3.9747,3.9747,3.976,3.9798,3.981,3.981,3.981,3.981,3.981,3.981,3.981,3.9973,4.0462,4.0549,4.0725,4.124,0.0,0.0,0.0,0.0,0.0,0.0,4.6198,4.7572,0.0,0.0,0.0,0.0,0.0,4.6555,5.1056,5.1191,5.1191,5.1191,5.1191,5.1191,5.1191,5.1191,5.1191,5.1191,5.1191,5.1191,5.1191,5.1191,5.1191,5.1191,5.1191,5.1191,5.1191,5.1191,5.1191,5.1191,5.1191,5.1191,5.1191,0.0,0.0,1.7501,1.9127,1.9395,1.9395,1.9395,1.9582,1.972,1.9793,1.9993,2.0124,2.0197,2.0204,2.0264,2.0485,2.0498,2.0494,2.0568,2.0848,2.1592,2.285,2.4516,2.6197,2.7811,2.9471,3.0489,3.0889,3.0889,3.0889,3.0898,3.1221,3.1367,3.1377,3.1719,3.1895,3.1895,3.1895,3.1895,3.1925,3.2266,3.3991,3.6397,3.6765,3.8583,4.0926,4.0926,4.0926,4.0926,4.0926,4.0926,4.0926,4.0926,4.0926,4.0763,3.9936,3.9697,3.9785,4.0212,4.0325,4.0325,4.0325,4.0325,4.0411,4.0826,4.0926,4.0926,4.0926,4.0926,4.0926,4.0926,4.0926,4.0964,4.1102,4.1114,4.1164,4.1263,4.1558,0.0,0.0,4.4489,4.6121,4.7468,4.9079,4.9471,0.0,0.0,0.0,0.0,4.7189,4.8012,5.1101,5.1191,5.1191,5.1191,5.1191,5.1191,5.1191,5.1191,5.1191,5.1191,5.1191,5.1191,5.1191,5.1191,5.1191,5.1191,5.1191,5.1191,5.1191,5.1191,5.1191,5.1191,5.1191,5.1191,5.1191,1.7777,1.8104,1.8373,1.9249,1.9395,1.9441,1.9575,1.97,1.9893,2.0167,2.0341,2.0488,2.059,2.0604,2.0664,2.0862,2.0786,2.0766,2.0862,2.1731,2.2654,2.3574,2.5841,2.7503,2.8388,3.005,3.0986,3.1172,3.1572,3.1758,3.1768,3.1992,3.21,3.2109,3.2179,3.2198,3.2198,3.2198,3.2198,3.2259,3.2945,3.46,3.6773,3.7445,3.9201,4.1315,4.1315,4.1315,4.1315,4.1315,4.1315,4.1315,4.1315,4.1315,4.1202,4.06,4.0411,4.0487,4.0788,4.0876,4.0876,4.0876,4.0876,4.0938,4.1213,4.1315,4.1315,4.1315,4.1315,4.1315,4.1315,4.1315,4.139,4.1681,4.1265,4.1202,4.1982,4.1628,4.2244,4.4773,4.6036,4.7456,4.9433,5.0576,5.0607,4.9187,4.9067,0.0,4.9067,4.9067,4.9725,5.1146,5.1191,5.1191,5.1191,5.1191,5.1191,5.1191,5.1191,5.1191,5.1191,5.1191,5.1191,5.1191,5.1191,5.1191,5.1191,5.1191,5.1191,5.1191,5.1191,5.1191,5.1191,5.1191,5.1191,5.1191,1.9127,1.9395,1.9408,1.9455,1.9461,1.9562,1.982,1.99,2.0114,2.0639,2.0746,2.0835,2.1082,2.1109,2.1109,2.1109,2.0882,2.0848,2.1096,2.2435,2.345,2.3938,2.6628,2.8358,2.8845,3.0339,3.1289,3.1709,3.2441,3.2832,3.2891,3.2959,3.2949,3.2871,3.2619,3.2452,3.2384,3.2384,3.2384,3.2506,3.4017,3.5545,3.7084,3.858,4.0156,4.1566,4.1566,4.1566,4.1566,4.1566,4.1566,4.1566,4.1566,4.1566,4.1566,4.1566,4.1566,4.1541,4.1453,4.144,4.1453,4.1541,4.1503,4.1453,4.1541,4.1566,4.1566,4.1566,4.1566,4.1566,4.1566,4.1566,4.1603,4.1783,4.1279,4.1266,4.2361,0.0,4.2867,4.6365,4.6966,4.8099,5.065,5.1097,5.1191,5.1191,5.1191,5.1191,5.1191,5.1191,5.1191,5.1191,5.1191,5.1191,5.1191,5.1191,5.1191,5.1191,5.1191,5.1191,5.1191,5.1191,5.1191,5.1191,5.1191,5.1191,5.1191,5.1191,5.1191,5.1191,5.1191,5.1191,5.1191,5.1191,5.1191,5.1191,1.9336,1.9395,1.9475,1.9693,1.9733,1.9833,2.009,2.0381,2.0605,2.0699,2.0889,2.1056,2.1109,2.1109,2.1109,2.1109,2.1069,2.1062,2.1109,2.1355,2.2733,2.5497,2.6443,2.8193,3.095,3.1657,3.2208,3.2598,3.2734,3.2978,3.333,3.3701,3.3682,3.3308,3.3674,3.3574,3.3191,3.3191,3.3191,3.3348,3.4944,3.6555,3.8136,3.9726,4.1331,4.2723,4.2723,4.2723,4.2723,4.2723,4.2723,4.2723,4.2723,4.2723,4.2723,4.2723,4.2723,4.265,4.2173,4.206,4.2173,4.2637,4.2399,4.2173,4.2622,4.2723,4.2723,4.2723,4.2723,4.2723,4.2723,4.2723,4.2133,4.0389,4.1519,4.206,4.0425,0.0,4.3383,4.5129,4.6383,4.7746,4.9357,5.054,5.1191,5.1191,5.1191,5.1191,5.1191,5.1191,5.1191,5.1191,5.1191,5.1191,5.1191,5.1191,5.1191,5.1191,5.1191,5.1191,5.1191,5.1191,5.1191,5.1191,5.1191,5.1191,5.1191,5.1191,5.1191,5.1191,5.1191,5.1191,5.1191,5.1191,5.1191,5.1191,1.9633,1.9726,1.9873,1.9977,2.0034,2.0134,2.0428,2.0588,2.0766,2.0889,2.1029,2.1109,2.1109,2.1109,2.1109,2.1109,2.1109,2.1109,2.1109,2.194,2.3603,2.6195,2.7371,2.9182,3.1835,3.2285,3.2598,3.2793,3.3486,3.3916,3.4121,3.457,3.4678,3.4482,3.4434,3.417,3.3769,3.3769,3.412,3.4767,3.5509,3.7273,3.9552,4.0332,4.1602,4.3002,4.3002,4.3002,4.3002,4.3002,4.3002,4.3002,4.3002,4.3002,4.3002,4.3002,4.3002,4.2951,4.27,4.2625,4.2688,4.2939,4.2813,4.27,4.2951,4.3002,4.3002,4.3002,4.3002,4.3002,4.3002,4.3002,4.2675,4.163,4.1819,4.1944,4.1517,4.1831,4.3104,4.5818,4.6695,4.7948,5.0056,5.0831,5.1191,5.1191,5.1191,5.1191,5.1191,5.1191,5.1191,5.1191,5.1191,5.1191,5.1191,5.1191,5.1191,5.1191,5.1191,5.1191,5.1191,5.1191,5.1191,5.1191,5.1191,5.1191,5.1191,5.1191,5.1191,5.1191,5.1191,5.1191,5.1191,5.1191,5.1191,5.1251,2.0047,2.0187,2.0304,2.0304,2.0304,2.0434,2.0735,2.0775,2.0855,2.1082,2.1109,2.1109,2.1109,2.1109,2.1109,2.1109,2.1109,2.1109,2.1109,2.2685,2.451,2.6504,2.8755,3.0748,3.2451,3.2773,3.3037,3.3242,3.4219,3.4805,3.5019,3.5371,3.5488,3.5371,3.5019,3.4619,3.4241,3.4551,3.5161,3.6025,3.6662,3.8409,4.065,4.1019,4.1927,4.3002,4.3002,4.3002,4.3002,4.3002,4.3002,4.3002,4.3002,4.3002,4.3002,4.3002,4.3002,4.3002,4.3002,4.3002,4.3002,4.3002,4.3002,4.3002,4.3002,4.3002,4.3002,4.3002,4.3002,4.3002,4.3002,4.3002,4.2838,4.2323,4.1932,4.1804,4.2198,4.1932,4.2917,4.6222,4.6888,4.8049,5.0493,5.1011,5.1191,5.1191,5.1191,5.1191,5.1191,5.1191,5.1191,5.1191,5.1191,5.1191,5.1191,5.1191,5.1191,5.1191,5.1191,5.1191,5.1206,5.1355,5.143,5.143,5.1618,5.1678,5.1678,5.1678,5.1678,5.1678,5.1678,5.1678,5.1678,5.1678,5.1678,5.1753,2.0646,2.0659,2.0672,2.0672,2.0672,2.0773,2.1036,2.1076,2.1082,2.1109,2.1109,2.1109,2.1109,2.1109,2.1109,2.1109,2.1109,2.1109,2.1109,2.2685,2.4487,2.6521,3.0426,3.2766,3.3289,3.3328,3.376,3.456,3.4648,3.5117,3.5884,3.5923,3.5762,3.5391,3.5361,3.5088,3.4727,3.5855,3.6373,3.6664,3.9206,4.039,4.0765,4.2263,4.289,4.3002,4.3002,4.3002,4.3002,4.3002,4.3002,4.3002,4.3002,4.3002,4.3002,4.3002,4.3002,4.3002,4.3002,4.3002,4.3002,4.3002,4.3002,4.3002,4.3002,4.3002,4.3002,4.3002,4.3002,4.3002,4.3002,4.3002,4.2336,4.0262,4.158,4.2198,4.0212,4.1645,4.343,4.4981,4.6305,4.7695,4.921,5.0469,5.1191,5.1191,5.1191,5.1191,5.1191,5.1191,5.1191,5.1191,5.1191,5.1191,5.1191,5.1191,5.1191,5.1191,5.1191,5.1191,5.1221,5.1843,5.2127,5.2157,5.277,5.3064,5.3064,5.3064,5.3064,5.3064,5.3064,5.3064,5.3064,5.3064,5.3064,5.3064,2.1288,2.1395,2.1522,2.1522,2.1375,2.1288,2.1402,2.1229,2.1109,2.1109,2.1109,2.1109,2.1109,2.1109,2.1109,2.1109,2.1109,2.1109,2.1109,2.3847,2.6372,2.842,3.1496,3.322,3.3386,3.3386,3.3542,3.3874,3.4443,3.4873,3.5215,3.5762,3.5937,3.5781,3.5781,3.611,3.6703,3.7175,3.8199,3.9635,4.0681,4.148,4.2178,4.2765,4.3002,4.3002,4.3002,4.3002,4.3002,4.3002,4.3002,4.3002,4.3002,4.3002,4.3002,4.3002,4.3002,4.3002,4.3002,4.3002,4.3002,4.3002,4.3002,4.3002,4.3002,4.3002,4.3002,4.3002,4.3002,4.3002,4.3002,4.3002,4.2725,4.1896,4.2462,4.2713,4.1844,4.2474,4.3837,4.6043,4.6759,4.7974,5.0215,5.0902,5.1191,5.1191,5.1191,5.137,5.1813,5.2217,5.2441,5.2441,5.2441,5.2037,5.1206,5.1594,5.1828,5.1828,5.1828,5.2037,5.2441,5.2695,5.2815,5.2815,5.3094,5.3198,5.3198,5.3198,5.3198,5.3198,5.3198,5.3198,5.3198,5.3198,5.3198,5.3258,2.1897,2.1984,2.2091,2.1997,2.185,2.1723,2.1723,2.1468,2.1283,2.137,2.1223,2.1149,2.1236,2.1162,2.1109,2.1109,2.1109,2.1324,2.1853,2.5453,2.8499,3.0597,3.2414,3.3386,3.3386,3.3386,3.3523,3.3818,3.4414,3.4844,3.5127,3.5732,3.5982,3.5982,3.5982,3.6787,3.8147,3.8497,3.9782,4.1632,4.2018,4.2504,4.3002,4.3002,4.3002,4.3002,4.3002,4.3002,4.3002,4.3002,4.3002,4.3002,4.3002,4.3002,4.3002,4.3002,4.3002,4.3002,4.3002,4.3002,4.3002,4.3002,4.3002,4.3002,4.3002,4.3002,4.3002,4.3002,4.3002,4.3002,4.3002,4.3002,4.3002,4.3002,4.3002,4.3002,4.3002,4.3002,4.4108,4.7046,4.741,4.8567,5.1545,5.1828,5.1828,5.1828,5.1828,5.2037,5.2486,5.2959,5.3198,5.3198,5.3408,5.2965,5.1843,5.2276,5.2501,5.2501,5.2501,5.274,5.3213,5.3414,5.3503,5.3543,5.3752,5.3842,5.3842,5.3842,5.3842,5.3842,5.3842,5.3842,5.3842,5.3842,5.3842,5.3902,2.2385,2.2385,2.2331,2.2044,2.1991,2.1991,2.1991,2.1776,2.1696,2.1984,2.1476,2.1223,2.1549,2.1289,2.1109,2.1109,2.1109,2.1821,2.3519,2.7455,3.0637,3.2711,3.3203,3.3386,3.3386,3.3386,3.3838,3.4697,3.4697,3.5146,3.6016,3.5982,3.5982,3.5982,3.5982,3.6991,3.8698,3.9848,4.1021,4.2215,4.3371,4.3476,4.3014,4.3014,4.3014,4.3014,4.3002,4.3002,4.3002,4.3002,4.3002,4.3002,4.3002,4.3002,4.3002,4.3002,4.3002,4.3002,4.3002,4.3002,4.3002,4.3002,4.3002,4.3002,4.3002,4.3002,4.3002,4.3014,4.3014,4.3014,4.3014,4.3014,4.3014,4.3014,4.3014,4.3014,4.3014,4.3014,4.429,4.7701,4.811,4.945,5.288,5.3198,5.3198,5.3198,5.3198,5.3213,5.3213,5.3213,5.3228,5.3228,5.3862,5.3892,5.3228,5.3213,5.3213,5.3213,5.3213,5.3213,5.3243,5.3907,5.4221,5.4227,5.491,5.5194,5.5194,5.5194,5.5194,5.5194,5.5194,5.5194,5.5194,5.5194,5.5194,5.5194,2.2766,2.2766,2.274,2.2653,2.2432,2.2291,2.2291,2.2044,2.1923,2.1977,2.1689,2.1489,2.1575,2.1289,2.1569,2.274,2.179,2.2556,2.5983,2.84,3.0757,3.3109,3.335,3.3386,3.3386,3.3386,3.3701,3.429,3.456,3.5,3.5586,3.5879,3.5982,3.5982,3.5982,3.7642,4.0461,4.08,4.2319,4.4534,4.4869,4.4644,4.4091,4.3702,4.3551,4.3501,4.3152,4.3002,4.3002,4.3002,4.3002,4.3002,4.3002,4.3002,4.3002,4.3002,4.3002,4.3002,4.3002,4.3002,4.3002,4.3002,4.3002,4.3002,4.3002,4.3002,4.3115,4.3476,4.3551,4.3677,4.4066,4.4129,4.4129,4.4129,4.4129,4.4129,4.4129,4.4129,4.5253,4.8294,4.8654,4.9853,5.2885,5.3198,5.3198,5.3198,5.3623,5.3907,5.3907,5.4341,5.4581,5.4581,5.479,5.4805,5.462,5.4132,5.3907,5.3907,5.3907,5.4147,5.4596,5.4805,5.4895,5.491,5.5104,5.5194,5.5194,5.5194,5.5194,5.5194,5.5194,5.5194,5.5194,5.5194,5.5194,5.5194,2.2893,2.2893,2.2893,2.2893,2.2712,2.2592,2.2592,2.2345,2.2198,2.2352,2.201,2.1803,2.1917,2.2128,2.2726,2.3877,2.4165,2.5398,2.8089,2.9772,3.1494,3.3325,3.3386,3.3386,3.3386,3.3386,3.3711,3.4359,3.457,3.5019,3.5644,3.5898,3.5982,3.5982,3.5982,3.7932,4.1213,4.1213,4.2864,4.5485,4.5485,4.5146,4.4539,4.4016,4.3802,4.3727,4.3203,4.3002,4.3002,4.3002,4.3002,4.3002,4.3002,4.3002,4.3002,4.3002,4.3002,4.3052,4.3266,4.3313,4.3363,4.3576,4.3463,4.3313,4.3313,4.3476,4.3727,4.4053,4.4129,4.4229,4.4539,4.4589,4.4589,4.4589,4.4589,4.4589,4.4589,4.5113,4.6434,4.8979,4.9824,5.1158,5.3724,5.3992,5.3992,5.3992,5.4371,5.4596,5.4596,5.497,5.5194,5.5194,5.5194,5.5194,5.5194,5.4805,5.4596,5.4596,5.4596,5.4805,5.5194,5.5194,5.5194,5.5194,5.5194,5.5194,5.5194,5.5194,5.5194,5.5194,5.5194,5.5194,5.5194,5.5194,5.5194,5.5194,2.2893,2.2893,2.2893,2.2893,2.2893,2.2893,2.2893,2.2632,2.2552,2.286,2.2405,2.2124,2.2358,2.3385,2.4249,2.4766,2.7585,2.9446,2.9741,3.1285,3.2579,3.3357,3.3425,3.3425,3.3386,3.3425,3.3877,3.4697,3.4736,3.5195,3.5982,3.5982,3.5982,3.5982,3.5982,3.7932,4.1213,4.1213,4.2888,4.556,4.556,4.5246,4.469,4.4166,4.3915,4.3802,4.325,4.3052,4.3002,4.3002,4.3002,4.3002,4.3002,4.3039,4.3077,4.3077,4.3115,4.3266,4.374,4.3878,4.4003,4.4476,4.4251,4.394,4.3878,4.4267,4.4614,4.4665,4.4677,4.469,4.474,4.474,4.474,4.474,4.474,4.474,4.474,4.5956,4.7636,4.9706,5.116,5.2809,5.4993,5.5194,5.5194,5.5194,5.5194,5.5194,5.5194,5.5194,5.5194,5.5194,5.5194,5.5194,5.5194,5.5194,5.5194,5.5194,5.5194,5.5194,5.5194,5.5194,5.5194,5.5194,5.5194,5.5194,5.5194,5.5194,5.5194,5.5194,5.5194,5.5194,5.5194,5.5194,5.5194,5.5194,2.2893,2.2893,2.2893,2.2893,2.2893,2.2893,2.2893,2.284,2.282,2.2887,2.2552,2.2352,2.2378,2.3644,2.5034,2.6447,2.9256,3.0761,3.0274,3.1477,3.2579,3.3357,3.375,3.3769,3.3396,3.376,3.418,3.4697,3.5068,3.5508,3.5982,3.5982,3.5982,3.5982,3.5982,3.7932,4.1213,4.1213,4.3099,4.6137,4.6137,4.6062,4.5886,4.5334,4.4844,4.4351,4.3815,4.335,4.3002,4.3002,4.3002,4.3002,4.3002,4.3303,4.3627,4.3627,4.3928,4.4292,4.4376,4.4414,4.4439,4.4564,4.4882,4.5008,4.4514,4.4514,4.4727,4.5208,4.5296,4.5434,4.5861,4.5919,4.5919,4.5919,4.5919,4.5919,4.5919,4.6222,4.7448,5.0188,5.0808,5.211,5.4921,5.5194,5.5194,5.5194,5.5194,5.5194,5.5194,5.5194,5.5194,5.5194,5.5194,5.5194,5.5194,5.5194,5.5194,5.5194,5.5194,5.5194,5.5194,5.5194,5.5194,5.5194,5.5194,5.5194,5.5194,5.5194,5.5194,5.5194,5.5194,5.5194,5.5194,5.5194,5.5194,5.5194,2.2893,2.2893,2.2893,2.2893,2.2893,2.2893,2.2893,2.2893,2.2893,2.2893,2.276,2.2964,2.378,2.5128,2.6953,2.9324,3.1124,3.2046,3.1838,3.2426,3.3144,3.3994,3.4248,3.4258,3.4033,3.4473,3.4697,3.4697,3.5166,3.5615,3.5982,3.5982,3.5982,3.5982,3.5982,3.7932,4.1213,4.1213,4.3169,4.6313,4.6313,4.6313,4.625,4.5698,4.5296,4.4957,4.4405,4.4003,4.3765,4.3765,4.3765,4.3765,4.3765,4.3966,4.4192,4.4192,4.4376,4.4652,4.4957,4.5033,4.5095,4.5359,4.566,4.5736,4.5171,4.5234,4.551,4.5811,4.5886,4.5962,4.6263,4.6313,4.6313,4.6313,4.6313,4.6558,4.7252,4.7964,4.9224,5.1522,5.2414,5.3477,5.5053,5.5194,5.5194,5.5194,5.5194,5.5194,5.5194,5.5194,5.5194,5.5194,5.5194,5.5194,5.5194,5.5194,5.5194,5.5194,5.5194,5.5194,5.5194,5.5194,5.5194,5.5194,5.5194,5.5194,5.5194,5.5194,5.5194,5.5194,5.5194,5.5194,5.5194,5.5194,5.5194,5.5194,2.2893,2.2893,2.2893,2.2893,2.2893,2.2893,2.2893,2.2893,2.2893,2.2893,2.316,2.389,2.5349,2.704,2.9238,3.2157,3.2637,3.2969,3.3357,3.335,3.3662,3.4443,3.4619,3.4668,3.459,3.5185,3.5273,3.4824,3.5273,3.5674,3.5982,3.5982,3.5982,3.5982,3.5982,3.7932,4.1213,4.1213,4.3169,4.6313,4.6313,4.6313,4.6263,4.5799,4.5573,4.5422,4.4945,4.4677,4.4589,4.4589,4.4589,4.4589,4.4589,4.4665,4.474,4.474,4.4803,4.4991,4.5497,4.5635,4.5736,4.62,4.6313,4.6188,4.5736,4.5987,4.6313,4.6313,4.6313,4.6313,4.6313,4.6313,4.6313,4.6313,4.6498,4.7087,4.8342,4.9777,5.1263,5.283,5.4304,5.5194,5.5194,5.5194,5.5194,5.5194,5.5194,5.5194,5.5194,5.5194,5.5194,5.5194,5.5194,5.5194,5.5194,5.5194,5.5194,5.5194,5.5194,5.5194,5.5194,5.5194,5.5194,5.5194,5.5194,5.5194,5.5194,5.5194,5.5194,5.5194,5.5194,5.5194,5.5194,5.5194,5.5194,5.5194,2.2893,2.2893,2.2893,2.2893,2.2893,2.2893,2.2893,2.2893,2.2893,2.2893,2.4222,2.5248,2.5476,2.8393,3.1139,3.3063,3.2969,3.2969,3.3357,3.3076,3.3096,3.3574,3.4307,3.4531,3.4192,3.5322,3.5732,3.5303,3.5732,3.5967,3.5982,3.5982,3.5982,3.5982,3.5982,3.7932,4.1213,4.1213,4.3169,4.6313,4.6313,4.6313,4.6301,4.6225,4.5899,4.5485,4.5397,4.5045,4.4589,4.4589,4.4589,4.4589,4.4589,4.497,4.5372,4.5372,4.5711,4.61,4.6175,4.62,4.6225,4.6288,4.6313,4.6288,4.6225,4.625,4.6313,4.6313,4.6313,4.6313,4.6313,4.6313,4.6313,4.6313,4.737,4.8255,4.8474,4.9777,5.1263,5.283,5.4304,5.5194,5.5194,5.5194,5.5194,5.5194,5.5194,5.5194,5.5194,5.5194,5.5194,5.5194,5.5194,5.5194,5.5194,5.5194,5.5194,5.5194,5.5194,5.5194,5.5194,5.5194,5.5194,5.5194,5.5194,5.5194,5.5194,5.5194,5.5194,5.5194,5.5194,5.5194,5.5194,5.5194,5.5194,5.5194,2.2893,2.2893,2.2893,2.2893,2.2893,2.2893,2.2893,2.2893,2.2893,2.2893,2.4426,2.5879,2.6906,3.0157,3.2556,3.3323,3.3252,3.333,3.376,3.3613,3.3701,3.4121,3.4492,3.4736,3.4805,3.5371,3.5693,3.5742,3.5894,3.5982,3.5982,3.5982,3.5982,3.5982,3.5982,3.7932,4.1213,4.1213,4.3169,4.6313,4.6313,4.6313,4.6313,4.6313,4.6163,4.5949,4.5949,4.5786,4.5543,4.5543,4.5543,4.5543,4.5543,4.5736,4.5949,4.5949,4.6125,4.6313,4.6313,4.6313,4.6313,4.6313,4.6313,4.6313,4.6313,4.6313,4.6313,4.6313,4.6313,4.6313,4.6313,4.6313,4.6313,4.6313,4.6845,4.786,4.9508,5.0296,5.1731,5.4448,5.5641,5.6256,5.6256,5.6256,5.6256,5.6256,5.6256,5.6256,5.6256,5.6256,5.6256,5.6256,5.6256,5.6256,5.6256,5.6256,5.6256,5.6256,5.6256,5.5882,5.5194,5.5194,5.5194,5.5194,5.5194,5.5194,5.5194,5.5194,5.5194,5.5194,5.5194,5.5194,5.5194,5.5194,5.5194,5.5194]},{"header":{"parameterUnit":"m.s-1","parameterCategory":1,"la1":30.6,"la2":28.766,"lo1":-90.7593,"lo2":-88.6598,"dx":0.0162,"dy":0.0183,"nx":116,"ny":114,"refTime":"2023-01-07T18:00:00:Z","depth":0,"parameterNumber":3,"parameterNumberName":"V-component_of_WINDS"},"data":[0.0,0.0,0.0,0.0,0.0,0.0,0.0,0.0,0.0,0.0,0.0,0.0,0.0,0.0,0.0,0.0,0.0,0.0,0.0,0.0,0.0,0.0,0.0,0.0,0.0,0.0,0.0,0.0,0.0,0.0,0.0,0.0,0.0,0.0,0.0,0.0,0.0,0.0,0.0,0.0,0.0,0.0,0.0,0.0,0.0,0.0,0.0,0.0,0.0,0.0,0.0,0.0,0.0,0.0,0.0,0.0,0.0,0.0,0.0,0.0,0.0,0.0,0.0,0.0,0.0,0.0,0.0,0.0,0.0,0.0,0.0,0.0,0.0,0.0,0.0,0.0,0.0,0.0,0.0,0.0,0.0,0.0,0.0,0.0,0.0,0.0,0.0,0.0,0.0,0.0,0.0,0.0,0.0,0.0,0.0,0.0,0.0,0.0,0.0,0.0,0.0,0.0,0.0,0.0,0.0,0.0,0.0,0.0,0.0,0.0,0.0,0.0,0.0,0.0,0.0,0.0,0.0,0.0,0.0,0.0,0.0,0.0,0.0,0.0,0.0,0.0,0.0,0.0,0.0,0.0,0.0,0.0,0.0,0.0,0.0,0.0,0.0,0.0,0.0,0.0,0.0,0.0,0.0,0.0,0.0,0.0,0.0,0.0,0.0,0.0,0.0,0.0,0.0,0.0,0.0,0.0,0.0,0.0,0.0,0.0,0.0,0.0,0.0,0.0,0.0,0.0,0.0,0.0,0.0,0.0,0.0,0.0,0.0,0.0,0.0,0.0,0.0,0.0,0.0,0.0,0.0,0.0,0.0,0.0,0.0,0.0,0.0,0.0,0.0,0.0,0.0,0.0,0.0,0.0,0.0,0.0,0.0,0.0,0.0,0.0,0.0,0.0,0.0,0.0,0.0,0.0,0.0,0.0,0.0,0.0,0.0,0.0,0.0,0.0,0.0,0.0,0.0,0.0,0.0,0.0,0.0,0.0,0.0,0.0,0.0,0.0,0.0,0.0,0.0,0.0,0.0,0.0,0.0,0.0,0.0,0.0,0.0,0.0,0.0,0.0,0.0,0.0,0.0,0.0,0.0,0.0,0.0,0.0,0.0,0.0,0.0,0.0,0.0,0.0,0.0,0.0,0.0,0.0,0.0,0.0,0.0,0.0,0.0,0.0,0.0,0.0,0.0,0.0,0.0,0.0,0.0,0.0,0.0,0.0,0.0,0.0,0.0,0.0,0.0,0.0,0.0,0.0,0.0,0.0,0.0,0.0,0.0,0.0,0.0,0.0,0.0,0.0,0.0,0.0,0.0,0.0,0.0,0.0,0.0,0.0,0.0,0.0,0.0,0.0,0.0,0.0,0.0,0.0,0.0,0.0,0.0,0.0,0.0,0.0,0.0,0.0,0.0,0.0,0.0,0.0,0.0,0.0,0.0,0.0,0.0,0.0,0.0,0.0,0.0,0.0,0.0,0.0,0.0,0.0,0.0,0.0,0.0,0.0,0.0,0.0,0.0,0.0,0.0,0.0,0.0,0.0,0.0,0.0,0.0,0.0,0.0,0.0,0.0,0.0,0.0,0.0,0.0,0.0,0.0,0.0,0.0,0.0,0.0,0.0,0.0,0.0,0.0,0.0,0.0,0.0,0.0,0.0,0.0,0.0,0.0,0.0,0.0,0.0,0.0,0.0,0.0,0.0,0.0,0.0,0.0,0.0,0.0,0.0,0.0,0.0,0.0,0.0,0.0,0.0,0.0,0.0,0.0,0.0,0.0,0.0,0.0,0.0,0.0,0.0,0.0,0.0,0.0,0.0,0.0,0.0,0.0,0.0,0.0,0.0,0.0,0.0,0.0,0.0,0.0,0.0,0.0,0.0,0.0,0.0,0.0,0.0,0.0,0.0,0.0,0.0,0.0,0.0,0.0,0.0,0.0,0.0,0.0,0.0,0.0,0.0,0.0,0.0,0.0,0.0,0.0,0.0,0.0,0.0,0.0,0.0,0.0,0.0,0.0,0.0,0.0,0.0,0.0,0.0,0.0,0.0,0.0,0.0,0.0,0.0,0.0,0.0,0.0,0.0,0.0,0.0,0.0,0.0,0.0,0.0,0.0,0.0,0.0,0.0,0.0,0.0,0.0,0.0,0.0,0.0,0.0,0.0,0.0,0.0,0.0,0.0,0.0,0.0,0.0,0.0,0.0,0.0,0.0,0.0,0.0,0.0,0.0,0.0,0.0,0.0,0.0,0.0,0.0,0.0,0.0,0.0,0.0,0.0,0.0,0.0,0.0,0.0,0.0,0.0,0.0,0.0,0.0,0.0,0.0,0.0,0.0,0.0,0.0,0.0,0.0,0.0,0.0,0.0,0.0,0.0,0.0,0.0,0.0,0.0,0.0,0.0,0.0,0.0,0.0,0.0,0.0,0.0,0.0,0.0,0.0,0.0,0.0,0.0,0.0,0.0,0.0,0.0,0.0,0.0,0.0,0.0,0.0,0.0,0.0,0.0,0.0,0.0,0.0,0.0,0.0,0.0,0.0,0.0,0.0,0.0,0.0,0.0,0.0,0.0,0.0,0.0,0.0,0.0,0.0,0.0,0.0,0.0,0.0,0.0,0.0,0.0,0.0,0.0,0.0,0.0,0.0,0.0,0.0,0.0,0.0,0.0,0.0,0.0,0.0,0.0,0.0,0.0,0.0,0.0,0.0,0.0,0.0,0.0,0.0,0.0,0.0,0.0,0.0,0.0,0.0,0.0,0.0,0.0,0.0,0.0,0.0,0.0,0.0,0.0,0.0,0.0,0.0,0.0,0.0,0.0,0.0,0.0,0.0,0.0,0.0,0.0,0.0,0.0,0.0,0.0,0.0,0.0,0.0,0.0,0.0,0.0,0.0,0.0,0.0,0.0,0.0,0.0,0.0,0.0,0.0,0.0,0.0,0.0,0.0,0.0,0.0,0.0,0.0,0.0,0.0,0.0,0.0,0.0,0.0,0.0,0.0,0.0,0.0,0.0,0.0,0.0,0.0,0.0,0.0,0.0,0.0,0.0,0.0,0.0,0.0,0.0,0.0,0.0,0.0,0.0,0.0,0.0,0.0,0.0,0.0,0.0,0.0,0.0,0.0,0.0,0.0,0.0,0.0,0.0,0.0,0.0,0.0,0.0,0.0,0.0,0.0,0.0,0.0,0.0,0.0,0.0,0.0,0.0,0.0,0.0,0.0,0.0,0.0,0.0,0.0,0.0,0.0,0.0,0.0,0.0,0.0,0.0,0.0,0.0,0.0,0.0,0.0,0.0,0.0,0.0,0.0,0.0,0.0,0.0,0.0,0.0,0.0,0.0,0.0,0.0,0.0,0.0,0.0,0.0,0.0,0.0,0.0,0.0,0.0,0.0,0.0,0.0,0.0,0.0,0.0,0.0,0.0,0.0,0.0,0.0,0.0,0.0,0.0,0.0,0.0,0.0,0.0,0.0,0.0,0.0,0.0,0.0,0.0,0.0,0.0,0.0,0.0,0.0,0.0,0.0,0.0,0.0,0.0,0.0,0.0,0.0,0.0,0.0,0.0,0.0,0.0,0.0,0.0,0.0,0.0,0.0,0.0,0.0,0.0,0.0,0.0,0.0,0.0,0.0,0.0,0.0,0.0,0.0,0.0,0.0,0.0,0.0,0.0,0.0,0.0,0.0,0.0,0.0,0.0,0.0,0.0,0.0,0.0,0.0,0.0,0.0,0.0,0.0,0.0,0.0,0.0,0.0,0.0,0.0,0.0,0.0,0.0,0.0,0.0,0.0,0.0,0.0,0.0,0.0,0.0,0.0,0.0,0.0,0.0,0.0,0.0,0.0,0.0,0.0,0.0,0.0,0.0,0.0,0.0,0.0,0.0,0.0,0.0,0.0,0.0,0.0,0.0,0.0,0.0,0.0,0.0,0.0,0.0,0.0,0.0,0.0,0.0,0.0,0.0,0.0,0.0,0.0,0.0,0.0,0.0,0.0,0.0,0.0,0.0,0.0,0.0,0.0,0.0,0.0,0.0,0.0,0.0,0.0,0.0,0.0,0.0,0.0,0.0,0.0,0.0,0.0,0.0,0.0,0.0,0.0,0.0,0.0,0.0,0.0,0.0,0.0,0.0,0.0,0.0,0.0,0.0,0.0,0.0,0.0,0.0,0.0,0.0,0.0,0.0,0.0,0.0,0.0,0.0,0.0,0.0,0.0,0.0,0.0,0.0,0.0,0.0,0.0,0.0,0.0,0.0,0.0,0.0,0.0,0.0,0.0,0.0,0.0,0.0,0.0,0.0,0.0,0.0,0.0,0.0,0.0,0.0,0.0,0.0,0.0,0.0,0.0,0.0,0.0,0.0,0.0,0.0,0.0,0.0,0.0,0.0,0.0,0.0,0.0,0.0,0.0,0.0,0.0,0.0,0.0,0.0,0.0,0.0,0.0,0.0,0.0,0.0,0.0,0.0,0.0,0.0,0.0,0.0,0.0,0.0,0.0,0.0,0.0,0.0,0.0,0.0,0.0,0.0,0.0,0.0,0.0,0.0,0.0,0.0,0.0,0.0,0.0,0.0,0.0,0.0,0.0,0.0,0.0,0.0,0.0,0.0,0.0,0.0,0.0,0.0,0.0,0.0,0.0,0.0,0.0,0.0,0.0,0.0,0.0,0.0,0.0,0.0,0.0,0.0,0.0,0.0,0.0,0.0,0.0,0.0,0.0,0.0,0.0,0.0,0.0,0.0,0.0,0.0,0.0,0.0,0.0,0.0,0.0,0.0,0.0,0.0,0.0,0.0,0.0,0.0,0.0,0.0,0.0,0.0,0.0,0.0,0.0,0.0,0.0,0.0,0.0,0.0,0.0,0.0,0.0,0.0,0.0,0.0,0.0,0.0,0.0,0.0,0.0,0.0,0.0,0.0,0.0,0.0,0.0,0.0,0.0,0.0,0.0,0.0,0.0,0.0,0.0,0.0,0.0,0.0,0.0,0.0,0.0,0.0,0.0,0.0,0.0,0.0,0.0,0.0,0.0,0.0,0.0,0.0,0.0,0.0,0.0,0.0,0.0,0.0,0.0,0.0,0.0,0.0,0.0,0.0,0.0,0.0,0.0,0.0,0.0,0.0,0.0,0.0,0.0,0.0,0.0,0.0,0.0,0.0,0.0,0.0,0.0,0.0,0.0,0.0,0.0,0.0,0.0,0.0,0.0,0.0,0.0,0.0,0.0,0.0,0.0,0.0,0.0,0.0,0.0,0.0,0.0,0.0,0.0,0.0,0.0,0.0,0.0,0.0,0.0,0.0,0.0,0.0,0.0,0.0,0.0,0.0,0.0,0.0,0.0,0.0,0.0,0.0,0.0,0.0,0.0,0.0,0.0,0.0,0.0,0.0,0.0,0.0,0.0,0.0,0.0,0.0,0.0,0.0,0.0,0.0,0.0,0.0,0.0,0.0,0.0,0.0,0.0,0.0,0.0,0.0,0.0,0.0,0.0,0.0,0.0,0.0,0.0,0.0,0.0,0.0,0.0,0.0,0.0,0.0,0.0,0.0,0.0,0.0,0.0,0.0,0.0,0.0,0.0,0.0,0.0,0.0,0.0,0.0,0.0,0.0,0.0,0.0,0.0,0.0,0.0,0.0,0.0,0.0,0.0,0.0,0.0,0.0,0.0,0.0,0.0,0.0,0.0,0.0,0.0,0.0,0.0,0.0,0.0,0.0,0.0,0.0,0.0,0.0,0.0,0.0,0.0,0.0,0.0,0.0,0.0,0.0,0.0,0.0,0.0,0.0,0.0,0.0,0.0,0.0,0.0,0.0,0.0,0.0,0.0,0.0,0.0,0.0,0.0,0.0,0.0,0.0,0.0,0.0,0.0,0.0,0.0,0.0,0.0,0.0,0.0,0.0,0.0,0.0,0.0,0.0,0.0,0.0,0.0,0.0,0.0,0.0,0.0,0.0,0.0,0.0,0.0,0.0,0.0,0.0,0.0,0.0,0.0,0.0,0.0,0.0,0.0,0.0,0.0,0.0,0.0,0.0,0.0,0.0,0.0,0.0,0.0,0.0,0.0,0.0,0.0,0.0,0.0,0.0,0.0,0.0,0.0,0.0,0.0,0.0,0.0,2.0133,0.0,0.0,0.0,0.0,0.0,0.0,0.0,0.0,0.0,0.0,0.0,0.0,0.0,0.0,0.0,0.0,0.0,0.0,0.0,0.0,0.0,0.0,0.0,0.0,1.0462,1.0713,1.0713,1.0713,0.0,0.0,0.0,0.0,0.0,0.0,0.0,0.0,0.0,1.0148,1.0514,1.1354,1.3119,1.5632,1.42,1.3059,1.2132,0.0,0.0,0.0,0.0,0.0,0.0,0.0,0.0,0.0,0.0,0.0,0.0,0.0,0.0,0.0,0.0,0.0,0.0,0.0,0.0,0.0,0.0,0.0,0.0,0.0,0.0,0.0,0.0,0.0,0.0,0.0,0.0,0.0,0.0,0.0,0.0,0.0,0.0,0.0,0.0,0.0,0.0,0.0,0.0,0.0,0.0,0.0,0.0,0.0,0.0,0.0,0.0,0.0,0.0,0.0,0.0,0.0,0.0,0.0,0.0,0.0,0.0,0.0,0.0,0.0,0.0,0.0,0.0,0.0,0.0,0.0,2.0419,0.0,0.0,0.0,0.0,0.0,0.0,0.0,0.0,0.0,0.0,0.0,0.0,0.0,0.0,0.0,0.0,0.0,0.0,0.0,0.0,0.0,1.0153,1.0308,1.0964,1.1466,1.1601,1.1485,1.1408,1.1408,1.0578,0.0,0.0,0.0,0.0,0.0,1.0011,1.0575,1.1683,1.4197,1.6526,1.8646,1.8779,1.8107,1.6618,1.3478,0.0,0.0,0.0,0.0,0.0,0.0,0.0,0.0,0.0,0.0,0.0,0.0,0.0,0.0,0.0,0.0,0.0,0.0,0.0,0.0,0.0,0.0,0.0,0.0,0.0,0.0,0.0,0.0,0.0,0.0,0.0,0.0,0.0,0.0,0.0,0.0,0.0,0.0,0.0,0.0,0.0,0.0,0.0,0.0,0.0,0.0,0.0,0.0,0.0,0.0,0.0,0.0,0.0,0.0,0.0,0.0,0.0,0.0,0.0,0.0,0.0,0.0,0.0,2.4193,2.4298,2.4298,2.4298,2.4568,2.4966,2.3648,2.2966,2.2644,2.0671,0.0,0.0,0.0,0.0,0.0,0.0,0.0,0.0,0.0,0.0,0.0,0.0,0.0,0.0,0.0,0.0,0.0,0.0,0.0,1.0385,1.1157,1.133,1.1697,1.2451,1.1833,1.1408,1.1408,1.0578,0.0,0.0,0.0,0.0,1.0085,1.0085,1.1253,1.3628,1.9177,2.2042,2.2395,2.3108,2.3661,2.3893,1.8924,1.6774,1.6758,0.0,0.0,0.0,0.0,0.0,0.0,0.0,0.0,0.0,0.0,0.0,0.0,0.0,0.0,0.0,0.0,0.0,0.0,0.0,0.0,0.0,0.0,0.0,0.0,0.0,0.0,0.0,0.0,0.0,0.0,0.0,0.0,0.0,0.0,0.0,0.0,0.0,0.0,0.0,0.0,0.0,2.7014,2.7014,0.0,0.0,0.0,0.0,0.0,0.0,0.0,0.0,0.0,0.0,0.0,0.0,0.0,2.4719,2.4513,2.5062,2.5334,2.5349,2.6509,2.7061,2.7061,2.7061,2.7116,2.7178,2.6974,0.0,2.3468,2.2548,0.0,0.0,0.0,0.0,0.0,0.0,0.0,0.0,0.0,0.0,0.0,0.0,0.0,0.0,0.0,0.0,0.0,0.0,0.0,0.0,0.0,1.2716,1.3943,1.4812,1.5436,1.5153,1.3695,1.2789,0.0,0.0,0.0,1.0095,1.0095,1.1548,1.4534,1.9105,2.2764,2.5055,2.6034,2.6385,2.7008,2.7709,2.5257,2.2516,1.9628,1.7819,0.0,0.0,0.0,0.0,0.0,0.0,0.0,0.0,0.0,0.0,0.0,0.0,0.0,0.0,0.0,0.0,0.0,0.0,0.0,0.0,0.0,0.0,0.0,0.0,0.0,0.0,0.0,0.0,0.0,0.0,0.0,0.0,0.0,0.0,0.0,0.0,0.0,0.0,0.0,2.5972,2.6383,2.6389,2.5695,2.4774,0.0,0.0,0.0,0.0,0.0,0.0,0.0,0.0,0.0,2.7191,2.697,2.6969,2.7253,2.7991,2.8338,2.8369,2.899,2.908,2.87,2.8333,2.7959,2.76,2.76,2.6952,2.578,2.4402,2.3167,2.2008,0.0,0.0,0.0,0.0,1.949,1.9258,0.0,0.0,0.0,0.0,0.0,0.0,0.0,0.0,0.0,0.0,0.0,0.0,1.2299,1.4733,1.6649,1.7519,1.8586,1.8179,1.5795,1.4618,1.2925,1.0545,1.0211,1.0191,1.0423,1.3869,1.8314,2.3766,2.5953,2.781,2.9297,2.9512,2.9941,3.0566,3.0194,2.7727,2.3683,2.1863,1.9871,1.7777,0.0,0.0,0.0,0.0,0.0,0.0,0.0,0.0,0.0,0.0,0.0,0.0,0.0,0.0,0.0,0.0,0.0,0.0,0.0,0.0,0.0,0.0,0.0,0.0,0.0,0.0,0.0,0.0,0.0,0.0,0.0,0.0,0.0,0.0,0.0,0.0,0.0,2.6584,2.6823,2.6514,2.6494,2.5778,0.0,0.0,0.0,0.0,0.0,0.0,2.7275,2.7469,2.806,2.9141,2.9207,2.953,3.0195,3.0585,3.0702,3.0525,3.0576,3.0249,2.9581,2.9078,2.8485,2.7869,2.7869,2.7764,2.7487,2.5889,2.4832,2.4068,2.2953,2.2087,2.1491,2.164,2.1285,2.0882,0.0,0.0,0.0,0.0,0.0,0.0,0.0,0.0,0.0,0.0,0.0,1.4149,1.5012,1.743,1.9358,2.0231,1.9632,1.8431,1.6646,1.4946,1.3196,1.1414,1.0538,1.0481,1.1311,1.7149,2.1955,2.5563,2.8964,3.1113,3.2012,3.2793,3.3164,3.3184,3.2402,3.1403,3.0192,2.8203,2.6896,2.5751,2.0546,0.0,0.0,0.0,0.0,0.0,0.0,0.0,0.0,0.0,0.0,0.0,0.0,0.0,0.0,0.0,0.0,0.0,0.0,0.0,0.0,0.0,0.0,0.0,0.0,0.0,0.0,0.0,0.0,0.0,0.0,0.0,0.0,0.0,0.0,0.0,0.0,0.0,0.0,2.8965,2.9543,0.0,0.0,0.0,0.0,2.6581,2.6666,2.7342,2.8807,2.955,3.0589,3.2033,3.2208,3.2303,3.2335,3.1813,3.1233,3.0603,3.0596,3.0242,2.9602,2.9575,2.9189,2.8547,2.8547,2.8186,2.7534,2.674,2.6048,2.5376,2.411,2.3281,2.2874,2.3384,2.3417,2.3379,0.0,0.0,0.0,1.1447,1.0944,1.0462,1.0153,1.0095,1.0095,1.0095,1.2389,1.4328,1.5191,1.8644,2.1218,2.2091,2.2902,2.2415,2.0098,1.7785,1.5731,1.3995,1.2005,1.3182,1.799,2.297,2.6949,2.9882,3.1641,3.2676,3.2988,3.3262,3.3691,3.4219,3.3899,3.3883,3.3943,3.0984,2.8611,2.6684,2.4707,2.1648,0.0,0.0,0.0,0.0,0.0,0.0,0.0,0.0,0.0,0.0,0.0,0.0,0.0,0.0,0.0,0.0,0.0,0.0,0.0,0.0,0.0,0.0,0.0,0.0,0.0,0.0,0.0,0.0,0.0,0.0,0.0,0.0,0.0,0.0,0.0,0.0,0.0,2.8403,2.9195,0.0,2.73,2.7768,2.8172,2.8172,2.9068,3.0033,3.1075,3.1369,3.1979,3.2983,3.3047,3.3085,3.3085,3.3334,3.3126,3.2478,3.2509,3.1948,3.0882,3.0411,2.9847,2.9219,2.8786,2.871,2.8831,2.8136,2.7467,2.6874,2.6863,2.6451,2.5927,2.65,2.6372,2.5894,0.0,0.0,0.0,1.0964,1.0481,1.0095,1.0095,1.0095,1.0419,1.1307,1.3683,1.5875,1.7322,2.0869,2.3357,2.3921,2.5292,2.4784,2.1572,1.9746,1.7592,1.4941,1.4286,1.7133,2.3851,2.7083,3.0135,3.3047,3.3574,3.3984,3.4277,3.4277,3.459,3.5137,3.509,3.5424,3.5859,3.3531,3.1555,2.9856,2.8596,2.5925,2.2481,0.0,0.0,0.0,0.0,0.0,0.0,0.0,0.0,0.0,0.0,0.0,0.0,0.0,0.0,0.0,0.0,0.0,0.0,0.0,0.0,0.0,0.0,0.0,0.0,0.0,0.0,0.0,0.0,0.0,0.0,0.0,0.0,0.0,0.0,0.0,2.9572,2.8143,2.9369,2.9618,2.7794,2.8904,2.9728,2.9728,3.0879,3.1775,3.2276,3.2767,3.3264,3.3761,3.4004,3.414,3.414,3.4641,3.4527,3.3872,3.3909,3.3243,3.192,3.1433,3.0727,2.9892,2.9671,2.9594,2.9578,2.934,2.8859,2.8319,2.8755,2.864,2.8262,2.8658,2.8455,2.7898,0.0,0.0,1.0095,1.0095,1.0095,1.0095,1.0095,1.0095,1.1045,1.3684,1.6313,1.8949,2.1597,2.4218,2.5781,2.5781,2.6543,2.5212,2.0902,2.0553,1.8571,1.4246,1.7521,2.2265,2.8258,2.9252,3.1364,3.4746,3.4746,3.5176,3.5996,3.5996,3.5996,3.5996,3.5996,3.5996,3.5996,3.5996,3.5996,3.5683,3.2174,3.0716,2.9983,0.0,0.0,0.0,0.0,0.0,0.0,0.0,0.0,0.0,0.0,0.0,0.0,0.0,0.0,0.0,0.0,0.0,0.0,0.0,0.0,0.0,0.0,0.0,0.0,0.0,0.0,0.0,0.0,0.0,0.0,0.0,0.0,0.0,2.9172,2.9695,2.9729,2.8572,3.043,3.12,2.9636,3.0511,3.1207,3.1224,3.1904,3.2327,3.2361,3.3721,3.4516,3.4533,3.5222,3.56,3.56,3.56,3.5253,3.46,3.46,3.3912,3.2627,3.2658,3.1907,3.0625,3.1284,3.0865,2.9758,3.0313,3.0193,2.9696,2.9638,2.9636,2.9623,2.9653,2.9526,2.9301,1.0462,1.0268,1.0095,1.0095,1.0095,1.0095,1.0095,1.0095,1.1263,1.4528,1.7213,2.0083,2.3336,2.6015,2.7598,2.7598,2.7793,2.6639,2.3521,2.1558,1.966,1.7743,2.4044,2.8385,3.0072,3.2811,3.4687,3.5644,3.5644,3.5762,3.5996,3.5996,3.5996,3.5996,3.5996,3.5996,3.5996,3.5996,3.5996,3.5918,3.4921,3.3289,3.1224,0.0,0.0,0.0,0.0,0.0,0.0,0.0,0.0,0.0,0.0,0.0,0.0,0.0,0.0,0.0,0.0,0.0,0.0,0.0,0.0,0.0,0.0,0.0,0.0,0.0,0.0,0.0,0.0,0.0,0.0,0.0,0.0,3.0589,3.0342,3.1189,3.1728,3.1375,3.1603,3.1625,3.1182,3.1181,3.142,3.1955,3.2192,3.2767,3.384,3.428,3.4742,3.5289,3.5481,3.56,3.56,3.56,3.5253,3.46,3.46,3.4161,3.3342,3.3892,3.3587,3.27,3.297,3.284,3.2377,3.1555,3.1405,3.1614,3.0627,3.0253,3.0313,3.0792,3.0557,3.0023,1.0523,1.0267,1.0063,1.0063,1.0081,1.0095,1.0095,1.0404,1.2167,1.6382,1.8564,2.1352,2.5565,2.7383,2.8301,2.8301,2.7636,2.5953,2.2953,2.0981,2.1147,2.3888,2.8364,3.1479,3.2947,3.4961,3.5996,3.5996,3.5996,3.5996,3.5996,3.5996,3.5996,3.5996,3.5996,3.5996,3.5996,3.5996,3.5996,3.5996,3.5996,3.5017,3.3382,3.1816,3.0233,2.8624,2.7012,2.6375,2.612,2.493,0.0,0.0,0.0,0.0,0.0,0.0,0.0,0.0,0.0,0.0,0.0,0.0,0.0,0.0,0.0,0.0,0.0,0.0,0.0,0.0,0.0,0.0,0.0,0.0,3.1013,3.1866,3.2028,3.2133,3.2213,3.2213,3.1815,3.1554,3.1554,3.1631,3.1843,3.2276,3.2869,3.3603,3.4449,3.4793,3.5154,3.5583,3.56,3.56,3.56,3.56,3.5576,3.5518,3.5518,3.5157,3.4478,3.4907,3.4528,3.3508,3.3887,3.3833,3.344,3.2662,3.2407,0.0,0.0,0.0,0.0,0.0,3.1205,3.0807,1.1243,1.0716,1.0225,1.0132,1.0249,1.0319,1.0225,1.0958,1.3418,1.8768,2.0137,2.2631,2.7986,2.8553,2.8553,2.8553,2.6887,2.4436,2.1143,2.0604,2.3526,3.0499,3.1185,3.2829,3.5937,3.5996,3.5996,3.5996,3.5996,3.5996,3.5996,3.5996,3.5996,3.5996,3.5996,3.5996,3.5996,3.5996,3.5996,3.5996,3.5996,3.5996,3.5742,3.3412,3.2549,3.2211,2.9773,2.8883,2.8797,2.8335,0.0,0.0,0.0,0.0,0.0,0.0,0.0,0.0,0.0,0.0,0.0,0.0,0.0,0.0,0.0,0.0,0.0,0.0,0.0,0.0,0.0,0.0,0.0,0.0,3.2438,3.3383,3.3741,3.2693,3.1915,3.2004,3.1707,3.1468,3.1468,3.2049,3.2462,3.2547,3.3755,3.4533,3.4624,0.0,0.0,0.0,0.0,3.5633,3.5718,3.565,3.5998,3.6797,3.6698,3.6328,3.5696,3.576,3.5055,3.3772,3.4434,3.4357,3.3709,3.3559,3.3066,3.2333,3.1735,3.1511,3.1511,3.1511,3.1511,3.1511,1.2165,1.1948,1.1644,1.0994,1.1433,1.1666,1.1016,1.1597,1.4261,2.0267,2.1196,2.357,2.9507,3.0156,3.0156,3.0156,2.7962,2.573,2.3696,2.6638,2.9169,3.0733,3.3494,3.5312,3.5996,3.5996,3.5996,3.5996,3.5996,3.5996,3.5996,3.5996,3.5996,3.5996,3.5996,3.5996,3.5996,3.5996,3.5996,3.5996,3.5996,3.5996,3.5937,3.5449,3.5253,3.5174,3.4576,3.4307,3.3953,3.2347,3.1194,3.0155,2.8624,2.7433,0.0,0.0,0.0,0.0,0.0,0.0,0.0,0.0,0.0,0.0,0.0,0.0,0.0,0.0,0.0,0.0,0.0,0.0,0.0,3.136,3.269,3.3707,3.3793,3.2981,3.2622,3.3335,3.3255,3.3134,3.3134,3.3162,3.3423,3.4026,3.4347,3.4759,3.5357,3.5515,3.56,3.56,3.56,3.5915,3.6564,3.5921,3.5985,3.6708,0.0,0.0,3.5646,3.6246,3.6005,3.5139,3.5876,3.578,3.504,3.3948,3.2781,3.1675,3.1555,3.1511,3.1511,3.1511,3.1511,3.1511,1.3473,1.2772,1.2122,1.1713,1.2014,1.2155,1.1766,1.2407,1.4671,1.9463,2.0488,2.2418,2.6773,2.7249,2.6927,2.6114,2.4513,2.3905,2.4742,2.7665,3.052,3.3148,3.4921,3.5846,3.5846,3.5846,3.5846,3.5846,3.5846,3.5846,3.5846,3.5922,3.5902,3.5866,3.6331,3.6572,3.6632,3.7021,3.7196,3.7196,3.7196,3.6913,3.6467,3.6099,3.5948,3.5924,3.5805,3.571,3.5506,3.4487,3.384,3.3297,3.2357,3.1118,2.9558,0.0,0.0,0.0,0.0,0.0,0.0,0.0,0.0,0.0,0.0,0.0,0.0,0.0,0.0,2.9244,0.0,0.0,3.1666,3.2473,3.3109,3.3501,3.3501,3.3251,3.3217,3.3641,3.3257,3.3096,3.3458,3.3775,3.41,3.4466,3.521,3.5802,3.618,3.6541,3.6761,3.6761,3.6761,3.693,3.7359,3.6559,3.6522,3.7229,3.6496,3.6133,3.6108,3.6468,3.6225,3.5519,3.5886,3.565,3.4907,3.3559,3.2602,3.1989,3.1989,3.1795,3.1511,3.1511,3.1705,3.1989,1.449,1.3492,1.2609,1.2444,1.2588,1.2676,1.2514,1.3213,1.4954,1.8226,1.9418,2.0881,2.3362,2.3773,2.3075,2.1134,2.1446,2.2685,2.4908,2.7679,3.1097,3.5275,3.5629,3.5705,3.5705,3.5705,3.5705,3.5705,3.5705,3.5705,3.5707,3.5807,3.5803,3.5728,3.6485,3.686,3.6943,3.7602,3.7874,3.7874,3.7874,3.7411,3.6673,3.6066,3.5858,3.5835,3.5653,3.5608,3.5587,3.5522,3.55,3.55,3.55,3.4428,3.2592,2.9692,2.8715,0.0,0.0,0.0,0.0,0.0,0.0,0.0,0.0,0.0,2.7983,2.9592,2.9922,3.0332,3.1629,3.1874,3.229,3.3587,3.3657,3.3545,3.3545,3.3799,3.4002,3.4032,3.3352,3.3097,3.3688,3.4323,3.4776,3.4939,3.6101,3.6863,3.7004,3.7584,3.7893,3.7893,3.7893,3.7961,3.8113,3.7163,3.7065,3.7785,3.6901,3.6433,3.6384,3.6384,3.6054,3.5504,3.5504,3.504,3.4233,3.3275,3.2811,3.2691,3.2691,3.2362,3.1884,3.1884,3.2228,3.2691,1.449,1.4355,1.4017,1.3296,1.3774,1.4018,1.3295,1.3879,1.5382,1.8164,1.9238,2.048,2.2438,2.3286,2.2456,1.929,2.3834,2.61,2.4271,3.0087,3.3913,3.4599,3.5319,3.5705,3.5705,3.5705,3.5705,3.5705,3.5705,3.5705,3.5705,3.5715,3.5715,3.5705,3.5812,3.5856,3.5876,3.5953,3.5992,3.5992,3.5992,3.5947,3.5833,3.5689,3.5661,3.5707,3.5623,3.5608,3.5587,3.5522,3.55,3.55,3.55,3.5355,3.445,3.0741,2.9162,2.7939,2.4894,2.5583,0.0,2.9106,2.931,2.9953,0.0,0.0,3.1317,3.2926,3.3256,3.333,3.3495,3.3532,3.3587,3.377,3.4353,3.4795,3.4795,3.5118,3.5433,3.5615,3.5184,3.4914,3.4983,3.5292,3.5763,3.6479,3.6694,3.7088,3.7736,3.7872,3.7893,3.7893,3.7893,3.821,3.887,3.7417,3.7074,3.778,3.6338,3.5625,3.5619,3.5619,3.557,3.5504,3.5504,3.4786,3.3664,3.4084,3.3934,3.338,3.338,3.3335,3.3275,3.3275,3.332,3.338,1.5197,1.5576,1.5793,1.5447,1.5288,1.4921,1.4114,1.4683,1.5591,1.6725,1.7167,1.7671,1.8462,1.8012,1.7458,1.6985,2.1223,2.4093,2.4498,2.9712,3.3026,3.3553,3.4385,3.483,3.483,3.5325,3.5574,3.5574,3.5574,3.5574,3.5576,3.5618,3.5611,3.5615,3.614,3.639,3.6438,3.694,3.7152,3.7152,3.7152,3.6794,3.6281,3.6253,3.5962,3.545,3.4405,3.3951,0.0,3.3965,3.3915,3.4012,3.5149,3.4405,3.268,3.0451,2.9237,2.8665,2.9005,0.0,0.0,0.0,3.122,3.1379,3.2712,3.2181,3.1849,3.3476,3.3807,3.3807,3.3807,3.3807,3.3807,0.0,3.4075,3.4264,3.4204,3.5101,3.5764,3.5728,3.633,3.6608,3.6176,3.6231,3.662,3.7381,3.7833,3.8205,3.8514,3.8949,3.9186,3.9186,3.9186,3.9339,3.9643,3.8114,3.7489,3.7793,3.6243,3.5504,3.5504,3.5504,3.5504,3.5489,3.5085,3.4607,3.4069,3.3964,3.3979,3.4084,3.4084,3.4323,3.4577,3.3784,3.3754,3.4084,1.5695,1.6346,1.6905,1.6905,1.6603,1.6096,1.5279,1.5472,1.5695,1.5695,1.5695,1.5695,1.5695,1.4468,1.4193,1.5588,1.8827,2.1829,2.4305,2.8465,3.1308,3.2332,3.3201,3.3645,3.3645,3.4551,3.5033,3.5033,3.5272,3.5383,3.5387,3.536,3.5372,3.5429,3.6106,3.6445,3.6555,3.719,3.7461,3.7461,3.7461,3.7015,3.6365,3.6365,3.5671,3.4506,3.3019,3.2398,3.2182,3.1586,3.1439,3.1737,3.3155,3.238,3.0692,2.9409,2.8244,2.7909,3.0383,0.0,0.0,3.2041,3.2692,3.2816,3.2523,3.2242,3.2382,3.355,3.3807,3.3807,3.3807,3.3807,3.3862,3.4094,3.4206,3.4308,3.4447,3.5668,3.6439,3.6159,3.7291,3.7908,3.745,3.7224,3.741,3.8159,3.87,3.9102,3.9288,3.9808,4.0096,4.0096,3.9872,3.9769,3.9769,3.8232,3.7566,3.7726,3.6407,3.5774,3.5774,3.5594,3.54,3.5205,3.4922,3.4667,3.4488,3.4188,3.4337,3.4772,3.4772,3.507,3.5385,3.4412,3.4368,3.4772,1.5695,1.6346,1.6905,1.6905,1.7539,1.7759,1.6945,1.6184,1.5695,1.5695,1.5695,1.5695,1.5695,1.4955,1.4808,1.5622,1.8174,2.0773,2.3184,2.6706,2.9405,3.0989,3.1838,3.2263,3.2263,3.3316,3.3856,3.3856,3.4706,3.5109,3.5105,3.4846,3.486,3.5113,3.5136,3.5296,3.5549,3.5568,3.5587,3.5587,3.5587,3.5565,3.5538,3.5538,3.4344,3.2573,3.1745,3.1446,3.1038,2.8439,2.8074,2.8726,2.8791,2.9291,2.9477,2.7625,2.5778,2.4759,2.6655,0.0,3.0183,3.181,3.3426,3.4547,3.4195,3.3925,3.3733,3.3788,3.3807,3.3807,3.3807,3.3807,3.4057,3.4839,3.5236,3.5722,3.6508,3.7539,3.8031,3.7501,3.8118,3.8671,0.0,3.8294,3.8176,3.8916,3.9,3.9305,4.0028,4.0096,4.0096,4.0096,3.9342,3.8935,3.8935,3.7408,3.6971,3.7591,3.6831,3.6479,3.6449,3.5804,3.5145,3.4563,3.519,3.51,3.4563,3.5175,3.5459,3.5474,3.5474,3.5489,3.5504,3.5459,3.5459,3.5474,1.6603,1.7479,1.8292,1.8292,1.8376,1.8346,1.8068,1.7038,1.6087,1.5508,1.5771,0.0,0.0,0.0,0.0,0.0,1.8745,2.0539,2.1874,2.5429,2.7717,2.8268,3.0285,3.1391,3.1391,3.2279,3.274,3.274,3.3035,3.3443,3.3979,3.3876,3.4192,3.4827,3.4827,3.487,3.4967,3.4967,3.4967,3.4967,3.4967,3.4967,3.4858,3.3728,3.2566,3.1122,0.0,2.7233,2.7497,2.6187,2.5834,2.6162,2.7415,2.7127,2.6093,2.4749,2.5166,2.6464,2.8344,0.0,3.2041,3.3705,3.4415,3.4603,3.4288,3.3999,3.3807,3.3807,3.3807,3.3807,3.3807,3.4241,3.4674,3.4961,3.5283,3.5833,3.6836,3.7386,3.7902,3.8441,3.915,0.0,0.0,0.0,0.0,3.966,3.9728,3.9829,4.0096,3.9597,3.9302,3.9302,3.8583,3.8373,3.8829,3.779,3.7606,3.8239,3.7057,3.6269,3.5833,3.5609,3.5385,3.5175,3.54,3.537,3.5175,3.5415,3.5504,3.5504,3.5504,3.5504,3.5504,3.5504,3.5504,3.5504,1.7653,1.8501,1.9245,1.9245,1.9115,0.0,0.0,0.0,0.0,0.0,0.0,0.0,0.0,0.0,0.0,0.0,0.0,1.9713,2.1096,2.3451,2.506,2.5623,2.7333,2.8275,2.8275,2.9166,2.9762,3.0018,3.0714,3.1465,3.2228,3.2534,3.3034,3.3662,3.3662,3.3883,3.4237,3.4237,3.4237,3.4218,3.3921,3.3624,3.3233,3.1853,3.0593,0.0,2.6124,2.4922,2.4594,2.3322,2.3203,2.3818,2.5012,2.4974,2.4458,2.4431,2.5652,2.7555,3.0106,3.1676,3.2989,3.4552,3.4836,3.4596,3.4165,3.391,3.3807,3.3807,3.3807,3.3807,3.3807,3.4461,3.504,3.5159,3.5674,3.6248,3.679,3.7268,3.7837,3.8517,3.9254,3.9808,0.0,0.0,0.0,4.0062,4.0096,4.0096,4.0096,3.961,3.9312,3.9259,3.8549,3.8221,3.838,3.7606,3.742,3.7831,3.6923,3.6267,3.5848,3.5609,3.5504,3.5504,3.5504,3.5504,3.5504,3.5504,3.5504,3.5534,3.5759,3.5863,3.5878,3.6103,3.6193,3.6098,1.8735,1.9306,1.9671,0.0,0.0,0.0,0.0,0.0,0.0,0.0,0.0,0.0,0.0,0.0,0.0,0.0,0.0,0.0,2.0684,2.0936,2.1656,2.3191,2.3356,2.3397,2.3397,2.4405,2.526,2.5967,2.7855,2.9158,2.9887,3.0754,3.1328,3.1607,3.1618,3.2195,3.3151,3.3161,3.3166,3.3109,3.235,3.159,3.081,2.9952,2.8503,2.6817,2.5965,2.4483,2.2588,2.0211,2.0558,2.1971,2.2099,2.3203,2.4787,2.6613,2.7202,2.8057,3.163,3.2653,3.3045,3.4372,3.4684,3.4526,3.3928,3.3807,3.3807,3.3807,3.3775,3.3787,0.0,0.0,3.51,3.5435,3.6372,3.6911,3.6519,3.7262,3.786,0.0,0.0,0.0,0.0,0.0,0.0,4.0163,0.0,4.01,4.0096,4.0024,3.9902,3.9745,3.9033,3.8273,3.7559,3.6876,3.6538,3.6508,3.6508,3.6493,3.6434,3.5789,3.5504,3.5504,3.5504,3.5534,3.5549,3.5549,3.5579,3.5669,3.6314,3.6553,3.6628,3.7195,3.737,3.7092,0.0,0.0,0.0,0.0,0.0,0.0,0.0,0.0,0.0,0.0,0.0,0.0,0.0,0.0,0.0,0.0,0.0,0.0,1.8577,1.9931,2.0885,2.1294,2.265,2.3397,2.3397,2.3671,2.39,2.4081,2.5151,2.6051,2.6837,2.7621,2.8355,2.905,2.9246,2.9497,2.9763,3.0022,3.0119,3.0095,2.9891,2.9687,2.936,2.7955,2.6748,2.5613,2.4211,2.3018,2.201,0.0,0.0,0.0,2.6239,2.7149,2.77,2.8768,3.0083,3.1374,3.2344,3.3505,3.4509,3.4669,3.4518,3.423,3.387,3.3807,3.3807,3.3807,3.3557,3.3433,0.0,0.0,0.0,3.5429,3.61,0.0,3.7168,3.7131,0.0,3.8582,0.0,4.01,4.0849,4.0916,0.0,0.0,4.0405,4.0099,4.0103,3.9001,3.81,3.7455,3.6723,3.6491,3.678,3.7044,3.6941,3.6508,3.6508,3.6254,3.5744,3.5579,3.5504,3.5504,3.5504,3.5789,3.6254,3.6254,3.6507,3.6924,3.7105,3.718,3.7195,3.7327,3.6923,3.6179,0.0,0.0,0.0,0.0,0.0,0.0,0.0,0.0,0.0,0.0,0.0,0.0,0.0,0.0,0.0,0.0,0.0,0.0,0.0,1.879,1.9378,1.9378,2.039,2.0939,2.0939,2.0939,2.126,2.1919,2.2816,2.3852,2.497,2.5849,2.6525,2.7008,2.7154,2.7428,2.7783,2.81,2.825,0.0,0.0,2.7745,2.7273,2.602,2.5278,2.4768,2.3859,2.3694,0.0,0.0,0.0,2.6487,2.8227,2.8774,2.9036,3.0298,0.0,3.2441,3.3292,3.4208,3.4846,3.4542,3.4345,3.4036,3.3427,3.3268,3.3268,3.3268,3.3095,0.0,3.3693,0.0,0.0,0.0,0.0,0.0,3.6708,3.7013,3.7584,0.0,3.9169,0.0,4.0658,4.0726,4.0715,0.0,4.0323,3.9941,3.9586,3.8753,3.7903,3.708,3.664,3.6451,3.6493,3.6552,3.6402,3.6058,3.6058,3.6013,3.5938,3.5938,3.6088,3.6342,0.0,3.6552,3.6881,3.6881,3.709,3.7434,3.7719,3.7838,3.7868,3.8165,3.792,3.7339,0.0,0.0,0.0,0.0,0.0,0.0,0.0,0.0,0.0,1.7438,1.7105,1.7258,0.0,0.0,0.0,0.0,0.0,0.0,0.0,0.0,1.7834,1.7935,1.7958,1.7986,1.8087,1.8087,1.8729,2.0002,2.1094,2.2322,2.3644,2.4684,2.5155,2.5162,2.52,2.56,2.6284,2.6608,2.6766,2.6718,2.6308,2.5764,2.5104,0.0,2.4161,2.4194,2.4194,2.5266,0.0,0.0,2.9042,2.8795,2.9538,2.9768,3.0083,3.1701,3.2187,3.2558,3.4242,3.4669,3.4561,3.4264,3.4257,3.4,3.2856,3.2674,3.2699,3.2479,0.0,3.2665,3.3414,3.4765,3.5529,3.4739,0.0,3.7435,3.5977,3.698,3.7927,3.8041,3.87,3.944,4.0168,4.0248,4.0258,4.0243,4.0059,3.9592,3.878,3.864,3.8189,3.7341,3.7309,3.7004,3.6374,3.5878,3.5639,3.5639,3.5714,3.6058,3.6628,3.6628,3.6896,3.7387,3.7387,3.7464,3.7522,3.7522,3.7599,3.7716,3.8302,3.8527,3.8584,3.9023,3.9104,3.8819,0.0,0.0,0.0,0.0,0.0,0.0,0.0,0.0,0.0,0.0,1.8392,1.8144,0.0,0.0,0.0,0.0,0.0,0.0,0.0,0.0,0.0,1.8674,1.8707,1.8989,1.9619,1.9619,1.9731,2.0002,2.0866,2.1422,2.1701,2.2504,2.2866,2.288,2.3098,2.3286,2.3423,2.3766,2.3904,2.3904,2.3815,2.3873,2.3976,2.3844,0.0,0.0,2.4194,0.0,2.7149,2.8589,3.0011,3.1462,3.3183,3.3718,3.3785,3.409,3.4199,3.4266,3.4608,3.4502,3.4264,3.4205,3.4537,3.4455,3.2951,3.3103,0.0,0.0,3.1555,3.1699,3.2202,3.2693,3.3258,3.4064,0.0,0.0,0.0,0.0,3.8125,0.0,0.0,0.0,0.0,0.0,0.0,0.0,3.9827,3.8756,3.7946,3.7322,3.6646,3.5899,3.5866,3.58,3.5669,3.6103,3.6329,3.6327,3.6836,3.7135,3.724,3.724,3.73,3.7387,3.7387,0.0,3.8245,3.8245,3.8556,3.9062,3.9182,3.9227,3.9137,3.8372,3.7515,3.6604,0.0,0.0,0.0,0.0,0.0,0.0,0.0,1.9147,1.9452,2.0995,2.0572,2.0116,2.0008,2.0002,2.0002,0.0,0.0,0.0,0.0,0.0,0.0,0.0,0.0,0.0,1.9985,2.0002,0.0,0.0,0.0,2.1393,2.1786,0.0,0.0,2.231,2.2422,2.2487,2.252,2.3002,2.3195,2.3224,2.3577,2.3816,2.3966,0.0,0.0,0.0,0.0,0.0,0.0,2.7818,2.9745,3.2445,3.38,3.4238,3.4238,3.4238,3.4238,3.4238,3.4238,3.4408,3.4615,3.4615,3.5153,3.514,3.306,0.0,0.0,0.0,3.1052,3.1283,3.2112,0.0,0.0,3.3469,0.0,0.0,0.0,0.0,0.0,0.0,0.0,0.0,0.0,0.0,0.0,3.9454,3.8678,3.8081,3.7783,3.7001,3.6377,3.6029,3.6327,3.6492,3.6492,3.6806,3.6971,3.6971,3.727,3.7584,3.7913,3.7913,3.8123,3.8434,3.8434,3.8614,3.8931,3.8931,3.9107,3.9406,3.9406,3.9406,3.9337,3.8819,3.7942,3.6871,0.0,0.0,0.0,0.0,0.0,0.0,0.0,1.9997,2.0382,2.2489,2.2777,2.2252,2.0876,2.0734,2.0667,0.0,0.0,0.0,0.0,0.0,0.0,0.0,0.0,0.0,0.0,0.0,0.0,0.0,0.0,0.0,0.0,0.0,0.0,0.0,0.0,0.0,2.2338,2.2811,2.3045,0.0,0.0,2.4062,0.0,0.0,0.0,0.0,0.0,0.0,0.0,0.0,2.9166,3.1894,3.2943,3.3403,3.3532,3.3532,3.366,3.3844,3.4002,3.4644,3.5279,3.5279,3.591,3.5848,3.3108,3.2637,0.0,0.0,3.0478,3.084,3.1897,0.0,3.315,0.0,3.4729,3.6017,0.0,0.0,0.0,0.0,0.0,0.0,0.0,0.0,0.0,3.8289,3.7978,3.7779,3.7722,3.7048,3.6686,3.6686,3.715,3.7387,3.7387,3.7539,3.7614,3.7629,3.7764,3.8108,3.8601,3.8601,3.8901,3.9406,3.9406,3.9406,3.9406,3.9406,3.9406,3.9406,3.9406,3.9406,3.9352,3.9036,3.8366,3.7494,0.0,0.0,0.0,0.0,0.0,0.0,0.0,2.2033,2.2547,2.4085,2.4305,2.4,2.318,2.3088,2.2818,0.0,0.0,0.0,0.0,0.0,0.0,0.0,0.0,0.0,0.0,0.0,0.0,0.0,0.0,0.0,0.0,0.0,0.0,0.0,0.0,0.0,0.0,2.2356,0.0,0.0,0.0,0.0,0.0,0.0,0.0,0.0,0.0,0.0,0.0,0.0,0.0,2.9119,3.1022,3.2118,3.2711,3.2711,0.0,0.0,3.4692,3.5525,3.6174,3.6174,3.6787,3.6465,3.2947,0.0,0.0,2.9731,2.9409,2.9866,3.0621,0.0,0.0,0.0,0.0,3.5384,0.0,0.0,0.0,0.0,0.0,0.0,0.0,0.0,0.0,3.9713,3.8964,3.8193,3.7481,3.737,3.733,3.733,3.7375,3.7387,3.7387,3.8003,3.8302,3.832,3.8931,3.9257,3.9316,3.9316,3.9346,3.9406,3.9406,3.9406,0.0,3.9406,3.9406,3.9406,3.9406,3.9406,3.9233,3.7827,3.7249,3.6947,0.0,0.0,0.0,0.0,0.0,0.0,2.2134,2.1921,2.2334,2.4254,2.4498,2.4389,2.4085,2.4068,2.3586,2.2398,0.0,0.0,0.0,0.0,0.0,0.0,0.0,0.0,0.0,0.0,0.0,0.0,0.0,0.0,0.0,0.0,0.0,0.0,0.0,0.0,0.0,0.0,0.0,0.0,0.0,0.0,0.0,0.0,0.0,0.0,0.0,0.0,0.0,0.0,0.0,0.0,2.8684,2.9451,0.0,0.0,3.3403,3.3828,3.5365,3.6395,3.7008,3.7008,3.7055,3.6326,3.3465,0.0,0.0,2.9709,2.9414,2.9791,3.0775,3.1096,3.1539,3.2571,3.3738,0.0,3.6321,0.0,0.0,0.0,0.0,0.0,0.0,0.0,3.9644,3.9027,3.8694,3.8532,3.8601,3.8227,3.8003,3.8003,3.8392,3.8599,3.8599,3.8868,3.9005,3.902,3.9272,3.9406,3.9406,3.9406,3.9406,3.9406,3.9406,3.9406,0.0,3.9406,3.9631,4.0008,4.0008,4.0247,4.0439,3.9102,3.822,3.7504,0.0,0.0,0.0,0.0,0.0,2.1776,2.2506,2.2175,2.2494,2.4271,2.4498,2.4498,2.4498,2.4312,2.3763,2.2726,2.2438,0.0,0.0,0.0,0.0,0.0,0.0,0.0,0.0,0.0,2.2296,2.2296,2.2523,0.0,0.0,0.0,0.0,0.0,0.0,0.0,0.0,0.0,0.0,0.0,0.0,0.0,0.0,0.0,0.0,0.0,0.0,0.0,0.0,0.0,0.0,0.0,2.7529,2.79,2.9424,0.0,3.3109,3.3742,3.5747,3.7063,3.7852,3.7852,3.733,3.6204,0.0,0.0,0.0,2.9937,2.9686,3.0,3.1012,3.1386,3.1775,3.2503,3.3687,3.4844,3.5825,3.7973,0.0,0.0,0.0,4.143,0.0,4.0199,3.9495,3.8755,3.8691,3.8901,3.9376,3.896,3.8691,3.8691,3.9152,3.9406,3.9406,3.9406,3.9406,3.9406,3.9406,3.9406,3.9406,3.9406,3.9511,3.969,3.969,3.981,0.0,3.9993,4.0277,4.0696,4.0696,4.0762,4.0762,3.9757,3.8706,3.7656,0.0,0.0,0.0,0.0,0.0,0.0,2.3282,2.3376,2.3654,2.4406,2.4498,2.4498,2.4498,2.3848,2.3417,2.3383,2.2726,0.0,0.0,0.0,0.0,0.0,0.0,0.0,0.0,0.0,2.2296,2.2296,2.3038,2.3021,2.232,2.3054,0.0,0.0,0.0,0.0,0.0,0.0,0.0,0.0,0.0,0.0,0.0,0.0,0.0,0.0,0.0,0.0,0.0,0.0,0.0,0.0,0.0,2.814,2.873,3.0431,3.2065,3.3742,3.5747,3.7477,3.8689,3.8689,3.7741,3.6282,0.0,0.0,3.1554,3.0349,3.0091,3.0328,3.1065,3.1792,3.252,3.3271,3.4015,3.5041,3.6575,3.7432,0.0,0.0,0.0,4.0072,3.9943,3.9739,3.9537,3.9403,3.9391,0.0,3.9406,3.9391,3.9391,3.9391,3.9406,3.9406,3.9406,3.9406,3.9406,3.9406,3.9406,3.9406,3.9406,3.9406,3.975,4.0382,4.0382,4.0775,0.0,4.1373,4.1388,4.1388,4.1388,4.066,3.9553,3.9082,3.8131,3.7039,0.0,0.0,0.0,0.0,0.0,0.0,0.0,2.2641,2.2919,2.3654,2.3755,2.3949,2.4448,2.384,2.3603,2.4118,2.3021,0.0,0.0,0.0,0.0,0.0,0.0,0.0,0.0,2.2296,2.254,2.3054,2.3291,2.3536,2.3806,2.3536,2.3282,2.3038,0.0,0.0,0.0,0.0,0.0,0.0,0.0,0.0,0.0,0.0,0.0,0.0,0.0,0.0,0.0,0.0,0.0,0.0,0.0,0.0,0.0,3.0387,3.1515,3.2777,3.4803,3.5708,3.6094,3.6094,3.5189,3.397,3.2766,0.0,3.0562,3.0187,3.0497,3.1082,3.1809,3.2554,3.3457,3.4698,3.5103,3.578,0.0,0.0,0.0,3.898,3.9914,4.0587,0.0,0.0,4.0079,3.9448,3.9406,3.9406,3.9406,3.9406,3.9406,3.9406,3.9406,3.9406,3.9406,3.9406,3.9631,4.0064,4.0064,4.0322,4.0775,4.0775,4.0876,4.1089,4.1089,4.1209,4.1403,4.1403,4.1172,4.0858,4.0858,4.0419,3.9696,3.8707,3.8122,3.7644,0.0,0.0,0.0,0.0,0.0,0.0,0.0,2.2296,2.2455,2.2919,2.2987,2.3274,2.4,2.3434,2.3393,2.4406,2.3417,0.0,0.0,0.0,0.0,0.0,0.0,0.0,2.2296,2.2296,2.2801,2.3823,2.4086,2.4458,2.4906,2.4737,2.4348,2.3789,2.3332,2.2987,0.0,0.0,0.0,0.0,0.0,0.0,2.8062,0.0,0.0,0.0,0.0,0.0,0.0,0.0,0.0,0.0,0.0,0.0,0.0,0.0,3.1037,3.2038,3.3935,3.4667,3.4906,3.4906,3.3978,3.2975,3.2471,0.0,3.0531,3.0531,3.1106,3.1769,3.2226,3.3129,3.4117,3.5036,3.5425,3.6152,0.0,0.0,0.0,3.9237,0.0,0.0,0.0,4.0242,3.9973,3.9427,3.9631,3.9765,3.9765,4.0023,4.0157,4.0157,3.99,3.9885,4.0157,4.0157,4.0367,4.0771,4.0771,4.1014,4.1403,4.1403,4.1538,4.1777,4.1777,4.1912,0.0,4.2117,4.1922,4.1589,4.1154,4.0534,3.9746,3.8559,3.7825,3.7368,0.0,0.0,0.0,0.0,0.0,0.0,0.0,2.2296,2.2296,2.2296,2.2296,2.2557,2.3241,2.2709,2.2885,2.4372,0.0,0.0,0.0,0.0,0.0,0.0,0.0,0.0,2.2388,2.2388,2.3122,2.4668,2.5338,2.5736,2.5854,2.6488,2.6023,2.4643,2.4592,2.4177,2.3606,0.0,0.0,0.0,0.0,2.8117,0.0,0.0,0.0,0.0,0.0,0.0,0.0,0.0,0.0,0.0,0.0,0.0,0.0,0.0,0.0,0.0,0.0,3.4067,3.465,3.465,3.3791,3.2954,3.2954,3.2048,0.0,3.1268,3.186,3.2412,3.2513,3.3654,3.4607,3.472,3.5323,3.6281,0.0,3.7893,0.0,0.0,3.9718,0.0,3.9531,3.9496,3.9466,3.9466,4.0098,4.0472,4.0472,4.1074,4.1418,4.1463,4.0879,4.0834,4.1388,4.1403,4.1418,4.1463,4.1463,4.1493,4.1538,4.1538,4.1867,0.0,4.247,4.2776,4.329,4.329,4.321,4.2941,4.1891,4.0746,3.9527,3.8379,3.7299,3.6405,0.0,0.0,0.0,0.0,0.0,0.0,0.0,0.0,0.0,0.0,2.2296,2.2364,2.254,2.2398,2.2885,0.0,0.0,0.0,0.0,0.0,0.0,0.0,0.0,0.0,2.3122,2.3139,2.4137,2.6175,2.6361,2.7055,2.8188,2.7748,2.7063,2.6158,2.5592,2.5078,2.4693,2.5655,0.0,0.0,2.8407,2.8774,0.0,0.0,0.0,0.0,2.7874,2.8487,0.0,0.0,0.0,0.0,0.0,0.0,0.0,0.0,3.1055,3.1283,3.168,0.0,3.2067,3.2067,3.1859,3.1643,0.0,3.1417,3.1369,3.1928,3.2638,3.3491,3.4613,3.5103,3.5729,3.6907,3.7251,3.7638,3.8473,0.0,0.0,4.0591,3.997,3.9262,3.8736,3.958,4.0172,4.0172,4.0786,4.1164,4.1164,4.1313,4.1628,4.2156,4.2021,4.1747,4.1403,4.1403,4.1658,4.2171,4.2171,4.2406,4.2846,4.2846,4.2936,4.3085,4.3085,4.3175,4.329,4.329,4.2263,4.0675,4.0404,3.9028,3.7186,3.6907,3.6628,3.6405,0.0,0.0,0.0,0.0,0.0,0.0,0.0,0.0,0.0,0.0,0.0,2.2296,2.2296,2.2296,0.0,0.0,0.0,0.0,0.0,0.0,0.0,0.0,0.0,2.2641,2.3376,2.34,2.4644,2.719,2.719,2.7994,2.9491,2.8704,2.7943,2.7165,2.6074,2.567,2.5815,2.6232,2.7182,2.8395,2.9025,0.0,0.0,0.0,0.0,0.0,2.7775,2.857,0.0,2.9508,3.026,3.12,0.0,0.0,0.0,0.0,3.12,3.12,3.12,3.1454,3.1708,3.1708,3.1708,3.1708,3.1708,3.1437,3.1319,3.1708,3.2645,3.3632,3.4444,3.5729,3.6811,0.0,3.8249,0.0,0.0,0.0,3.986,4.0221,3.9742,3.9496,0.0,4.0427,4.0846,4.0846,4.1478,4.1852,4.1852,4.2117,4.2447,4.2791,4.2806,4.2641,4.2282,4.2282,4.2462,4.2806,4.2806,4.2985,4.329,4.329,4.329,4.329,4.329,4.329,4.329,4.329,4.2563,4.1365,4.031,3.913,3.7874,3.6803,3.6405,3.6405,0.0,0.0,0.0,0.0,0.0,0.0,0.0,0.0,0.0,0.0,0.0,0.0,0.0,0.0,0.0,0.0,0.0,0.0,0.0,0.0,0.0,0.0,2.2919,2.2868,2.3714,2.3731,2.5186,2.8145,2.8145,2.8872,3.026,2.9745,2.8967,2.7925,2.6539,2.6209,2.6716,2.6826,2.7698,2.9046,2.9498,0.0,0.0,0.0,0.0,0.0,0.0,0.0,0.0,3.0098,3.0598,3.12,3.12,0.0,0.0,0.0,0.0,0.0,3.1336,3.1995,3.2547,3.2226,3.2226,3.2276,3.2158,3.164,3.1224,3.1336,3.2459,3.3531,3.4004,3.6084,0.0,0.0,0.0,0.0,3.9511,3.9765,3.9921,3.9785,3.9721,0.0,4.1149,4.1433,4.1553,4.1553,4.2152,4.2526,4.2526,4.301,4.329,4.329,4.329,4.329,4.329,4.329,4.329,4.329,4.329,4.329,4.329,4.329,4.329,4.329,0.0,0.0,4.329,4.3115,4.2941,4.2563,4.0447,3.9527,3.913,3.714,3.6405,3.6405,0.0,0.0,0.0,0.0,0.0,0.0,0.0,0.0,0.0,0.0,0.0,0.0,0.0,0.0,0.0,0.0,0.0,0.0,0.0,0.0,0.0,2.5245,2.3951,2.3866,2.5229,2.5262,2.6733,2.9743,2.9743,3.0192,3.1038,3.1549,3.0736,2.8781,2.7866,2.7173,2.6742,2.7376,2.8154,2.907,2.9752,0.0,0.0,0.0,0.0,0.0,0.0,0.0,0.0,3.0098,3.0598,3.12,3.12,0.0,0.0,0.0,0.0,0.0,3.1962,3.3139,3.3704,3.1843,3.1843,3.2141,3.1505,3.1285,3.1386,3.2005,3.2808,3.4173,3.6744,3.7088,3.7545,0.0,0.0,3.9683,0.0,0.0,4.0593,4.1274,0.0,4.0954,4.0591,4.1568,4.2246,4.2246,4.2821,4.316,4.316,4.3265,4.329,4.329,4.329,4.329,4.329,4.329,4.329,4.329,4.329,4.329,4.329,4.329,4.329,4.329,0.0,4.329,4.323,4.2269,4.1295,4.0275,3.8903,3.7792,3.6896,3.6534,3.6405,3.6405,0.0,0.0,0.0,0.0,0.0,0.0,0.0,0.0,0.0,0.0,0.0,0.0,0.0,0.0,0.0,0.0,0.0,0.0,0.0,0.0,2.5015,2.6133,2.5541,2.5498,2.6184,2.6184,2.7672,3.0683,3.0683,3.1275,3.2374,3.1512,3.0125,2.8332,2.7545,2.7012,2.675,2.7494,2.8255,2.9088,0.0,0.0,0.0,0.0,0.0,0.0,0.0,0.0,0.0,0.0,3.0598,3.12,3.12,0.0,0.0,0.0,0.0,0.0,3.1606,3.2486,3.3264,3.3044,3.415,3.5244,3.4895,3.4827,3.4675,3.4184,3.4692,3.5667,3.7054,0.0,3.9413,4.1969,0.0,4.088,4.2172,4.1288,4.0756,0.0,0.0,4.1549,4.1934,4.2517,4.2895,4.2895,4.3145,4.329,4.329,4.329,4.329,4.329,4.329,4.329,4.329,4.329,4.329,4.329,4.329,4.329,4.329,4.329,4.329,4.327,0.0,4.2371,4.229,4.1148,4.0361,3.979,3.8581,3.7779,3.7243,3.6628,3.6405,3.6405,0.0,0.0,0.0,0.0,0.0,0.0,0.0,0.0,0.0,0.0,0.0,0.0,0.0,0.0,0.0,0.0,0.0,0.0,0.0,2.466,2.5414,2.6894,2.6962,2.7046,2.7224,2.741,2.8798,3.1454,3.164,3.229,3.3345,3.1147,2.9388,2.8052,2.7291,2.686,2.6767,2.768,2.8433,2.9114,0.0,0.0,0.0,0.0,0.0,0.0,0.0,0.0,0.0,0.0,0.0,0.0,0.0,0.0,0.0,3.12,3.12,3.1251,3.1403,3.1995,3.2875,3.4178,3.5554,3.6823,3.7691,3.7488,3.6913,3.627,3.6772,3.7312,3.728,3.9106,0.0,4.3194,4.2796,4.2219,4.2181,4.1511,4.1221,4.1794,4.1833,4.2237,4.32,4.329,4.329,4.329,4.329,4.329,4.329,4.329,4.329,4.329,4.329,4.329,4.329,4.329,4.329,4.329,4.329,4.329,4.329,4.329,4.329,4.325,4.2371,4.185,4.1504,4.0361,3.9724,3.936,3.8166,3.7701,3.7609,3.6709,3.6405,3.6405,0.0,0.0,0.0,0.0,0.0,0.0,0.0,0.0,0.0,0.0,0.0,0.0,0.0,0.0,0.0,0.0,0.0,0.0,0.0,2.5135,2.6175,2.7655,2.7722,2.8069,2.8824,2.9499,3.0632,3.2226,3.2899,3.3294,3.3345,3.1147,2.9685,2.8891,2.8086,2.7342,2.6801,2.8273,2.8942,2.9128,3.0579,0.0,0.0,0.0,0.0,0.0,0.0,0.0,0.0,0.0,0.0,0.0,0.0,0.0,3.12,3.12,3.12,3.1352,3.2029,3.2757,3.3508,3.4313,3.3586,3.362,3.711,3.6265,3.5301,3.733,0.0,0.0,0.0,4.0615,4.192,4.1257,4.2158,4.3072,4.3506,0.0,4.2499,4.3085,4.3155,4.3185,4.329,4.329,4.329,4.329,4.329,4.329,4.329,4.329,4.329,4.329,4.329,4.329,4.329,4.329,4.329,4.329,4.329,4.329,4.329,4.329,4.329,4.329,4.321,4.2569,4.1504,4.0361,3.9249,3.8121,3.6977,3.6523,3.6523,3.6428,3.6405,3.6405,0.0,0.0,0.0,0.0,0.0,0.0,0.0,0.0,0.0,0.0,0.0,0.0,0.0,0.0,0.0,0.0,0.0,0.0,0.0,2.4754,2.5778,2.7722,2.8272,2.8696,2.8993,3.0168,3.1732,3.367,3.3947,3.3846,3.3362,3.1596,3.0151,2.8959,2.8154,2.7655,2.7461,2.8544,2.9254,2.977,3.0784,3.1021,0.0,0.0,0.0,0.0,0.0,0.0,0.0,0.0,2.9719,3.0234,3.097,3.12,3.12,3.12,3.12,3.1268,3.1539,3.2824,3.4252,3.5002,3.4765,3.5216,3.8526,3.9305,3.9474,3.9868,4.0886,0.0,0.0,0.0,4.3614,4.1709,4.2554,4.3451,4.3449,4.3156,4.3025,4.326,4.329,4.329,4.329,4.329,4.329,4.329,4.329,4.329,4.329,4.329,4.329,4.329,4.329,4.329,4.329,4.329,4.329,4.329,4.329,4.329,4.329,4.329,4.2921,4.2193,4.1476,4.0518,3.9332,3.8189,3.7438,3.7,3.6557,3.6405,3.6405,3.6405,3.6405,3.6405,0.0,0.0,0.0,0.0,0.0,0.0,0.0,0.0,0.0,0.0,0.0,0.0,0.0,0.0,0.0,0.0,0.0,0.0,2.4423,2.4728,2.5727,2.7714,2.8332,2.8967,2.9687,3.0913,3.2283,3.3806,3.4043,3.366,3.2679,3.1427,3.0185,2.8976,2.8416,2.8188,2.8238,2.9008,2.9634,3.0166,3.0903,3.12,0.0,0.0,0.0,0.0,0.0,0.0,0.0,0.0,2.9339,2.9922,3.0886,3.12,3.12,3.12,3.1691,3.2249,3.2249,3.3349,3.4793,3.6017,3.6152,3.6823,4.0049,4.1217,4.1796,4.2489,4.3224,4.3347,4.2042,0.0,0.0,0.0,4.298,4.3874,4.3373,4.329,4.329,4.329,4.329,4.329,4.329,4.329,4.329,4.329,4.329,4.329,4.329,4.329,4.329,4.329,4.329,4.329,4.329,4.329,4.329,4.329,4.329,4.329,4.329,4.329,4.2684,4.1545,4.0788,3.9544,3.8039,3.7266,3.6709,3.6405,3.6405,3.6405,3.643,3.6582,3.6645,3.667,0.0,0.0,0.0,0.0,0.0,0.0,0.0,0.0,2.2557,2.3291,2.3383,0.0,0.0,0.0,0.0,0.0,0.0,0.0,2.4448,2.5186,2.6252,2.7722,2.7807,2.8864,3.1116,3.1904,3.2293,3.2327,3.3034,3.2645,3.1183,3.0446,2.9702,2.8993,2.8993,2.8993,2.9044,2.9786,3.0098,3.0166,3.0903,3.119,3.1123,0.0,0.0,0.0,0.0,0.0,0.0,0.0,2.901,2.9264,3.0743,3.12,3.12,3.119,3.274,3.4466,3.4466,3.45,3.5064,3.733,3.7381,3.7816,4.1487,4.1191,4.1208,4.4945,4.5063,4.4219,4.3266,0.0,0.0,4.1712,4.3293,4.4434,4.3433,4.329,4.329,4.329,4.329,4.329,4.329,4.329,4.329,4.329,4.329,4.329,4.329,4.329,4.329,4.329,4.329,4.329,4.329,4.329,4.329,4.329,4.329,4.329,4.329,4.329,4.2684,4.1587,4.1587,4.0247,3.8085,3.8098,3.7428,3.6417,3.6394,3.643,3.6493,3.7009,3.7223,3.7286,0.0,0.0,0.0,0.0,0.0,0.0,0.0,0.0,2.2388,2.2591,2.2624,0.0,0.0,0.0,0.0,0.0,0.0,0.0,2.4498,2.5186,2.5803,2.6226,2.7791,2.8704,2.8813,3.0581,3.2283,3.384,3.3028,3.2131,3.1183,3.0446,2.9405,2.8205,2.9296,2.9178,2.8205,2.8991,2.9634,3.0115,3.0335,3.0734,3.1183,0.0,0.0,0.0,0.0,0.0,0.0,0.0,0.0,0.0,3.0903,3.12,3.1099,3.0581,3.0893,3.141,3.141,3.41,3.6924,3.7088,3.9728,4.2584,4.367,4.3586,4.3841,0.0,4.567,4.4673,4.3163,0.0,0.0,4.1765,4.2713,4.3649,4.3349,4.329,4.329,4.329,4.329,4.329,4.329,4.329,4.329,4.329,4.329,4.329,4.329,4.329,4.329,4.329,4.329,4.329,4.329,4.329,4.329,4.329,4.329,4.329,4.329,4.329,4.2243,4.0404,4.0404,3.9059,3.6945,3.7304,3.7281,3.6997,3.7386,3.7525,3.7538,3.7701,3.7764,3.7789,0.0,0.0,0.0,0.0,0.0,0.0,2.2296,2.2557,2.2743,2.2743,2.2743,2.3021,0.0,0.0,0.0,2.4655,2.4738,2.4738,2.4738,2.5434,2.5903,2.6031,2.7621,2.8721,2.9135,3.0497,3.185,3.3197,3.23,3.1166,2.9845,3.0014,2.9456,2.8366,3.0176,3.0132,2.8753,2.9533,2.9956,3.0132,3.0429,3.0801,3.1224,0.0,0.0,0.0,0.0,0.0,0.0,0.0,0.0,0.0,3.097,3.12,3.1285,3.1715,3.2273,3.3085,3.4556,3.7043,3.9462,4.0506,4.2689,4.4905,4.6073,0.0,0.0,0.0,4.6842,4.5848,4.4422,4.4499,0.0,4.2441,4.2801,4.329,4.329,4.329,4.329,4.329,4.329,4.329,4.329,4.329,4.329,4.329,4.329,4.329,4.329,4.329,4.329,4.329,4.329,4.329,4.329,4.329,4.329,4.329,4.329,4.3169,4.2951,4.2707,4.1637,3.9847,3.9128,3.803,3.6758,3.7311,3.7513,3.755,3.7877,3.8002,3.804,3.8266,3.8354,3.8379,0.0,0.0,0.0,0.0,0.0,0.0,2.2296,2.2936,2.34,2.34,2.3468,2.377,0.0,0.0,0.0,2.5139,2.5303,2.5328,2.5258,2.5917,2.644,2.6741,2.7597,2.9045,3.1149,3.1181,3.1097,3.0997,3.0997,2.9905,2.7832,2.9321,2.96,2.8993,3.1142,3.1285,2.9929,3.0615,3.0497,2.9963,3.07,3.0997,3.1082,3.1809,0.0,0.0,0.0,0.0,0.0,0.0,0.0,0.0,3.0997,3.12,3.1589,3.3535,3.5278,3.7308,4.0675,4.1508,4.2252,4.572,4.5785,0.0,4.8392,4.8479,4.8146,4.8631,0.0,4.707,4.6103,4.5248,4.4358,4.3448,4.329,4.329,4.329,4.329,4.329,4.329,4.329,4.329,4.329,4.329,4.329,4.329,4.329,4.329,4.329,4.329,4.329,4.329,4.329,4.3319,4.3379,4.3379,4.3409,4.3469,4.3469,4.3136,4.2474,4.1919,4.1029,3.9785,3.8032,3.7286,3.7299,3.7852,3.809,3.809,3.814,3.8153,3.8228,3.8781,3.8969,3.9044,0.0,0.0,0.0,0.0,0.0,0.0,2.2296,2.2936,2.34,2.34,2.3898,2.4418,2.4861,2.5308,0.0,2.6303,2.6929,2.7046,2.646,2.6839,2.7099,2.7178,2.904,3.044,3.1183,3.0944,3.0371,2.9467,2.9467,2.889,2.7824,2.8789,2.8805,2.8137,2.9811,2.9726,2.8314,2.8466,2.8432,2.8365,2.917,2.9467,2.9542,3.0294,3.048,0.0,0.0,0.0,0.0,0.0,0.0,0.0,3.1149,3.12,3.1183,3.1089,3.2916,3.5176,3.5955,3.9478,4.3271,4.4719,4.658,4.8223,4.8866,4.8883,4.8392,4.7055,4.6064,4.5098,4.4109,4.3771,4.3551,4.3329,4.329,4.329,4.329,4.329,4.329,4.329,4.329,4.329,4.329,4.329,4.329,4.329,4.329,4.329,4.329,4.329,4.329,4.329,4.329,4.3564,4.4072,4.4087,4.4341,4.487,4.487,4.4284,4.3156,4.2524,4.1347,3.9741,3.841,3.7826,3.7877,3.8442,3.8705,3.8756,3.9157,3.9333,3.9346,3.9471,3.9547,3.9534,0.0,0.0,0.0,0.0,0.0,0.0,0.0,0.0,2.4737,2.4017,2.4395,2.4942,2.5473,2.539,0.0,0.0,2.7098,2.725,2.6513,2.7166,2.7831,2.8375,2.9687,3.0584,3.0959,3.025,2.9407,2.8433,2.807,2.7681,2.7291,2.8459,2.8781,2.845,2.9956,2.9786,2.8374,2.8374,2.8154,2.7874,2.8679,2.8993,2.9077,2.982,3.0098,3.0098,3.0098,0.0,0.0,0.0,0.0,0.0,0.0,0.0,3.1326,3.2002,3.3051,3.4675,3.7889,4.0781,4.3487,4.6058,0.0,4.9001,4.9001,4.8305,4.7373,4.6401,4.5816,4.5174,4.4201,4.363,4.329,4.329,4.329,4.329,4.329,4.329,4.329,4.329,4.329,4.329,4.329,4.329,4.329,4.329,4.329,4.329,4.329,4.329,4.3439,4.3773,4.3788,4.4102,4.4781,4.4781,4.4641,4.4376,4.4376,4.3566,4.2035,4.1428,4.0339,3.8907,3.8589,3.8417,3.8492,3.9057,3.9296,3.9321,3.9584,3.9697,3.9697,3.9697,3.9697,3.9697,0.0,0.0,0.0,0.0,0.0,0.0,0.0,0.0,0.0,2.4751,2.5072,2.5561,2.6037,2.5321,2.5104,0.0,0.0,0.0,2.6133,2.7221,2.8448,2.9652,2.9978,3.0293,3.069,2.9538,2.8539,2.7807,2.7063,2.6767,2.6911,2.835,2.8925,2.8848,3.0202,3.0067,2.8781,2.8654,2.8222,2.7672,2.8467,2.8722,2.8679,2.9422,2.97,2.97,2.97,3.0267,3.1004,3.1004,0.0,0.0,0.0,0.0,3.1562,3.34,3.3799,3.4835,4.039,4.2206,4.358,4.7906,4.9001,0.0,4.8798,4.7556,4.6349,4.603,4.5834,4.5454,4.4684,4.3869,4.329,4.329,4.329,4.329,4.329,4.329,4.329,4.329,4.329,4.329,4.329,4.329,4.329,0.0,0.0,4.3409,4.3324,4.3514,4.3848,4.4282,4.4401,4.4796,4.5469,4.5469,4.4881,4.3739,4.3291,4.2293,4.0757,4.009,3.9239,3.8329,3.8831,3.9032,3.907,3.9534,3.9697,3.9697,3.9697,3.9697,3.9697,3.9697,3.9697,3.9697,0.0,0.0,0.0,0.0,0.0,0.0,0.0,0.0,0.0,0.0,2.617,2.6736,2.6076,2.6494,2.6452,2.5562,2.6224,2.6523,2.6127,0.0,0.0,3.0051,3.0157,3.0357,3.069,2.9296,2.8321,2.7807,2.7063,2.7029,2.7672,2.8578,2.8628,2.7993,2.889,2.8789,2.7917,2.7283,2.6953,2.6911,2.7663,2.7579,2.7089,2.7833,2.8111,2.8111,2.8111,2.9033,3.0251,3.0251,3.0666,0.0,0.0,0.0,3.1268,3.1556,3.3008,3.4712,3.5631,3.9605,4.4397,4.8083,4.9001,4.8798,0.0,0.0,4.6952,0.0,4.4301,4.3654,4.3512,4.3389,4.329,4.329,4.329,4.329,4.329,4.329,4.329,4.329,4.329,4.329,0.0,0.0,0.0,0.0,4.3848,4.3908,4.3319,4.4386,4.4811,4.4311,4.487,4.5499,4.6151,4.6166,4.5811,4.5121,4.29,4.1712,4.1436,4.0248,3.9638,3.9471,3.9546,3.9584,3.9584,3.9659,3.9697,3.9697,3.9697,3.9697,3.9697,3.9697,3.9697,3.9697,0.0,0.0,0.0,0.0,0.0,0.0,0.0,0.0,0.0,0.0,0.0,2.6603,2.6663,2.6377,2.5979,2.5461,2.5723,2.5959,2.6032,2.6954,2.7928,2.886,2.9096,2.9378,2.978,2.827,2.7509,2.7525,2.6145,2.6268,2.7807,2.8154,2.8593,2.9084,2.9034,2.8798,2.8366,2.6759,2.6319,2.6691,2.6598,2.763,2.9068,2.7706,2.8484,3.0108,2.8415,2.8526,2.955,2.9963,3.0318,3.0666,3.1072,0.0,0.0,0.0,3.1452,3.2532,3.6216,4.037,4.451,4.8103,4.8608,4.8112,4.7688,4.6797,4.5796,4.4965,4.4004,4.329,4.329,4.329,4.329,4.329,4.329,4.329,4.329,4.329,4.329,4.329,0.0,0.0,0.0,0.0,0.0,0.0,4.3923,4.4162,4.3878,4.4781,4.5349,4.5418,4.5702,4.6181,4.6839,4.6854,4.6021,4.4303,4.2485,4.1219,4.0529,3.9955,3.9697,3.9697,3.9697,3.9697,3.9697,3.9697,3.9697,3.9697,3.9697,3.9697,3.9697,3.9697,3.9697,3.9697,0.0,0.0,0.0,0.0,0.0,0.0,0.0,0.0,0.0,0.0,0.0,2.6561,2.7278,0.0,0.0,0.0,2.5209,2.5309,2.5811,2.6249,2.6995,2.8127,2.8054,2.8335,2.9089,2.7439,2.6665,2.6879,2.5478,2.5812,2.7807,2.8019,2.8915,0.0,2.961,2.9051,0.0,0.0,0.0,2.6716,2.6945,2.8704,3.1082,2.9982,3.1285,3.3298,3.0081,2.9448,3.0083,2.9888,2.9929,3.0234,3.097,3.0888,0.0,0.0,0.0,3.044,3.6281,3.9458,4.2157,4.6459,4.6992,4.6552,0.0,0.0,4.4718,0.0,4.383,4.329,4.329,4.329,4.329,4.329,4.329,4.329,4.329,4.329,4.329,0.0,0.0,0.0,0.0,0.0,0.0,0.0,4.4431,4.473,4.4571,4.5349,4.5963,4.6285,4.6465,4.6794,4.7309,4.666,4.5207,4.3002,4.1715,4.063,3.9697,3.9697,3.9697,3.9697,3.9697,3.9697,3.9697,3.9697,3.9697,3.9697,3.9697,3.9697,3.9697,3.9697,3.9697,3.9697,0.0,0.0,0.0,0.0,0.0,0.0,0.0,0.0,0.0,0.0,0.0,2.7302,2.7719,2.7024,2.6227,2.5471,2.469,2.4593,2.5373,2.4888,2.5853,2.8807,2.7611,0.0,2.9078,2.7208,2.6042,2.5684,2.5592,2.6328,2.7824,2.8578,2.9738,3.1116,3.0378,2.9236,2.7807,0.0,0.0,2.6953,2.977,3.1031,3.1657,3.5757,3.7437,3.7127,3.34,3.2537,3.2763,2.9982,2.9525,3.0234,3.097,3.1181,3.1045,0.0,0.0,0.0,3.3137,3.4286,3.587,4.1981,4.346,4.3692,0.0,0.0,4.4529,4.3571,4.3329,4.329,4.329,4.329,4.329,4.329,4.329,4.329,4.329,0.0,0.0,0.0,0.0,0.0,0.0,0.0,0.0,0.0,4.5807,4.5912,4.5274,4.6486,4.6935,4.633,4.6935,4.7264,4.7309,4.4895,4.3026,4.1665,4.0415,3.9762,3.9697,3.9697,3.9697,3.9697,3.9697,3.9697,3.9697,3.9697,3.9697,3.9697,3.9697,3.9697,3.9697,3.9697,3.9697,3.9697,0.0,0.0,0.0,0.0,0.0,0.0,0.0,0.0,0.0,0.0,0.0,0.0,0.0,2.6306,2.5705,2.5434,2.4653,2.4323,2.4617,2.4884,2.5644,2.7017,2.6855,2.7235,2.8315,2.6212,2.5404,2.5983,2.4783,2.5186,2.7097,2.7393,2.8324,2.9788,2.9508,2.9085,2.8459,2.6725,0.0,0.0,0.0,3.2638,3.4906,3.6,0.0,0.0,0.0,0.0,0.0,3.274,3.1444,3.0159,3.0513,3.0362,2.9848,0.0,0.0,2.9195,3.2381,3.3564,3.5,3.9553,4.1501,4.2386,4.2801,4.3366,4.3747,4.3369,4.329,4.329,4.329,4.329,4.329,4.329,4.329,4.329,0.0,0.0,0.0,0.0,0.0,0.0,0.0,0.0,0.0,0.0,0.0,4.6196,4.5942,4.6815,4.7189,4.6943,4.7174,4.6894,4.6084,4.4349,4.2858,4.1604,4.1144,4.0478,3.9697,3.9697,3.9697,3.9697,3.9697,3.9697,3.9697,3.9697,3.9697,3.9697,3.9697,3.9697,3.9697,3.9697,3.9697,3.9747,0.0,0.0,0.0,0.0,0.0,0.0,0.0,0.0,0.0,2.5736,0.0,0.0,0.0,0.0,2.5595,2.5044,2.4507,2.4194,2.4194,2.4593,2.5172,2.5967,2.62,2.6735,2.7675,2.5976,2.5242,2.5635,2.4373,2.4652,2.6336,2.6573,2.7529,2.8993,2.8713,2.8747,0.0,0.0,0.0,2.7063,0.0,0.0,3.556,0.0,0.0,0.0,0.0,0.0,0.0,0.0,0.0,0.0,0.0,0.0,0.0,0.0,0.0,0.0,3.0809,3.1778,3.3031,0.0,3.8371,3.947,4.1262,0.0,4.2517,4.3175,4.329,4.329,4.329,4.329,4.329,4.329,4.3504,0.0,0.0,0.0,0.0,0.0,0.0,0.0,0.0,0.0,0.0,0.0,0.0,0.0,4.6629,4.7048,4.7099,4.6682,4.666,4.5846,4.4139,4.3289,4.2217,4.0957,4.0957,4.0529,3.9697,3.9697,3.9697,3.9697,3.9697,3.9697,3.9697,3.9697,3.9697,3.9697,3.9697,3.981,3.9973,3.9973,4.0086,4.03,0.0,0.0,0.0,0.0,0.0,0.0,0.0,0.0,2.6607,2.6607,0.0,0.0,0.0,0.0,0.0,2.4373,2.425,2.4231,2.419,2.3891,2.4385,2.5937,2.5679,2.6054,2.7259,2.6576,2.5645,2.4525,2.4525,2.4889,2.5617,2.6353,2.7495,2.8908,2.8137,2.8205,2.8857,0.0,2.7376,2.7326,0.0,3.5035,3.3461,0.0,0.0,0.0,4.0312,3.977,0.0,0.0,0.0,0.0,0.0,0.0,0.0,0.0,0.0,0.0,0.0,0.0,0.0,0.0,0.0,0.0,3.9996,0.0,4.0891,4.2831,4.323,4.3245,4.329,4.3324,4.3319,4.3319,0.0,0.0,0.0,0.0,0.0,0.0,0.0,0.0,0.0,0.0,0.0,0.0,4.7309,4.7309,4.7309,4.7309,4.6704,4.5448,4.5358,4.4139,4.1629,4.1555,4.0907,3.9697,3.9697,3.9697,3.9697,3.9697,3.9697,3.9697,3.971,3.9722,3.9722,3.9722,3.9722,3.9722,3.9735,4.0074,4.0512,4.0512,4.0851,4.1315,0.0,0.0,0.0,0.0,0.0,2.7601,2.7488,2.6974,2.6607,0.0,0.0,0.0,2.6998,2.6735,2.619,2.5154,2.5062,2.4824,2.425,2.3891,2.4385,2.5937,2.5451,2.5814,2.7276,2.6283,2.561,2.5304,2.5304,2.5406,2.5617,2.6353,2.6936,2.7342,2.7655,2.7334,2.6556,2.6877,0.0,0.0,3.3078,3.5938,0.0,0.0,0.0,0.0,0.0,4.3403,0.0,0.0,3.944,3.4363,0.0,0.0,0.0,0.0,0.0,0.0,2.7632,0.0,0.0,0.0,0.0,0.0,0.0,0.0,0.0,4.0887,4.1594,4.2207,4.3145,4.3698,4.4027,0.0,0.0,0.0,0.0,0.0,0.0,0.0,0.0,0.0,0.0,0.0,0.0,0.0,4.7309,4.7309,4.7309,4.7309,4.6704,4.5448,4.4526,4.3242,4.1629,4.0693,4.0057,3.9697,3.9697,3.9697,3.9697,3.9697,3.9697,3.9722,4.0111,4.0287,4.0287,4.0287,4.0287,4.0325,4.07,4.0951,4.1089,4.1089,4.1177,4.1365,0.0,0.0,2.8999,2.8999,2.8882,2.8686,2.835,2.8185,2.8093,0.0,0.0,0.0,2.769,2.7304,2.6778,2.5975,2.5595,2.5146,2.4525,2.4132,2.4275,2.5088,2.5173,2.5632,2.657,2.623,2.5905,2.5601,2.5601,2.5601,2.5617,2.6048,2.6404,2.6716,2.7156,2.6869,2.6099,0.0,0.0,0.0,3.3491,0.0,0.0,4.2391,4.4742,0.0,0.0,0.0,4.2723,4.5497,4.1362,0.0,0.0,0.0,0.0,0.0,0.0,0.0,0.0,0.0,0.0,0.0,0.0,0.0,0.0,0.0,0.0,0.0,4.1923,4.2506,4.3534,4.4042,4.4386,0.0,0.0,0.0,0.0,0.0,0.0,0.0,0.0,0.0,0.0,4.7063,4.7309,4.7309,4.7309,4.7309,4.7309,4.6807,4.5928,4.4642,4.3385,4.2095,4.0819,4.0083,3.9697,3.9697,3.9697,3.9823,4.0036,4.0036,4.0162,4.0374,4.07,4.0838,4.0851,4.1103,4.1065,4.0863,4.1189,4.1453,4.1681,4.1681,4.1831,4.207,0.0,0.0,2.9023,2.9115,2.9726,2.9983,2.9354,2.9873,3.0338,0.0,3.0338,3.0093,2.9464,2.8589,2.7732,2.6937,2.6122,2.5455,2.4992,2.4499,2.417,2.4086,2.4911,2.549,2.5718,2.6353,2.6378,2.5719,2.5719,2.5719,2.5719,2.5719,2.6031,2.6581,2.6581,2.653,2.6463,2.6547,0.0,2.6869,3.4292,3.5977,0.0,0.0,4.3626,0.0,4.486,4.4654,4.3366,4.7022,4.3689,0.0,0.0,0.0,0.0,0.0,2.6333,0.0,0.0,0.0,0.0,0.0,0.0,0.0,0.0,0.0,0.0,0.0,4.2382,4.2681,4.3509,4.3698,0.0,0.0,0.0,0.0,0.0,0.0,0.0,0.0,0.0,0.0,4.7309,4.7309,4.7309,4.7309,4.7309,4.7229,4.7099,4.6018,4.4757,4.3337,4.2193,4.0982,3.9723,3.9697,3.9697,3.9697,3.9697,3.9986,4.0487,4.0487,4.0788,4.1315,4.1378,4.1403,4.1453,4.2047,4.1946,4.1415,4.1465,4.1819,4.2301,4.2301,4.2587,4.3002,2.7994,2.8552,2.9207,2.9855,3.0093,3.0375,3.0858,3.106,3.117,3.117,3.117,3.1354,3.183,3.0589,2.9415,2.8601,2.7805,2.6743,2.5395,2.4704,2.4615,2.5156,2.4879,2.5265,2.6463,2.6632,2.6632,2.6496,2.6496,2.6496,2.6496,2.6496,2.6251,0.0,2.5803,2.5473,2.4965,0.0,0.0,3.0294,3.2503,0.0,3.8345,4.2324,4.5266,4.7361,4.8105,4.731,4.5669,0.0,4.3085,4.1411,0.0,0.0,0.0,0.0,0.0,0.0,0.0,0.0,0.0,0.0,0.0,0.0,0.0,0.0,0.0,0.0,3.6641,3.7537,3.923,3.9993,0.0,0.0,0.0,0.0,0.0,0.0,0.0,0.0,0.0,0.0,4.7309,4.7309,4.7309,4.7309,4.7309,4.6851,4.5824,4.5539,4.4349,4.2035,4.1715,4.0982,3.9723,3.9697,3.9697,3.9697,3.9697,3.9986,4.0487,4.0487,4.0788,4.134,4.1806,4.2022,4.2072,4.2612,4.2524,4.2072,4.2512,4.275,4.2838,4.2838,4.2914,4.3002,2.8405,2.8712,2.9244,3.0063,3.0522,3.1072,3.188,3.2008,3.2137,3.2547,3.2602,3.243,3.2045,0.0,0.0,0.0,0.0,2.7394,2.6415,2.581,2.5512,2.5545,2.5579,2.5873,2.6447,2.6604,2.67,2.67,2.67,2.67,2.67,2.67,2.7495,0.0,2.6979,2.6987,0.0,0.0,2.7232,2.9322,3.3451,0.0,4.1546,4.4911,4.7361,4.9001,4.9001,4.8528,4.7547,4.5297,4.3194,0.0,0.0,3.5764,3.3461,0.0,2.9714,3.0493,0.0,0.0,0.0,2.8096,0.0,0.0,0.0,0.0,0.0,0.0,0.0,0.0,0.0,0.0,0.0,0.0,0.0,0.0,0.0,0.0,0.0,0.0,0.0,0.0,4.7309,4.7309,4.7309,4.7309,4.7309,4.6726,4.5471,4.4803,4.3575,4.1654,4.0982,4.0338,3.9723,3.9697,3.9697,3.9697,3.9973,4.0361,4.0913,4.1204,4.163,4.217,4.2474,4.26,4.2612,4.2889,4.2838,4.2625,4.2901,4.3002,4.3002,4.3002,4.3002,4.3002,2.8999,2.8999,2.9244,3.0063,3.0876,3.1666,3.2479,3.2736,3.3066,3.3715,3.4082,3.3844,0.0,0.0,0.0,0.0,0.0,0.0,2.8609,2.8007,2.7495,2.7094,2.6786,2.6833,2.7328,2.6914,2.67,2.67,2.67,2.67,2.67,2.67,2.8324,3.1108,0.0,0.0,0.0,0.0,0.0,2.9381,0.0,3.9246,4.1732,4.5923,4.7667,4.802,4.8748,4.9001,4.8732,4.6956,0.0,4.0304,4.0112,3.7418,0.0,0.0,0.0,0.0,0.0,0.0,0.0,0.0,0.0,2.9819,0.0,0.0,0.0,0.0,0.0,0.0,0.0,0.0,0.0,0.0,0.0,0.0,0.0,0.0,0.0,0.0,0.0,0.0,0.0,4.6726,4.689,4.7279,4.695,4.624,4.5087,4.4069,4.2786,4.1294,4.0249,3.9697,3.9697,3.9697,3.9697,3.9697,4.0249,4.0775,4.1327,4.1934,4.2487,4.3002,4.3002,4.3002,4.3002,4.3002,4.3002,4.3002,4.3002,4.3002,4.3002,4.3002,4.3002,4.3002,2.8999,2.8999,2.9244,3.0063,3.0876,3.1666,3.2479,3.3213,3.3697,3.3788,3.5092,0.0,0.0,0.0,0.0,0.0,0.0,0.0,3.3253,0.0,3.1816,3.2405,2.8458,2.7886,3.1349,2.8314,2.67,2.67,2.67,2.67,2.67,2.67,2.6936,2.7427,2.9694,0.0,0.0,0.0,3.2983,0.0,3.7555,3.6169,0.0,3.9906,4.2899,4.4471,4.7817,4.9001,4.8571,0.0,4.4468,4.3014,0.0,3.7982,0.0,0.0,0.0,0.0,0.0,0.0,0.0,0.0,3.0342,0.0,0.0,0.0,0.0,0.0,0.0,0.0,0.0,0.0,0.0,0.0,0.0,0.0,0.0,0.0,0.0,0.0,0.0,0.0,0.0,4.4625,4.5373,4.7174,4.5663,4.438,4.3751,4.3575,4.2412,3.9981,3.9788,3.9697,3.9697,3.9697,3.9697,3.9697,4.0249,4.0775,4.1327,4.1934,4.2487,4.3002,4.3002,4.3002,4.3002,4.3002,4.3002,4.3002,4.3002,4.3002,4.3002,4.3002,4.3002,4.3002,2.8999,2.8999,2.9244,3.0063,3.0876,3.1666,3.2479,3.3683,3.4491,3.4491,3.5121,0.0,0.0,0.0,0.0,0.0,0.0,3.6498,0.0,0.0,3.3092,3.224,2.9581,2.8817,3.0331,2.8372,2.7131,2.67,2.67,2.67,2.67,2.67,2.785,2.9999,3.1268,0.0,3.3203,0.0,0.0,0.0,0.0,0.0,0.0,4.2303,4.6111,4.687,4.8428,4.9001,4.8803,0.0,4.4895,0.0,0.0,0.0,0.0,0.0,0.0,0.0,0.0,0.0,0.0,0.0,0.0,0.0,0.0,0.0,3.1511,0.0,0.0,0.0,0.0,0.0,0.0,0.0,0.0,0.0,0.0,0.0,0.0,0.0,0.0,0.0,0.0,0.0,0.0,0.0,0.0,4.3049,4.3492,4.2786,4.1579,3.9762,3.9697,3.9697,3.9697,3.9697,3.986,4.0174,4.07,4.1279,4.1831,4.2411,4.2788,4.3002,4.3002,4.3002,4.3002,4.3002,4.3002,4.3002,4.3002,4.3002,4.3002,4.3002,4.3002,4.3002,2.9123,2.9038,2.9244,3.0063,3.0876,3.1758,3.2773,3.3922,3.4747,0.0,0.0,0.0,3.66,3.6736,0.0,0.0,0.0,3.9386,0.0,0.0,3.6076,3.5727,3.1833,0.0,0.0,2.9256,2.7545,2.6996,2.6996,2.6996,2.6996,2.6996,2.8578,3.143,0.0,3.4127,3.6637,0.0,0.0,3.5447,3.6502,3.6907,3.7647,4.4756,4.809,4.9001,4.9001,4.9001,4.8838,4.7778,4.4608,0.0,4.3222,0.0,0.0,0.0,0.0,0.0,3.1748,0.0,0.0,0.0,0.0,0.0,0.0,0.0,0.0,0.0,0.0,0.0,0.0,0.0,0.0,0.0,0.0,0.0,0.0,0.0,0.0,0.0,0.0,0.0,0.0,0.0,0.0,0.0,0.0,0.0,4.2907,4.2095,4.1032,3.9736,3.9697,3.9697,3.9697,3.9697,3.9973,4.0499,4.1051,4.163,4.2225,4.275,4.3002,4.3002,4.3002,4.3002,4.3002,4.3002,4.3002,4.3002,4.3002,4.3002,4.3002,4.3002,4.3002,4.3002,2.9424,2.9189,2.9244,3.0063,3.0876,3.1923,3.3513,3.3807,0.0,0.0,0.0,0.0,0.0,0.0,0.0,0.0,0.0,4.8132,4.57,0.0,4.2591,0.0,0.0,3.3131,0.0,3.1825,2.779,2.7764,2.7764,2.7764,2.7764,2.7764,2.8238,0.0,3.2087,3.3429,3.3785,3.733,4.0476,4.3051,4.3102,4.5266,4.8122,0.0,4.5841,4.9001,4.9001,0.0,0.0,4.4658,4.3266,0.0,0.0,0.0,0.0,0.0,0.0,0.0,0.0,0.0,0.0,3.115,0.0,0.0,0.0,0.0,3.2467,0.0,0.0,0.0,0.0,0.0,0.0,0.0,0.0,0.0,0.0,0.0,0.0,0.0,0.0,0.0,0.0,0.0,0.0,0.0,0.0,0.0,4.1569,4.1629,4.1032,3.9736,3.9697,3.9697,3.9697,3.9697,3.9973,4.0499,4.1051,4.163,4.2225,4.275,4.3002,4.3002,4.3002,4.3002,4.3002,4.3002,4.3002,4.3002,4.3002,4.3002,4.3002,4.3002,4.3002,4.3002,2.9404,2.9176,2.9097,2.9354,3.0503,3.2125,3.4277,3.5085,0.0,0.0,0.0,0.0,0.0,0.0,4.4764,0.0,0.0,4.8159,4.6773,4.3602,0.0,0.0,0.0,3.4161,0.0,0.0,2.9811,2.9311,2.8839,2.8586,2.8586,2.8586,2.8747,0.0,0.0,3.5233,0.0,0.0,0.0,0.0,0.0,4.4466,4.6164,0.0,0.0,4.8924,4.8306,4.8063,0.0,4.5837,4.3883,4.2289,4.2286,4.0506,3.8542,3.92,3.923,0.0,0.0,0.0,3.8786,3.4801,0.0,0.0,0.0,0.0,0.0,0.0,0.0,0.0,0.0,0.0,0.0,0.0,0.0,0.0,0.0,0.0,0.0,0.0,0.0,0.0,0.0,0.0,0.0,0.0,0.0,0.0,0.0,4.0794,4.0147,3.9723,3.9697,3.9697,3.9697,4.0061,4.0487,4.1039,4.1618,4.2198,4.2738,4.2926,4.3002,4.3002,4.3002,4.3002,4.3002,4.3002,4.3002,4.3002,4.3002,4.3002,4.3002,4.3002,4.3002,4.3002,3.0048,2.9744,2.9633,2.9818,3.1415,3.3195,0.0,0.0,0.0,0.0,4.0147,0.0,4.4057,0.0,4.5645,0.0,4.8985,4.9012,4.7617,4.55,0.0,4.5636,3.9938,0.0,0.0,0.0,0.0,3.205,3.053,2.9644,2.939,2.939,2.9525,0.0,0.0,3.5346,3.9457,0.0,4.2577,0.0,0.0,4.6094,0.0,0.0,4.8288,4.6999,0.0,4.7406,4.6952,4.6012,4.4445,4.3074,4.4254,4.2425,4.0172,4.1698,4.1519,4.0715,4.0011,4.1093,0.0,3.7509,3.7644,0.0,3.3813,0.0,0.0,0.0,0.0,0.0,0.0,0.0,0.0,0.0,0.0,0.0,0.0,0.0,0.0,0.0,0.0,0.0,0.0,0.0,0.0,0.0,0.0,0.0,0.0,0.0,3.9697,3.9697,3.9697,3.9697,3.9697,4.0237,4.0775,4.1327,4.1921,4.2474,4.3002,4.3002,4.3002,4.3002,4.3002,4.3002,4.3002,4.3002,4.3002,4.3002,4.3002,4.3002,4.3002,4.3002,4.3002,4.3002,3.1187,3.0853,3.0926,3.1422,3.3378,0.0,0.0,0.0,3.819,0.0,4.0865,4.2608,4.5792,4.6865,4.7984,4.9582,5.1143,0.0,4.871,4.8406,0.0,0.0,4.5353,4.4403,4.7674,0.0,0.0,0.0,3.275,3.0903,3.0217,3.0166,3.0531,0.0,3.0514,0.0,4.0163,4.0176,4.366,4.9171,4.9864,5.0035,4.9843,4.974,4.697,4.3554,4.6502,4.6981,4.6072,4.5151,4.4811,4.4764,4.4454,4.4341,4.4461,4.511,4.5319,4.4945,4.308,4.262,4.2006,3.9323,0.0,0.0,0.0,0.0,3.7554,0.0,0.0,0.0,0.0,0.0,0.0,0.0,0.0,0.0,0.0,0.0,0.0,0.0,0.0,0.0,0.0,0.0,0.0,0.0,0.0,0.0,0.0,0.0,3.9584,3.9697,3.9697,3.9697,3.9697,4.0275,4.08,4.1327,4.1946,4.2499,4.3002,4.3002,4.3002,4.3002,4.3002,4.3002,4.3002,4.3002,4.3002,4.3002,4.3002,4.3002,4.3002,4.3002,4.3002,4.3002,3.0913,3.1929,3.3023,0.0,3.3195,3.4039,0.0,0.0,0.0,0.0,4.47,4.659,4.926,5.0251,5.0912,5.1344,5.2307,0.0,0.0,0.0,0.0,5.2158,4.6946,4.5418,4.8445,4.1839,0.0,3.8053,0.0,0.0,3.1725,3.1173,3.1021,0.0,0.0,0.0,4.095,4.1508,4.5179,5.0643,5.0829,4.9158,0.0,0.0,4.6749,4.2992,4.5887,4.6774,4.6427,4.5484,4.5173,4.5162,4.5057,4.5035,4.508,4.5244,4.5663,4.5927,4.5439,4.5663,4.5394,4.2711,4.2203,4.1683,0.0,0.0,0.0,0.0,0.0,0.0,0.0,0.0,0.0,0.0,0.0,0.0,0.0,0.0,0.0,0.0,0.0,0.0,0.0,0.0,0.0,0.0,0.0,0.0,0.0,0.0,0.0,3.9647,3.9697,3.9697,3.9697,4.0625,4.1177,4.1327,4.2308,4.2864,4.3002,4.3002,4.3002,4.3002,4.3002,4.3002,4.3002,4.3002,4.3002,4.3002,4.3002,4.3002,4.3002,4.3002,4.3002,4.3002,3.2586,0.0,0.0,3.5826,0.0,0.0,3.8819,0.0,0.0,4.4737,4.6333,0.0,4.9994,5.1289,5.2152,5.2491,5.2939,0.0,0.0,0.0,0.0,5.1599,4.946,4.9028,5.0684,4.5799,0.0,4.0828,0.0,0.0,3.2276,3.1556,3.12,0.0,0.0,3.49,0.0,4.2858,4.621,4.9424,5.1031,0.0,0.0,4.9421,4.801,4.5352,4.6539,4.659,4.6006,4.5481,4.5289,4.5349,4.5648,4.5738,4.5798,4.6082,4.6441,4.6734,4.6734,4.7003,4.695,4.5418,4.508,4.4481,4.2083,4.1829,4.2102,0.0,0.0,0.0,0.0,0.0,0.0,0.0,0.0,0.0,0.0,0.0,0.0,0.0,0.0,0.0,0.0,0.0,0.0,0.0,0.0,0.0,0.0,0.0,0.0,3.9308,3.9359,3.9597,4.0049,4.065,4.1189,4.1706,4.2572,4.3002,4.3002,4.3002,4.3002,4.3002,4.3002,4.3002,4.3002,4.3002,4.3002,4.3002,4.3002,4.3002,4.3002,4.3002,4.3002,4.3002,0.0,0.0,0.0,0.0,0.0,0.0,0.0,4.1932,0.0,4.6012,0.0,4.8315,4.9811,5.1279,5.2435,5.3141,0.0,5.2307,5.0206,5.205,5.226,5.0151,5.2087,5.3196,5.3196,5.0228,0.0,0.0,0.0,0.0,3.2429,3.1589,3.12,0.0,0.0,0.0,0.0,4.4347,4.724,4.7968,5.1166,5.1763,5.0712,5.0497,4.9655,4.8486,4.7609,4.6546,4.5559,4.5559,4.5559,4.5663,4.6241,4.6435,4.6555,4.713,4.7309,4.7309,4.7309,4.7309,4.7309,4.7309,4.7309,4.6845,4.5074,4.4685,4.4685,4.4685,4.3344,4.3125,0.0,0.0,0.0,0.0,0.0,0.0,0.0,0.0,0.0,0.0,0.0,0.0,0.0,0.0,0.0,0.0,0.0,0.0,0.0,0.0,0.0,3.8957,3.907,0.0,4.0287,0.0,4.1141,4.1972,4.2675,4.3002,4.3002,4.3002,4.3002,4.3002,4.3002,4.3002,4.3002,4.3002,4.3002,4.3002,4.3002,4.3002,4.3002,4.3002,4.3002,4.3002,0.0,0.0,0.0,0.0,0.0,4.3829,4.5755,4.6383,4.7197,4.875,5.0225,5.1499,5.2443,5.281,5.3049,5.3196,5.3196,0.0,0.0,0.0,0.0,5.259,5.2976,5.3196,5.3196,4.9782,4.6733,0.0,0.0,0.0,3.3186,3.1833,3.12,0.0,0.0,0.0,4.3416,4.643,0.0,5.2384,5.3044,5.2164,5.045,5.0407,4.9226,4.7538,4.7359,4.716,4.695,4.695,4.695,4.698,4.71,4.713,4.716,4.7279,4.7309,4.7309,4.7309,4.7309,4.7309,4.7309,4.7309,4.7219,4.686,4.677,4.677,4.677,4.6501,4.5828,4.4347,0.0,0.0,0.0,0.0,0.0,0.0,0.0,0.0,0.0,0.0,0.0,0.0,0.0,0.0,0.0,0.0,0.0,0.0,0.0,0.0,0.0,3.9986,0.0,0.0,0.0,4.1532,4.0827,4.2283,4.3002,4.3002,4.3002,4.3002,4.3002,4.3002,4.3002,4.3002,4.3002,4.3002,4.3002,4.3002,4.3002,4.3002,4.3002,4.3002,4.3002,0.0,0.0,0.0,0.0,0.0,0.0,0.0,4.9805,0.0,5.0276,5.0904,5.1536,5.1911,5.27,5.3196,5.3196,5.3196,5.3196,5.3196,5.3196,5.3196,5.3196,5.3196,0.0,5.2651,5.0931,4.7998,4.3885,0.0,0.0,3.3379,3.2283,3.1759,3.1894,0.0,3.8311,0.0,0.0,0.0,5.1302,5.2875,5.224,5.0397,5.0397,4.9105,4.7309,4.7309,4.7309,4.7309,4.7309,4.7309,4.7309,4.7309,4.7309,4.7309,4.7309,4.7309,4.7309,4.7309,4.7309,4.7309,4.7309,4.7309,4.7309,4.7309,4.7309,4.7309,4.7309,4.7309,4.6501,4.3833,4.1186,0.0,0.0,0.0,0.0,0.0,0.0,0.0,0.0,0.0,0.0,0.0,0.0,0.0,0.0,0.0,0.0,0.0,0.0,0.0,0.0,0.0,0.0,0.0,0.0,0.0,4.1806,4.2625,4.3002,4.3002,4.3002,4.3002,4.3002,4.3002,4.3002,4.3002,4.3002,4.3002,4.3002,4.3002,4.3002,4.3002,4.3002,4.3002,4.3002,0.0,4.32,0.0,0.0,4.7593,0.0,4.9733,5.1987,5.3093,5.1514,5.1316,5.1316,5.1316,5.2443,5.3196,5.3196,5.3196,5.3196,5.3196,5.3196,5.3196,5.3196,5.3196,5.2926,5.2347,5.2192,4.9642,0.0,0.0,0.0,0.0,3.3112,3.297,0.0,0.0,0.0,0.0,0.0,4.9238,5.0153,5.2303,5.2044,5.0394,5.0145,4.8902,4.7309,4.7309,4.7309,4.7309,4.7309,4.7309,4.7309,4.7309,4.7309,4.7309,4.7309,4.7309,4.7309,4.7309,4.7309,4.7309,4.7309,4.7309,4.7309,4.7309,4.7309,4.7309,4.7309,4.7309,4.6486,4.3818,4.2098,0.0,0.0,0.0,0.0,0.0,0.0,0.0,0.0,0.0,0.0,0.0,0.0,0.0,0.0,0.0,0.0,0.0,0.0,0.0,0.0,0.0,4.0062,4.1144,0.0,4.198,4.2635,4.2889,4.3002,4.3002,4.3002,4.3002,4.3002,4.3002,4.3002,4.3002,4.3002,4.3002,4.3002,4.3002,4.3002,4.3002,4.3002,4.3002,4.3002,0.0,0.0,0.0,0.0,0.0,0.0,5.0674,5.2146,5.3185,5.3004,5.2976,5.2976,5.2976,5.3104,5.3196,5.3196,5.3196,5.3196,5.3196,5.3196,5.3196,5.3196,5.3196,5.3171,5.3105,5.2495,5.0937,0.0,0.0,0.0,0.0,3.4607,3.5115,0.0,0.0,0.0,0.0,4.8022,4.9967,5.3011,5.2319,5.1394,5.0281,4.9316,4.8252,4.7309,4.7309,4.7309,4.7309,4.7309,4.7309,4.7309,4.7309,4.7309,4.7309,4.7309,4.7309,4.7309,4.7309,4.7309,4.7309,4.7309,4.7309,4.7309,4.7309,4.7309,4.7309,4.7309,4.7309,4.6501,4.3868,4.5125,4.5394,0.0,0.0,0.0,0.0,0.0,0.0,0.0,0.0,0.0,0.0,0.0,0.0,0.0,0.0,0.0,0.0,0.0,0.0,3.7374,0.0,3.8555,3.7688,4.1117,4.2371,4.1478,4.2509,4.3002,4.3002,4.3002,4.3002,4.3002,4.3002,4.3002,4.3002,4.3002,4.3002,4.3002,4.3002,4.3002,4.3002,4.3002,4.3002,4.3002,0.0,0.0,0.0,0.0,0.0,0.0,0.0,5.2792,5.3196,5.3196,5.3196,5.3196,5.3196,5.3196,5.3196,5.3196,5.3196,5.3196,5.3196,5.3196,5.3416,5.3904,5.3469,5.3231,5.3319,5.2617,5.0957,0.0,0.0,0.0,0.0,3.733,3.8261,0.0,0.0,4.5959,4.8462,5.0423,5.2131,5.3416,5.233,5.1285,5.0281,4.9195,4.8183,4.7309,4.7309,4.7309,4.7309,4.7309,4.7309,4.7309,4.7309,4.7309,4.7309,4.7309,4.7309,4.7309,4.7309,4.7309,4.7309,4.7309,4.7309,4.7309,4.7309,4.7309,4.7309,4.7309,4.7309,4.698,4.5933,4.5269,4.491,0.0,0.0,0.0,0.0,0.0,0.0,0.0,0.0,0.0,0.0,0.0,0.0,0.0,0.0,0.0,0.0,0.0,0.0,3.6684,0.0,4.0489,3.9659,4.1869,4.2788,4.2333,4.2773,4.3002,4.3002,4.3002,4.3002,4.3002,4.3002,4.3002,4.3002,4.3002,4.3002,4.3002,4.3002,4.3002,4.3002,4.3002,4.3002,4.3002,4.9633,0.0,4.974,0.0,5.1583,5.1893,5.3031,5.3196,5.3196,5.3196,5.3196,5.3196,5.3196,5.3196,5.3196,5.3196,5.3196,5.3196,5.3196,5.3416,5.3812,5.4381,5.4087,0.0,5.3723,5.3213,5.183,4.9544,4.6517,0.0,0.0,4.0713,4.1711,0.0,4.7581,4.9189,4.9713,5.2384,5.3501,5.3416,5.233,5.1285,5.0281,4.9195,4.8183,4.7309,4.7309,4.7309,4.7309,4.7309,4.7309,4.7309,4.7309,4.7309,4.7309,4.7309,4.7309,4.7309,4.7309,4.7309,4.7309,4.7309,4.7309,4.7309,4.7309,4.7309,4.7309,4.7309,4.7309,4.7309,4.7309,4.5747,4.4969,4.6471,0.0,0.0,0.0,0.0,0.0,0.0,0.0,0.0,0.0,0.0,0.0,0.0,0.0,0.0,0.0,0.0,0.0,0.0,0.0,0.0,0.0,4.2271,4.3002,4.3002,4.3002,4.3002,4.3002,4.3002,4.3002,4.3002,4.3002,4.3002,4.3002,4.3002,4.3002,4.3002,4.3002,4.3002,4.3002,4.3002,4.3002,4.3002,5.1131,5.1363,5.1867,5.3488,5.3445,5.3177,5.3196,5.3196,5.3196,5.3196,5.3196,5.3196,5.3196,5.3196,5.3196,5.3196,5.3196,5.3196,5.3196,5.393,5.4399,0.0,0.0,5.5232,5.4496,5.4472,5.4124,5.3433,0.0,0.0,4.7735,4.4742,4.5334,4.8917,4.8984,5.0659,5.345,5.3484,5.3501,5.3416,5.233,5.1285,5.0281,4.9195,4.8183,4.7309,4.7309,4.7309,4.7309,4.7309,4.7309,4.7309,4.7309,4.7309,4.7309,4.7309,4.7309,4.7309,4.7309,4.7309,4.7309,4.7309,4.7309,4.7309,4.7309,4.7309,4.7309,4.7309,4.7309,4.7309,4.7309,4.7279,4.683,4.5529,0.0,0.0,0.0,0.0,0.0,0.0,3.5537,3.3379,3.613,0.0,0.0,0.0,0.0,0.0,0.0,0.0,0.0,3.8818,3.9446,0.0,3.971,4.1909,4.3002,4.3002,4.3002,4.3002,4.3002,4.3002,4.3002,4.3002,4.3002,4.3002,4.3002,4.3002,4.3002,4.3002,4.3002,4.3002,4.3002,4.3002,4.3002,4.3002,5.3483,5.3264,5.3107,5.336,5.3293,5.3196,5.3196,5.3196,5.3196,5.3196,5.3196,5.3196,5.3196,5.3196,5.3196,0.0,5.3691,5.4014,0.0,5.4766,5.5464,5.6014,5.5261,5.5004,5.532,5.4335,5.3707,5.3501,0.0,0.0,0.0,4.7667,4.8935,5.208,5.208,5.2604,5.3501,5.3501,5.3501,5.3416,5.233,5.1285,5.0281,4.9195,4.8183,4.7309,4.7309,4.7309,4.7309,4.7309,4.7309,4.7309,4.7309,4.7309,4.7309,4.7309,4.7309,4.7309,4.7309,4.7309,4.7309,4.7309,4.7309,4.7309,4.7309,4.7309,4.7309,4.7309,4.7309,4.7309,4.7309,4.7309,4.716,4.6741,4.7025,0.0,0.0,0.0,0.0,0.0,0.0,4.0474,0.0,3.8746,0.0,0.0,0.0,0.0,0.0,0.0,0.0,0.0,4.0489,0.0,4.08,4.2258,4.3002,4.3002,4.3002,4.3002,4.3002,4.3002,4.3002,4.3002,4.3002,4.3002,4.3002,4.3002,4.3002,4.3002,4.3002,4.3002,4.3002,4.3002,4.3002,4.3002,5.4154,5.3906,5.3663,5.3272,5.3196,5.3196,5.3196,5.3196,5.3306,5.3599,5.3654,5.3765,5.4069,5.4106,0.0,5.3673,5.4106,5.4528,5.4821,5.5592,5.6271,5.6774,5.5893,5.5492,5.5706,5.453,0.0,5.3501,5.1623,5.0693,5.0693,5.0693,5.1708,5.3501,5.3501,5.3501,5.3501,5.3501,5.3501,5.3416,5.233,5.1285,5.0281,4.9195,4.8183,4.7309,4.7309,4.7309,4.7309,4.7309,4.7309,4.7309,4.7309,4.7309,4.7309,4.7309,4.7309,4.7309,4.7309,4.7309,4.7309,4.7309,4.7309,4.7309,4.7309,4.7309,4.7309,4.7309,4.7309,4.7309,4.7309,4.7309,4.7384,4.7638,4.7683,4.7758,4.8034,0.0,0.0,0.0,0.0,0.0,0.0,3.9931,0.0,0.0,0.0,0.0,0.0,0.0,0.0,3.9384,4.1733,0.0,4.1957,4.2635,4.3002,4.3002,4.3002,4.3002,4.3002,4.3002,4.3002,4.3002,4.3002,4.3002,4.3002,4.3002,4.3002,4.3002,4.3002,4.3002,4.3002,4.3002,4.3002,4.3002,5.3492,5.3545,5.3663,5.3272,5.3196,5.3196,5.3196,5.3251,5.3544,5.4308,5.4454,5.4766,5.5511,5.5603,5.5328,5.4638,0.0,0.0,0.0,5.6436,5.6873,5.6809,5.681,5.6452,5.5635,5.4909,5.4186,5.3501,5.3501,5.3501,5.3501,5.3551,5.3585,5.3585,5.3636,5.3653,5.3653,5.3653,5.3653,5.3568,5.2567,5.1522,5.0425,4.9437,4.8368,4.7444,4.7444,4.7444,4.7444,4.7444,4.7444,4.7444,4.7444,4.7444,4.7429,4.7339,4.7309,4.7309,4.7369,4.7369,4.7369,4.7369,4.7369,4.7384,4.7429,4.7444,4.7444,4.7444,4.7444,4.7444,4.7444,4.7444,4.7638,4.8274,4.8379,4.8588,4.9202,0.0,0.0,0.0,0.0,0.0,0.0,3.8894,3.9962,0.0,0.0,0.0,0.0,0.0,3.9107,4.2889,4.3002,4.3002,4.3002,4.3002,4.3002,4.3002,4.3002,4.3002,4.3002,4.3002,4.3002,4.3002,4.3002,4.3002,4.3002,4.3002,4.3002,4.3002,4.3002,4.3002,4.3002,4.3002,4.3002,4.3002,0.0,0.0,5.3663,5.3272,5.3196,5.3196,5.3196,5.371,5.4179,5.4381,5.4932,5.5383,5.5585,5.5603,5.5768,5.6187,5.6223,5.6308,5.651,5.7281,5.7464,5.6912,5.63,5.5624,5.4878,5.4139,5.3684,5.3501,5.3501,5.3501,5.3518,5.4076,5.4329,5.4346,5.4938,5.5175,5.5175,5.5175,5.5175,5.5157,5.4913,5.3678,5.1981,5.1721,5.0453,4.8828,4.8828,4.8828,4.8828,4.8828,4.8828,4.8828,4.8828,4.8828,4.8633,4.7593,4.7309,4.7414,4.7923,4.8057,4.8057,4.8057,4.8057,4.8214,4.8708,4.8828,4.8828,4.8828,4.8828,4.8828,4.8828,4.8828,4.8873,4.9037,4.9052,4.9112,4.9284,4.9036,0.0,0.0,4.5222,4.4151,4.2787,4.2289,4.1557,0.0,0.0,0.0,0.0,3.9597,4.0287,4.2926,4.3002,4.3002,4.3002,4.3002,4.3002,4.3002,4.3002,4.3002,4.3002,4.3002,4.3002,4.3002,4.3002,4.3002,4.3002,4.3002,4.3002,4.3002,4.3002,4.3002,4.3002,4.3002,4.3002,4.3002,5.3614,5.3525,5.3454,5.3248,5.3196,5.3324,5.3691,5.4124,5.4656,5.5409,5.5886,5.629,5.6668,5.6705,5.687,5.7317,5.7012,5.6957,5.7317,5.7453,5.7327,5.6912,5.5812,5.5012,5.4605,5.3864,5.367,5.3991,5.4685,5.5006,5.5023,5.5412,5.5598,5.5615,5.5665,5.5699,5.5699,5.5699,5.5699,5.5664,5.517,5.3985,5.2457,5.1955,5.0743,4.9292,4.9292,4.9292,4.9292,4.9292,4.9292,4.9292,4.9292,4.9292,4.9157,4.8438,4.8214,4.8304,4.8663,4.8768,4.8768,4.8768,4.8768,4.8843,4.9224,4.9292,4.9292,4.9292,4.9292,4.9292,4.9292,4.9292,4.9381,4.9673,4.9232,4.9157,5.0032,4.9666,4.8757,4.7336,4.6796,4.5778,4.3783,4.3244,4.2512,4.1318,4.1218,0.0,4.1218,4.1218,4.1771,4.2964,4.3002,4.3002,4.3002,4.3002,4.3002,4.3002,4.3002,4.3002,4.3002,4.3002,4.3002,4.3002,4.3002,4.3002,4.3002,4.3002,4.3002,4.3002,4.3002,4.3002,4.3002,4.3002,4.3002,4.3002,5.3272,5.3196,5.3232,5.3361,5.3379,5.3654,5.4454,5.4675,5.5262,5.6609,5.6902,5.7244,5.7923,5.7997,5.7997,5.7997,5.7373,5.7281,5.796,5.7413,5.6964,5.6739,5.5592,5.484,5.4608,5.4105,5.4194,5.4921,5.619,5.6867,5.6968,5.7087,5.707,5.6934,5.6426,5.6139,5.602,5.602,5.602,5.5949,5.4837,5.3766,5.2716,5.1607,5.054,4.9591,4.9591,4.9591,4.9591,4.9591,4.9591,4.9591,4.9591,4.9591,4.9591,4.9591,4.9591,4.9561,4.9456,4.9441,4.9456,4.9561,4.9516,4.9456,4.9561,4.9591,4.9591,4.9591,4.9591,4.9591,4.9591,4.9591,4.9636,4.974,4.9194,4.9179,5.0428,0.0,4.9042,4.7595,4.7223,4.6095,4.3547,4.3113,4.3002,4.3002,4.3002,4.3002,4.3002,4.3002,4.3002,4.3002,4.3002,4.3002,4.3002,4.3002,4.3002,4.3002,4.3002,4.3002,4.3002,4.3002,4.3002,4.3002,4.3002,4.3002,4.3002,4.3002,4.3002,4.3002,4.3002,4.3002,4.3002,4.3002,4.3002,4.3002,5.3217,5.3196,5.3416,5.4106,5.4216,5.4491,5.5291,5.5996,5.6517,5.6774,5.7391,5.785,5.7997,5.7997,5.7997,5.7997,5.7886,5.7868,5.7997,5.7886,5.7253,5.5948,5.6307,5.5933,5.4635,5.5109,5.5716,5.6461,5.6697,5.712,5.7729,5.8372,5.8338,5.7764,5.8252,5.8152,5.7561,5.7561,5.7561,5.7471,5.6331,5.5229,5.4149,5.3018,5.1902,5.0915,5.0915,5.0915,5.0915,5.0915,5.0915,5.0915,5.0915,5.0915,5.0915,5.0915,5.0915,5.0772,5.0204,5.0069,5.0204,5.0757,5.0473,5.0204,5.0795,5.0915,5.0915,5.0915,5.0915,5.0915,5.0915,5.0915,5.0212,4.808,4.9426,5.0069,4.8177,0.0,5.0405,4.9034,4.7822,4.6461,4.4833,4.3645,4.3002,4.3002,4.3002,4.3002,4.3002,4.3002,4.3002,4.3002,4.3002,4.3002,4.3002,4.3002,4.3002,4.3002,4.3002,4.3002,4.3002,4.3002,4.3002,4.3002,4.3002,4.3002,4.3002,4.3002,4.3002,4.3002,4.3002,4.3002,4.3002,4.3002,4.3002,4.3002,5.394,5.4197,5.4601,5.4979,5.5042,5.5317,5.6124,5.6565,5.6957,5.7391,5.7776,5.7997,5.7997,5.7997,5.7997,5.7997,5.7997,5.7997,5.7997,5.7625,5.707,5.6336,5.6275,5.5909,5.5209,5.5919,5.6461,5.6799,5.8,5.8744,5.9099,5.9877,6.0063,5.9725,5.9641,5.9184,5.849,5.849,5.7924,5.6944,5.6415,5.5195,5.3634,5.3099,5.2184,5.1191,5.1191,5.1191,5.1191,5.1191,5.1191,5.1191,5.1191,5.1191,5.1191,5.1191,5.1191,5.1131,5.0832,5.0742,5.0817,5.1116,5.0966,5.0832,5.1131,5.1191,5.1191,5.1191,5.1191,5.1191,5.1191,5.1191,5.0802,4.9613,4.9838,4.9987,4.9479,4.9853,4.964,4.8229,4.7517,4.6253,4.414,4.3366,4.3002,4.3002,4.3002,4.3002,4.3002,4.3002,4.3002,4.3002,4.3002,4.3002,4.3002,4.3002,4.3002,4.3002,4.3002,4.3002,4.3002,4.3002,4.3002,4.3002,4.3002,4.3002,4.3002,4.3002,4.3002,4.3002,4.3002,4.3002,4.3002,4.3002,4.3002,4.3052,5.5078,5.5464,5.5879,5.5879,5.5879,5.6143,5.6969,5.7079,5.7299,5.7923,5.7997,5.7997,5.7997,5.7997,5.7997,5.7997,5.7997,5.7997,5.7997,5.7314,5.6877,5.6839,5.6283,5.6045,5.6207,5.6765,5.7222,5.7577,5.9268,6.0283,6.0655,6.1264,6.1467,6.1264,6.0655,5.9962,5.9233,5.8803,5.7802,5.6412,5.572,5.441,5.2856,5.262,5.1949,5.1191,5.1191,5.1191,5.1191,5.1191,5.1191,5.1191,5.1191,5.1191,5.1191,5.1191,5.1191,5.1191,5.1191,5.1191,5.1191,5.1191,5.1191,5.1191,5.1191,5.1191,5.1191,5.1191,5.1191,5.1191,5.1191,5.1191,5.0996,5.0383,4.9972,4.9875,5.0234,4.9972,4.9207,4.776,4.7299,4.6148,4.37,4.3184,4.3002,4.3002,4.3002,4.3002,4.3002,4.3002,4.3002,4.3002,4.3002,4.3002,4.3002,4.3002,4.3002,4.3002,4.3002,4.3002,4.3014,4.314,4.3203,4.3203,4.3313,4.3363,4.3363,4.3363,4.3363,4.3363,4.3363,4.3363,4.3363,4.3363,4.3363,4.3426,5.6627,5.6664,5.6701,5.6701,5.6701,5.6976,5.7795,5.7905,5.7923,5.7997,5.7997,5.7997,5.7997,5.7997,5.7997,5.7997,5.7997,5.7997,5.7997,5.7314,5.6909,5.6874,5.6775,5.704,5.773,5.7798,5.8473,5.986,6.0013,6.0825,6.2231,6.2299,6.1941,6.1298,6.1247,6.0774,5.9922,5.8224,5.744,5.7069,5.4273,5.3055,5.2767,5.1727,5.1284,5.1191,5.1191,5.1191,5.1191,5.1191,5.1191,5.1191,5.1191,5.1191,5.1191,5.1191,5.1191,5.1191,5.1191,5.1191,5.1191,5.1191,5.1191,5.1191,5.1191,5.1191,5.1191,5.1191,5.1191,5.1191,5.1191,5.1191,5.0398,4.7982,4.9553,5.0234,4.7923,4.9576,5.057,4.9196,4.7898,4.6513,4.4994,4.3727,4.3002,4.3002,4.3002,4.3002,4.3002,4.3002,4.3002,4.3002,4.3002,4.3002,4.3002,4.3002,4.3002,4.3002,4.3002,4.3002,4.3027,4.3501,4.374,4.3765,4.4279,4.4476,4.4476,4.4476,4.4476,4.4476,4.4476,4.4476,4.4476,4.4476,4.4476,4.4476,5.8389,5.8682,5.9031,5.9031,5.8627,5.8389,5.8701,5.8327,5.7997,5.7997,5.7997,5.7997,5.7997,5.7997,5.7997,5.7997,5.7997,5.7997,5.7997,5.7306,5.6879,5.6846,5.7261,5.7612,5.79,5.79,5.817,5.8746,5.9658,6.0402,6.0994,6.1941,6.2245,6.1975,6.1975,6.115,5.9675,5.899,5.7372,5.512,5.3986,5.2854,5.1796,5.1363,5.1191,5.1191,5.1191,5.1191,5.1191,5.1191,5.1191,5.1191,5.1191,5.1191,5.1191,5.1191,5.1191,5.1191,5.1191,5.1191,5.1191,5.1191,5.1191,5.1191,5.1191,5.1191,5.1191,5.1191,5.1191,5.1191,5.1191,5.1191,5.0862,4.9875,5.0548,5.0847,4.9868,5.0563,5.0373,4.815,4.7427,4.6226,4.3989,4.3283,4.3002,4.3002,4.3002,4.3152,4.3476,4.3815,4.4003,4.4003,4.4003,4.3664,4.3014,4.3341,4.3489,4.3489,4.3489,4.3664,4.4003,4.4217,4.4317,4.4317,4.4502,4.4589,4.4589,4.4589,4.4589,4.4589,4.4589,4.4589,4.4589,4.4589,4.4589,4.464,6.0059,6.0401,6.0694,6.0438,5.993,5.9581,5.9581,5.8884,5.8474,5.8712,5.8309,5.8107,5.8345,5.8143,5.7997,5.7997,5.7997,5.7897,5.7679,5.7168,5.685,5.6794,5.751,5.79,5.79,5.79,5.8137,5.8575,5.9607,6.0351,6.0842,6.189,6.24,6.24,6.24,6.1451,5.9807,5.921,5.7145,5.4195,5.3599,5.2488,5.1191,5.1191,5.1191,5.1191,5.1191,5.1191,5.1191,5.1191,5.1191,5.1191,5.1191,5.1191,5.1191,5.1191,5.1191,5.1191,5.1191,5.1191,5.1191,5.1191,5.1191,5.1191,5.1191,5.1191,5.1191,5.1191,5.1191,5.1191,5.1191,5.1191,5.1191,5.1191,5.1191,5.1191,5.1191,5.1191,5.024,4.7666,4.7358,4.6341,4.3733,4.3489,4.3489,4.3489,4.3489,4.3664,4.4041,4.4389,4.4589,4.4589,4.4765,4.4443,4.3501,4.3865,4.4053,4.4053,4.4053,4.4254,4.4602,4.4819,4.4895,4.4878,4.5054,4.5129,4.5129,4.5129,4.5129,4.5129,4.5129,4.5129,4.5129,4.5129,4.5129,4.5179,6.1606,6.1606,6.1355,6.0566,6.0419,6.0419,6.0419,5.9728,5.9508,6.0297,5.9006,5.8309,5.9104,5.8492,5.7997,5.7997,5.7997,5.7691,5.6956,5.6841,5.6795,5.6801,5.7509,5.79,5.79,5.79,5.8609,6.0097,6.0097,6.0875,6.2381,6.24,6.24,6.24,6.24,6.1716,6.0452,5.8593,5.6721,5.483,5.2965,5.1813,5.1206,5.1206,5.1206,5.1206,5.1191,5.1191,5.1191,5.1191,5.1191,5.1191,5.1191,5.1191,5.1191,5.1191,5.1191,5.1191,5.1191,5.1191,5.1191,5.1191,5.1191,5.1191,5.1191,5.1191,5.1191,5.1206,5.1206,5.1206,5.1206,5.1206,5.1206,5.1206,5.1206,5.1206,5.1206,5.1206,5.0392,4.8171,4.7901,4.7029,4.4816,4.4589,4.4589,4.4589,4.4589,4.4602,4.4602,4.4602,4.4614,4.4614,4.5196,4.5221,4.4614,4.4602,4.4602,4.4602,4.4602,4.4602,4.4627,4.5234,4.5497,4.5552,4.6075,4.6313,4.6313,4.6313,4.6313,4.6313,4.6313,4.6313,4.6313,4.6313,4.6313,4.6313,6.2444,6.2444,6.2371,6.2132,6.163,6.1245,6.1245,6.0566,6.0132,6.0382,5.949,5.8939,5.9178,5.8492,5.7785,5.7271,5.7703,5.791,5.768,5.7118,5.7018,5.7564,5.7763,5.79,5.79,5.79,5.8372,5.9317,5.986,6.0622,6.1637,6.2144,6.24,6.24,6.24,6.1276,5.9286,5.8745,5.6931,5.4386,5.383,5.3204,5.2546,5.2082,5.1902,5.1843,5.137,5.1191,5.1191,5.1191,5.1191,5.1191,5.1191,5.1191,5.1191,5.1191,5.1191,5.1191,5.1191,5.1191,5.1191,5.1191,5.1191,5.1191,5.1191,5.1191,5.1325,5.1813,5.1902,5.2052,5.2516,5.2591,5.2591,5.2591,5.2591,5.2591,5.2591,5.2591,5.1601,4.8931,4.8601,4.7568,4.487,4.4589,4.4589,4.4589,4.4995,4.5234,4.5234,4.5598,4.5799,4.5799,4.5974,4.5987,4.5781,4.5422,4.5234,4.5234,4.5234,4.5434,4.5811,4.5987,4.6062,4.6075,4.6238,4.6313,4.6313,4.6313,4.6313,4.6313,4.6313,4.6313,4.6313,4.6313,4.6313,4.6313,6.2793,6.2793,6.2793,6.2793,6.2401,6.2071,6.2071,6.1392,6.0988,6.1306,6.037,5.9802,6.0114,5.889,5.797,5.7823,5.7364,5.7213,5.7511,5.6812,5.6816,5.7867,5.79,5.79,5.79,5.79,5.8389,5.9436,5.9877,6.0655,6.1738,6.2178,6.24,6.24,6.24,6.1074,5.879,5.879,5.7012,5.4206,5.4206,5.3803,5.3139,5.2456,5.2202,5.2112,5.143,5.1191,5.1191,5.1191,5.1191,5.1191,5.1191,5.1191,5.1191,5.1191,5.1191,5.1251,5.1505,5.1618,5.1678,5.1932,5.1798,5.1618,5.1618,5.1813,5.2112,5.2501,5.2591,5.271,5.3139,5.3198,5.3198,5.3198,5.3198,5.3198,5.3198,5.2704,5.157,4.9462,4.8695,4.755,4.5481,4.5254,4.5254,4.5254,4.5623,4.5811,4.5811,4.6125,4.6313,4.6313,4.6313,4.6313,4.6313,4.5987,4.5811,4.5811,4.5811,4.5987,4.6313,4.6313,4.6313,4.6313,4.6313,4.6313,4.6313,4.6313,4.6313,4.6313,4.6313,4.6313,4.6313,4.6313,4.6313,4.6313,6.2793,6.2793,6.2793,6.2793,6.2793,6.2793,6.2793,6.2181,6.1961,6.2701,6.1453,6.0786,6.1533,5.9558,5.8451,5.906,5.6952,5.5968,5.6829,5.615,5.6358,5.7849,5.7967,5.7967,5.79,5.7967,5.8676,6.0097,6.0165,6.096,6.24,6.24,6.24,6.24,6.24,6.1074,5.879,5.879,5.7043,5.4296,5.4296,5.3922,5.3318,5.2636,5.2336,5.2202,5.1543,5.1251,5.1191,5.1191,5.1191,5.1191,5.1191,5.1236,5.128,5.128,5.1325,5.1505,5.2127,5.2291,5.2441,5.3064,5.2794,5.2366,5.2291,5.2755,5.3228,5.3288,5.3303,5.3318,5.3378,5.3378,5.3378,5.3378,5.3378,5.3378,5.3378,5.223,5.0971,4.9924,4.8603,4.7393,4.6401,4.6313,4.6313,4.6313,4.6313,4.6313,4.6313,4.6313,4.6313,4.6313,4.6313,4.6313,4.6313,4.6313,4.6313,4.6313,4.6313,4.6313,4.6313,4.6313,4.6313,4.6313,4.6313,4.6313,4.6313,4.6313,4.6313,4.6313,4.6313,4.6313,4.6313,4.6313,4.6313,4.6313,6.2793,6.2793,6.2793,6.2793,6.2793,6.2793,6.2793,6.2646,6.2591,6.2774,6.1961,6.141,6.1588,6.0023,5.8799,5.837,5.62,5.5637,5.7541,5.6423,5.6358,5.7849,5.8457,5.849,5.7917,5.8473,5.9201,6.0097,6.074,6.1501,6.24,6.24,6.24,6.24,6.24,6.1074,5.879,5.879,5.7324,5.4985,5.4985,5.4895,5.4685,5.4027,5.3443,5.2914,5.2217,5.1663,5.1191,5.1191,5.1191,5.1191,5.1191,5.155,5.1992,5.1992,5.2351,5.2785,5.2944,5.2989,5.3019,5.3169,5.3488,5.3638,5.3109,5.3109,5.3363,5.3877,5.3982,5.4147,5.4655,5.4785,5.4785,5.4785,5.4785,5.4785,5.4785,5.4479,5.3336,5.0794,5.0202,4.902,4.6546,4.6313,4.6313,4.6313,4.6313,4.6313,4.6313,4.6313,4.6313,4.6313,4.6313,4.6313,4.6313,4.6313,4.6313,4.6313,4.6313,4.6313,4.6313,4.6313,4.6313,4.6313,4.6313,4.6313,4.6313,4.6313,4.6313,4.6313,4.6313,4.6313,4.6313,4.6313,4.6313,4.6313,6.2793,6.2793,6.2793,6.2793,6.2793,6.2793,6.2793,6.2793,6.2793,6.2793,6.2426,6.2038,6.1647,6.02,5.8633,5.7089,5.615,5.6282,5.7808,5.7167,5.7408,5.8879,5.9319,5.9336,5.8947,5.9708,6.0097,6.0097,6.0909,6.1687,6.24,6.24,6.24,6.24,6.24,6.1074,5.879,5.879,5.7418,5.5194,5.5194,5.5194,5.5119,5.4461,5.3982,5.3578,5.292,5.2441,5.2157,5.2157,5.2157,5.2157,5.2157,5.2396,5.2665,5.2665,5.2944,5.3273,5.3578,5.3668,5.3743,5.4057,5.4416,5.4506,5.3832,5.3907,5.4236,5.4596,5.4685,5.4775,5.5134,5.5194,5.5194,5.5194,5.5194,5.4936,5.4237,5.3504,5.2213,4.9918,4.9038,4.7993,4.6451,4.6313,4.6313,4.6313,4.6313,4.6313,4.6313,4.6313,4.6313,4.6313,4.6313,4.6313,4.6313,4.6313,4.6313,4.6313,4.6313,4.6313,4.6313,4.6313,4.6313,4.6313,4.6313,4.6313,4.6313,4.6313,4.6313,4.6313,4.6313,4.6313,4.6313,4.6313,4.6313,4.6313,6.2793,6.2793,6.2793,6.2793,6.2793,6.2793,6.2793,6.2793,6.2793,6.2793,6.2674,6.2337,6.1673,6.0202,5.8403,5.6263,5.6528,5.7103,5.7849,5.7763,5.8304,5.9658,5.9962,6.0047,5.9911,6.0943,6.1095,6.0317,6.1095,6.1789,6.24,6.24,6.24,6.24,6.24,6.1074,5.879,5.879,5.7418,5.5194,5.5194,5.5194,5.5134,5.4581,5.4311,5.4132,5.3563,5.3303,5.3198,5.3198,5.3198,5.3198,5.3198,5.3288,5.3378,5.3378,5.3453,5.3677,5.4221,5.4386,5.4506,5.5059,5.5194,5.5044,5.4506,5.4805,5.5194,5.5194,5.5194,5.5194,5.5194,5.5194,5.5194,5.5194,5.4987,5.4406,5.3162,5.1658,5.0157,4.8676,4.7205,4.6313,4.6313,4.6313,4.6313,4.6313,4.6313,4.6313,4.6313,4.6313,4.6313,4.6313,4.6313,4.6313,4.6313,4.6313,4.6313,4.6313,4.6313,4.6313,4.6313,4.6313,4.6313,4.6313,4.6313,4.6313,4.6313,4.6313,4.6313,4.6313,4.6313,4.6313,4.6313,4.6313,4.6313,4.6313,6.2793,6.2793,6.2793,6.2793,6.2793,6.2793,6.2793,6.2793,6.2793,6.2793,6.2187,6.1715,6.16,6.0117,5.8719,5.7702,5.7103,5.7103,5.7849,5.7289,5.7323,5.8152,5.9421,5.981,5.9148,6.118,6.189,6.1146,6.189,6.2296,6.24,6.24,6.24,6.24,6.24,6.1074,5.879,5.879,5.7418,5.5194,5.5194,5.5194,5.5179,5.5089,5.47,5.4206,5.4102,5.3683,5.3198,5.3198,5.3198,5.3198,5.3198,5.3593,5.4072,5.4072,5.4476,5.494,5.5029,5.5059,5.5089,5.5164,5.5194,5.5164,5.5089,5.5119,5.5194,5.5194,5.5194,5.5194,5.5194,5.5194,5.5194,5.5194,5.4134,5.3241,5.3016,5.1658,5.0157,4.8676,4.7205,4.6313,4.6313,4.6313,4.6313,4.6313,4.6313,4.6313,4.6313,4.6313,4.6313,4.6313,4.6313,4.6313,4.6313,4.6313,4.6313,4.6313,4.6313,4.6313,4.6313,4.6313,4.6313,4.6313,4.6313,4.6313,4.6313,4.6313,4.6313,4.6313,4.6313,4.6313,4.6313,4.6313,4.6313,4.6313,6.2793,6.2793,6.2793,6.2793,6.2793,6.2793,6.2793,6.2793,6.2793,6.2793,6.2108,6.1432,6.0967,5.9427,5.8281,5.7936,5.7594,5.7729,5.8473,5.822,5.8372,5.9099,5.9742,6.0165,6.0283,6.1264,6.1823,6.1907,6.2248,6.24,6.24,6.24,6.24,6.24,6.24,6.1074,5.879,5.879,5.7418,5.5194,5.5194,5.5194,5.5194,5.5194,5.5014,5.476,5.476,5.4566,5.4336,5.4336,5.4336,5.4336,5.4336,5.4506,5.476,5.476,5.497,5.5194,5.5194,5.5194,5.5194,5.5194,5.5194,5.5194,5.5194,5.5194,5.5194,5.5194,5.5194,5.5194,5.5194,5.5194,5.5194,5.5194,5.4667,5.3623,5.1943,5.1126,4.9956,4.796,4.7417,4.7205,4.7205,4.7205,4.7205,4.7205,4.7205,4.7205,4.7205,4.7205,4.7205,4.7205,4.7205,4.7205,4.7205,4.7205,4.7205,4.7205,4.7205,4.6891,4.6313,4.6313,4.6313,4.6313,4.6313,4.6313,4.6313,4.6313,4.6313,4.6313,4.6313,4.6313,4.6313,4.6313,4.6313,4.6313]}]]